<?xml version="1.0" encoding="UTF-8" standalone="no" ?>
<gpx xmlns="http://www.topografix.com/GPX/1/1" xmlns:xsi="http://www.w3.org/2001/XMLSchema-instance" xsi:schemaLocation="http://www.topografix.com/GPX/1/1 http://www.topografix.com/GPX/1/1/gpx.xsd" version="1.1" creator="VisuGPX - https://www.visugpx.com">
  <metadata>
    <name>Vence / Saint Jeannet</name>
    <desc><![CDATA[Montée par le col de Vence, chemin de la mine, Castelet, Saint Jeannet et retour !]]></desc>
  </metadata>
  <trk>
    <name><![CDATA[Vence/Saint Jeannet]]></name>
    <desc><![CDATA[En "récup" du mercredi précédent, montée par le col de Vence (beurk), puis chemin de la Mine (sympa), gorge de la Cagnes et descente du Castellet free-ride. Belle boucle mais un peu sec à l'arrivée (début de crève).]]></desc>
    <trkseg>
      <trkpt lat="43.71991" lon="7.10868">
        <ele>325.39999389648</ele>
        <time>2011-06-20T07:24:28.000Z</time>
      </trkpt>
      <trkpt lat="43.71992" lon="7.10868">
        <ele>325.39999389648</ele>
        <time>2011-06-20T07:24:31.000Z</time>
      </trkpt>
      <trkpt lat="43.72" lon="7.10857">
        <ele>325.60000610352</ele>
        <time>2011-06-20T07:24:35.000Z</time>
      </trkpt>
      <trkpt lat="43.72011" lon="7.10826">
        <ele>324.20001220703</ele>
        <time>2011-06-20T07:24:40.000Z</time>
      </trkpt>
      <trkpt lat="43.72029" lon="7.10786">
        <ele>321.20001220703</ele>
        <time>2011-06-20T07:24:45.000Z</time>
      </trkpt>
      <trkpt lat="43.72046" lon="7.10735">
        <ele>319.60000610352</ele>
        <time>2011-06-20T07:24:51.000Z</time>
      </trkpt>
      <trkpt lat="43.72063" lon="7.10688">
        <ele>320.20001220703</ele>
        <time>2011-06-20T07:24:57.000Z</time>
      </trkpt>
      <trkpt lat="43.72081" lon="7.1067">
        <ele>321.60000610352</ele>
        <time>2011-06-20T07:25:01.000Z</time>
      </trkpt>
      <trkpt lat="43.72099" lon="7.10669">
        <ele>322</ele>
        <time>2011-06-20T07:25:04.000Z</time>
      </trkpt>
      <trkpt lat="43.72141" lon="7.10687">
        <ele>321.39999389648</ele>
        <time>2011-06-20T07:25:11.000Z</time>
      </trkpt>
      <trkpt lat="43.72184" lon="7.10706">
        <ele>321</ele>
        <time>2011-06-20T07:25:18.000Z</time>
      </trkpt>
      <trkpt lat="43.72191" lon="7.10707">
        <ele>321.20001220703</ele>
        <time>2011-06-20T07:25:19.000Z</time>
      </trkpt>
      <trkpt lat="43.72232" lon="7.107">
        <ele>322.60000610352</ele>
        <time>2011-06-20T07:25:26.000Z</time>
      </trkpt>
      <trkpt lat="43.72264" lon="7.10692">
        <ele>324.20001220703</ele>
        <time>2011-06-20T07:25:32.000Z</time>
      </trkpt>
      <trkpt lat="43.72282" lon="7.10702">
        <ele>325.20001220703</ele>
        <time>2011-06-20T07:25:36.000Z</time>
      </trkpt>
      <trkpt lat="43.72285" lon="7.10708">
        <ele>325.20001220703</ele>
        <time>2011-06-20T07:25:37.000Z</time>
      </trkpt>
      <trkpt lat="43.7229" lon="7.10721">
        <ele>325.20001220703</ele>
        <time>2011-06-20T07:25:39.000Z</time>
      </trkpt>
      <trkpt lat="43.72305" lon="7.10733">
        <ele>326.20001220703</ele>
        <time>2011-06-20T07:25:43.000Z</time>
      </trkpt>
      <trkpt lat="43.72318" lon="7.10725">
        <ele>327.20001220703</ele>
        <time>2011-06-20T07:25:46.000Z</time>
      </trkpt>
      <trkpt lat="43.72334" lon="7.10706">
        <ele>328.39999389648</ele>
        <time>2011-06-20T07:25:51.000Z</time>
      </trkpt>
      <trkpt lat="43.72346" lon="7.10704">
        <ele>328.60000610352</ele>
        <time>2011-06-20T07:25:55.000Z</time>
      </trkpt>
      <trkpt lat="43.72375" lon="7.10708">
        <ele>329.20001220703</ele>
        <time>2011-06-20T07:26:02.000Z</time>
      </trkpt>
      <trkpt lat="43.72383" lon="7.1071">
        <ele>329.39999389648</ele>
        <time>2011-06-20T07:26:04.000Z</time>
      </trkpt>
      <trkpt lat="43.7242" lon="7.10718">
        <ele>329.79998779297</ele>
        <time>2011-06-20T07:26:12.000Z</time>
      </trkpt>
      <trkpt lat="43.7243" lon="7.10719">
        <ele>328.79998779297</ele>
        <time>2011-06-20T07:26:14.000Z</time>
      </trkpt>
      <trkpt lat="43.72452" lon="7.10712">
        <ele>326.79998779297</ele>
        <time>2011-06-20T07:26:19.000Z</time>
      </trkpt>
      <trkpt lat="43.7246" lon="7.10707">
        <ele>326.20001220703</ele>
        <time>2011-06-20T07:26:21.000Z</time>
      </trkpt>
      <trkpt lat="43.72466" lon="7.10698">
        <ele>326.20001220703</ele>
        <time>2011-06-20T07:26:23.000Z</time>
      </trkpt>
      <trkpt lat="43.7248" lon="7.10677">
        <ele>326.60000610352</ele>
        <time>2011-06-20T07:26:28.000Z</time>
      </trkpt>
      <trkpt lat="43.72487" lon="7.10664">
        <ele>327.39999389648</ele>
        <time>2011-06-20T07:26:31.000Z</time>
      </trkpt>
      <trkpt lat="43.72507" lon="7.10624">
        <ele>329.60000610352</ele>
        <time>2011-06-20T07:26:40.000Z</time>
      </trkpt>
      <trkpt lat="43.72512" lon="7.10594">
        <ele>331.60000610352</ele>
        <time>2011-06-20T07:26:46.000Z</time>
      </trkpt>
      <trkpt lat="43.72516" lon="7.10573">
        <ele>333</ele>
        <time>2011-06-20T07:26:51.000Z</time>
      </trkpt>
      <trkpt lat="43.72528" lon="7.10548">
        <ele>334.79998779297</ele>
        <time>2011-06-20T07:26:58.000Z</time>
      </trkpt>
      <trkpt lat="43.72544" lon="7.10523">
        <ele>337</ele>
        <time>2011-06-20T07:27:06.000Z</time>
      </trkpt>
      <trkpt lat="43.7256" lon="7.10501">
        <ele>339.39999389648</ele>
        <time>2011-06-20T07:27:14.000Z</time>
      </trkpt>
      <trkpt lat="43.72581" lon="7.10475">
        <ele>341.60000610352</ele>
        <time>2011-06-20T07:27:24.000Z</time>
      </trkpt>
      <trkpt lat="43.72604" lon="7.10452">
        <ele>343.60000610352</ele>
        <time>2011-06-20T07:27:34.000Z</time>
      </trkpt>
      <trkpt lat="43.72625" lon="7.10434">
        <ele>345.60000610352</ele>
        <time>2011-06-20T07:27:43.000Z</time>
      </trkpt>
      <trkpt lat="43.72641" lon="7.10425">
        <ele>347</ele>
        <time>2011-06-20T07:27:49.000Z</time>
      </trkpt>
      <trkpt lat="43.72657" lon="7.10418">
        <ele>348.39999389648</ele>
        <time>2011-06-20T07:27:56.000Z</time>
      </trkpt>
      <trkpt lat="43.72674" lon="7.10403">
        <ele>349.20001220703</ele>
        <time>2011-06-20T07:28:04.000Z</time>
      </trkpt>
      <trkpt lat="43.72692" lon="7.10388">
        <ele>350.60000610352</ele>
        <time>2011-06-20T07:28:13.000Z</time>
      </trkpt>
      <trkpt lat="43.72711" lon="7.10381">
        <ele>352.39999389648</ele>
        <time>2011-06-20T07:28:21.000Z</time>
      </trkpt>
      <trkpt lat="43.72732" lon="7.10374">
        <ele>355</ele>
        <time>2011-06-20T07:28:30.000Z</time>
      </trkpt>
      <trkpt lat="43.72754" lon="7.10364">
        <ele>357.79998779297</ele>
        <time>2011-06-20T07:28:40.000Z</time>
      </trkpt>
      <trkpt lat="43.72777" lon="7.10351">
        <ele>360</ele>
        <time>2011-06-20T07:28:50.000Z</time>
      </trkpt>
      <trkpt lat="43.72796" lon="7.1034">
        <ele>362.39999389648</ele>
        <time>2011-06-20T07:28:58.000Z</time>
      </trkpt>
      <trkpt lat="43.72819" lon="7.10327">
        <ele>365.20001220703</ele>
        <time>2011-06-20T07:29:08.000Z</time>
      </trkpt>
      <trkpt lat="43.7284" lon="7.10317">
        <ele>367.20001220703</ele>
        <time>2011-06-20T07:29:17.000Z</time>
      </trkpt>
      <trkpt lat="43.72859" lon="7.10313">
        <ele>368.39999389648</ele>
        <time>2011-06-20T07:29:25.000Z</time>
      </trkpt>
      <trkpt lat="43.72881" lon="7.10313">
        <ele>369.39999389648</ele>
        <time>2011-06-20T07:29:33.000Z</time>
      </trkpt>
      <trkpt lat="43.7291" lon="7.10313">
        <ele>370.79998779297</ele>
        <time>2011-06-20T07:29:43.000Z</time>
      </trkpt>
      <trkpt lat="43.72933" lon="7.10315">
        <ele>371.20001220703</ele>
        <time>2011-06-20T07:29:51.000Z</time>
      </trkpt>
      <trkpt lat="43.72961" lon="7.10315">
        <ele>372</ele>
        <time>2011-06-20T07:30:00.000Z</time>
      </trkpt>
      <trkpt lat="43.72986" lon="7.10309">
        <ele>373.60000610352</ele>
        <time>2011-06-20T07:30:08.000Z</time>
      </trkpt>
      <trkpt lat="43.73016" lon="7.10292">
        <ele>378.60000610352</ele>
        <time>2011-06-20T07:30:19.000Z</time>
      </trkpt>
      <trkpt lat="43.7304" lon="7.10277">
        <ele>382.60000610352</ele>
        <time>2011-06-20T07:30:28.000Z</time>
      </trkpt>
      <trkpt lat="43.73057" lon="7.10271">
        <ele>384.39999389648</ele>
        <time>2011-06-20T07:30:34.000Z</time>
      </trkpt>
      <trkpt lat="43.73089" lon="7.10267">
        <ele>386.39999389648</ele>
        <time>2011-06-20T07:30:44.000Z</time>
      </trkpt>
      <trkpt lat="43.73119" lon="7.10267">
        <ele>390.20001220703</ele>
        <time>2011-06-20T07:30:54.000Z</time>
      </trkpt>
      <trkpt lat="43.7315" lon="7.10265">
        <ele>394.20001220703</ele>
        <time>2011-06-20T07:31:04.000Z</time>
      </trkpt>
      <trkpt lat="43.73171" lon="7.10266">
        <ele>397.20001220703</ele>
        <time>2011-06-20T07:31:11.000Z</time>
      </trkpt>
      <trkpt lat="43.73186" lon="7.10278">
        <ele>398.79998779297</ele>
        <time>2011-06-20T07:31:17.000Z</time>
      </trkpt>
      <trkpt lat="43.73216" lon="7.10311">
        <ele>399.60000610352</ele>
        <time>2011-06-20T07:31:30.000Z</time>
      </trkpt>
      <trkpt lat="43.73234" lon="7.10334">
        <ele>399.60000610352</ele>
        <time>2011-06-20T07:31:39.000Z</time>
      </trkpt>
      <trkpt lat="43.73244" lon="7.10345">
        <ele>403.39999389648</ele>
        <time>2011-06-20T07:31:44.000Z</time>
      </trkpt>
      <trkpt lat="43.73252" lon="7.10364">
        <ele>407.79998779297</ele>
        <time>2011-06-20T07:31:50.000Z</time>
      </trkpt>
      <trkpt lat="43.73244" lon="7.10383">
        <ele>409</ele>
        <time>2011-06-20T07:31:55.000Z</time>
      </trkpt>
      <trkpt lat="43.73225" lon="7.10393">
        <ele>407.60000610352</ele>
        <time>2011-06-20T07:32:01.000Z</time>
      </trkpt>
      <trkpt lat="43.73197" lon="7.10407">
        <ele>406</ele>
        <time>2011-06-20T07:32:11.000Z</time>
      </trkpt>
      <trkpt lat="43.73174" lon="7.10417">
        <ele>404.79998779297</ele>
        <time>2011-06-20T07:32:20.000Z</time>
      </trkpt>
      <trkpt lat="43.73154" lon="7.10429">
        <ele>405.60000610352</ele>
        <time>2011-06-20T07:32:28.000Z</time>
      </trkpt>
      <trkpt lat="43.73137" lon="7.10441">
        <ele>405.79998779297</ele>
        <time>2011-06-20T07:32:35.000Z</time>
      </trkpt>
      <trkpt lat="43.73118" lon="7.10457">
        <ele>407</ele>
        <time>2011-06-20T07:32:42.000Z</time>
      </trkpt>
      <trkpt lat="43.73097" lon="7.10485">
        <ele>411.60000610352</ele>
        <time>2011-06-20T07:32:51.000Z</time>
      </trkpt>
      <trkpt lat="43.73077" lon="7.10517">
        <ele>416.20001220703</ele>
        <time>2011-06-20T07:33:01.000Z</time>
      </trkpt>
      <trkpt lat="43.73063" lon="7.10541">
        <ele>417.79998779297</ele>
        <time>2011-06-20T07:33:09.000Z</time>
      </trkpt>
      <trkpt lat="43.73047" lon="7.10569">
        <ele>419</ele>
        <time>2011-06-20T07:33:17.000Z</time>
      </trkpt>
      <trkpt lat="43.73028" lon="7.10602">
        <ele>416.79998779297</ele>
        <time>2011-06-20T07:33:27.000Z</time>
      </trkpt>
      <trkpt lat="43.73013" lon="7.10632">
        <ele>415</ele>
        <time>2011-06-20T07:33:36.000Z</time>
      </trkpt>
      <trkpt lat="43.73006" lon="7.10657">
        <ele>416.60000610352</ele>
        <time>2011-06-20T07:33:43.000Z</time>
      </trkpt>
      <trkpt lat="43.73001" lon="7.10692">
        <ele>419</ele>
        <time>2011-06-20T07:33:51.000Z</time>
      </trkpt>
      <trkpt lat="43.72994" lon="7.10734">
        <ele>420.79998779297</ele>
        <time>2011-06-20T07:34:02.000Z</time>
      </trkpt>
      <trkpt lat="43.72992" lon="7.10757">
        <ele>422.79998779297</ele>
        <time>2011-06-20T07:34:08.000Z</time>
      </trkpt>
      <trkpt lat="43.72986" lon="7.10792">
        <ele>425.20001220703</ele>
        <time>2011-06-20T07:34:17.000Z</time>
      </trkpt>
      <trkpt lat="43.72979" lon="7.10827">
        <ele>426.60000610352</ele>
        <time>2011-06-20T07:34:26.000Z</time>
      </trkpt>
      <trkpt lat="43.72977" lon="7.10849">
        <ele>427</ele>
        <time>2011-06-20T07:34:32.000Z</time>
      </trkpt>
      <trkpt lat="43.72975" lon="7.10884">
        <ele>428</ele>
        <time>2011-06-20T07:34:40.000Z</time>
      </trkpt>
      <trkpt lat="43.72973" lon="7.10907">
        <ele>428.39999389648</ele>
        <time>2011-06-20T07:34:46.000Z</time>
      </trkpt>
      <trkpt lat="43.72977" lon="7.10942">
        <ele>430.60000610352</ele>
        <time>2011-06-20T07:34:54.000Z</time>
      </trkpt>
      <trkpt lat="43.72984" lon="7.10984">
        <ele>433.20001220703</ele>
        <time>2011-06-20T07:35:04.000Z</time>
      </trkpt>
      <trkpt lat="43.72988" lon="7.11012">
        <ele>434</ele>
        <time>2011-06-20T07:35:11.000Z</time>
      </trkpt>
      <trkpt lat="43.72992" lon="7.11036">
        <ele>434.39999389648</ele>
        <time>2011-06-20T07:35:17.000Z</time>
      </trkpt>
      <trkpt lat="43.73" lon="7.11082">
        <ele>435</ele>
        <time>2011-06-20T07:35:28.000Z</time>
      </trkpt>
      <trkpt lat="43.73008" lon="7.11103">
        <ele>434.79998779297</ele>
        <time>2011-06-20T07:35:34.000Z</time>
      </trkpt>
      <trkpt lat="43.73019" lon="7.11107">
        <ele>437.20001220703</ele>
        <time>2011-06-20T07:35:38.000Z</time>
      </trkpt>
      <trkpt lat="43.73029" lon="7.11097">
        <ele>440.39999389648</ele>
        <time>2011-06-20T07:35:42.000Z</time>
      </trkpt>
      <trkpt lat="43.7303" lon="7.11077">
        <ele>442</ele>
        <time>2011-06-20T07:35:47.000Z</time>
      </trkpt>
      <trkpt lat="43.73024" lon="7.11041">
        <ele>442.39999389648</ele>
        <time>2011-06-20T07:35:55.000Z</time>
      </trkpt>
      <trkpt lat="43.73022" lon="7.11">
        <ele>443.79998779297</ele>
        <time>2011-06-20T07:36:05.000Z</time>
      </trkpt>
      <trkpt lat="43.73024" lon="7.10971">
        <ele>444.79998779297</ele>
        <time>2011-06-20T07:36:12.000Z</time>
      </trkpt>
      <trkpt lat="43.73027" lon="7.10947">
        <ele>445.79998779297</ele>
        <time>2011-06-20T07:36:18.000Z</time>
      </trkpt>
      <trkpt lat="43.73023" lon="7.10911">
        <ele>445</ele>
        <time>2011-06-20T07:36:26.000Z</time>
      </trkpt>
      <trkpt lat="43.73012" lon="7.1088">
        <ele>441.20001220703</ele>
        <time>2011-06-20T07:36:33.000Z</time>
      </trkpt>
      <trkpt lat="43.73013" lon="7.1085">
        <ele>440.20001220703</ele>
        <time>2011-06-20T07:36:40.000Z</time>
      </trkpt>
      <trkpt lat="43.73022" lon="7.10827">
        <ele>441.79998779297</ele>
        <time>2011-06-20T07:36:46.000Z</time>
      </trkpt>
      <trkpt lat="43.73039" lon="7.10806">
        <ele>444.39999389648</ele>
        <time>2011-06-20T07:36:53.000Z</time>
      </trkpt>
      <trkpt lat="43.73061" lon="7.10781">
        <ele>448.60000610352</ele>
        <time>2011-06-20T07:37:02.000Z</time>
      </trkpt>
      <trkpt lat="43.73082" lon="7.10759">
        <ele>453.39999389648</ele>
        <time>2011-06-20T07:37:10.000Z</time>
      </trkpt>
      <trkpt lat="43.73108" lon="7.10737">
        <ele>457.60000610352</ele>
        <time>2011-06-20T07:37:19.000Z</time>
      </trkpt>
      <trkpt lat="43.73131" lon="7.10712">
        <ele>459.79998779297</ele>
        <time>2011-06-20T07:37:28.000Z</time>
      </trkpt>
      <trkpt lat="43.73152" lon="7.1069">
        <ele>461</ele>
        <time>2011-06-20T07:37:36.000Z</time>
      </trkpt>
      <trkpt lat="43.73178" lon="7.10665">
        <ele>461.79998779297</ele>
        <time>2011-06-20T07:37:45.000Z</time>
      </trkpt>
      <trkpt lat="43.73205" lon="7.10638">
        <ele>462.60000610352</ele>
        <time>2011-06-20T07:37:55.000Z</time>
      </trkpt>
      <trkpt lat="43.7323" lon="7.10617">
        <ele>462.20001220703</ele>
        <time>2011-06-20T07:38:04.000Z</time>
      </trkpt>
      <trkpt lat="43.73258" lon="7.10599">
        <ele>462.20001220703</ele>
        <time>2011-06-20T07:38:14.000Z</time>
      </trkpt>
      <trkpt lat="43.73296" lon="7.10582">
        <ele>465.60000610352</ele>
        <time>2011-06-20T07:38:26.000Z</time>
      </trkpt>
      <trkpt lat="43.73332" lon="7.10572">
        <ele>469.79998779297</ele>
        <time>2011-06-20T07:38:37.000Z</time>
      </trkpt>
      <trkpt lat="43.7336" lon="7.10564">
        <ele>474.20001220703</ele>
        <time>2011-06-20T07:38:46.000Z</time>
      </trkpt>
      <trkpt lat="43.7339" lon="7.10557">
        <ele>479.20001220703</ele>
        <time>2011-06-20T07:38:56.000Z</time>
      </trkpt>
      <trkpt lat="43.73409" lon="7.10545">
        <ele>479</ele>
        <time>2011-06-20T07:39:03.000Z</time>
      </trkpt>
      <trkpt lat="43.73433" lon="7.10532">
        <ele>478.20001220703</ele>
        <time>2011-06-20T07:39:12.000Z</time>
      </trkpt>
      <trkpt lat="43.73452" lon="7.1052">
        <ele>476.60000610352</ele>
        <time>2011-06-20T07:39:19.000Z</time>
      </trkpt>
      <trkpt lat="43.73472" lon="7.10507">
        <ele>475</ele>
        <time>2011-06-20T07:39:27.000Z</time>
      </trkpt>
      <trkpt lat="43.73497" lon="7.10499">
        <ele>476.20001220703</ele>
        <time>2011-06-20T07:39:36.000Z</time>
      </trkpt>
      <trkpt lat="43.73523" lon="7.10499">
        <ele>477</ele>
        <time>2011-06-20T07:39:45.000Z</time>
      </trkpt>
      <trkpt lat="43.73554" lon="7.10508">
        <ele>480.39999389648</ele>
        <time>2011-06-20T07:39:56.000Z</time>
      </trkpt>
      <trkpt lat="43.73582" lon="7.10514">
        <ele>482</ele>
        <time>2011-06-20T07:40:05.000Z</time>
      </trkpt>
      <trkpt lat="43.73621" lon="7.10518">
        <ele>484.20001220703</ele>
        <time>2011-06-20T07:40:17.000Z</time>
      </trkpt>
      <trkpt lat="43.73655" lon="7.10531">
        <ele>488.60000610352</ele>
        <time>2011-06-20T07:40:28.000Z</time>
      </trkpt>
      <trkpt lat="43.73684" lon="7.10542">
        <ele>493.60000610352</ele>
        <time>2011-06-20T07:40:38.000Z</time>
      </trkpt>
      <trkpt lat="43.73706" lon="7.1054">
        <ele>495.20001220703</ele>
        <time>2011-06-20T07:40:46.000Z</time>
      </trkpt>
      <trkpt lat="43.73725" lon="7.10532">
        <ele>494.60000610352</ele>
        <time>2011-06-20T07:40:53.000Z</time>
      </trkpt>
      <trkpt lat="43.73746" lon="7.10528">
        <ele>495.60000610352</ele>
        <time>2011-06-20T07:41:01.000Z</time>
      </trkpt>
      <trkpt lat="43.73779" lon="7.10531">
        <ele>498.39999389648</ele>
        <time>2011-06-20T07:41:13.000Z</time>
      </trkpt>
      <trkpt lat="43.73807" lon="7.10544">
        <ele>503.20001220703</ele>
        <time>2011-06-20T07:41:23.000Z</time>
      </trkpt>
      <trkpt lat="43.73834" lon="7.10556">
        <ele>506.79998779297</ele>
        <time>2011-06-20T07:41:33.000Z</time>
      </trkpt>
      <trkpt lat="43.73859" lon="7.10559">
        <ele>508.60000610352</ele>
        <time>2011-06-20T07:41:42.000Z</time>
      </trkpt>
      <trkpt lat="43.73885" lon="7.10555">
        <ele>509.20001220703</ele>
        <time>2011-06-20T07:41:51.000Z</time>
      </trkpt>
      <trkpt lat="43.73906" lon="7.10553">
        <ele>510</ele>
        <time>2011-06-20T07:41:58.000Z</time>
      </trkpt>
      <trkpt lat="43.73928" lon="7.10556">
        <ele>512.20001220703</ele>
        <time>2011-06-20T07:42:06.000Z</time>
      </trkpt>
      <trkpt lat="43.73953" lon="7.1056">
        <ele>515.20001220703</ele>
        <time>2011-06-20T07:42:15.000Z</time>
      </trkpt>
      <trkpt lat="43.73971" lon="7.10556">
        <ele>516.79998779297</ele>
        <time>2011-06-20T07:42:22.000Z</time>
      </trkpt>
      <trkpt lat="43.73996" lon="7.10554">
        <ele>519.40002441406</ele>
        <time>2011-06-20T07:42:31.000Z</time>
      </trkpt>
      <trkpt lat="43.74024" lon="7.10549">
        <ele>522</ele>
        <time>2011-06-20T07:42:41.000Z</time>
      </trkpt>
      <trkpt lat="43.74058" lon="7.10545">
        <ele>525.20001220703</ele>
        <time>2011-06-20T07:42:53.000Z</time>
      </trkpt>
      <trkpt lat="43.74082" lon="7.10547">
        <ele>527.59997558594</ele>
        <time>2011-06-20T07:43:02.000Z</time>
      </trkpt>
      <trkpt lat="43.74109" lon="7.10544">
        <ele>532.20001220703</ele>
        <time>2011-06-20T07:43:12.000Z</time>
      </trkpt>
      <trkpt lat="43.74133" lon="7.10535">
        <ele>535.40002441406</ele>
        <time>2011-06-20T07:43:21.000Z</time>
      </trkpt>
      <trkpt lat="43.74158" lon="7.10517">
        <ele>536.79998779297</ele>
        <time>2011-06-20T07:43:31.000Z</time>
      </trkpt>
      <trkpt lat="43.74181" lon="7.10497">
        <ele>537.79998779297</ele>
        <time>2011-06-20T07:43:41.000Z</time>
      </trkpt>
      <trkpt lat="43.74205" lon="7.10483">
        <ele>542.40002441406</ele>
        <time>2011-06-20T07:43:51.000Z</time>
      </trkpt>
      <trkpt lat="43.74227" lon="7.10473">
        <ele>545</ele>
        <time>2011-06-20T07:44:00.000Z</time>
      </trkpt>
      <trkpt lat="43.74251" lon="7.10463">
        <ele>546.40002441406</ele>
        <time>2011-06-20T07:44:10.000Z</time>
      </trkpt>
      <trkpt lat="43.7427" lon="7.10451">
        <ele>548.79998779297</ele>
        <time>2011-06-20T07:44:19.000Z</time>
      </trkpt>
      <trkpt lat="43.74288" lon="7.10436">
        <ele>548.79998779297</ele>
        <time>2011-06-20T07:44:28.000Z</time>
      </trkpt>
      <trkpt lat="43.74308" lon="7.10417">
        <ele>546.79998779297</ele>
        <time>2011-06-20T07:44:39.000Z</time>
      </trkpt>
      <trkpt lat="43.74325" lon="7.104">
        <ele>551</ele>
        <time>2011-06-20T07:44:49.000Z</time>
      </trkpt>
      <trkpt lat="43.74346" lon="7.10389">
        <ele>556</ele>
        <time>2011-06-20T07:44:59.000Z</time>
      </trkpt>
      <trkpt lat="43.74368" lon="7.10381">
        <ele>561.20001220703</ele>
        <time>2011-06-20T07:45:10.000Z</time>
      </trkpt>
      <trkpt lat="43.74388" lon="7.10368">
        <ele>564</ele>
        <time>2011-06-20T07:45:20.000Z</time>
      </trkpt>
      <trkpt lat="43.74405" lon="7.10345">
        <ele>563</ele>
        <time>2011-06-20T07:45:31.000Z</time>
      </trkpt>
      <trkpt lat="43.74418" lon="7.10319">
        <ele>562.20001220703</ele>
        <time>2011-06-20T07:45:41.000Z</time>
      </trkpt>
      <trkpt lat="43.74436" lon="7.10294">
        <ele>567</ele>
        <time>2011-06-20T07:45:52.000Z</time>
      </trkpt>
      <trkpt lat="43.74456" lon="7.10276">
        <ele>569.79998779297</ele>
        <time>2011-06-20T07:46:03.000Z</time>
      </trkpt>
      <trkpt lat="43.74478" lon="7.10256">
        <ele>569.79998779297</ele>
        <time>2011-06-20T07:46:15.000Z</time>
      </trkpt>
      <trkpt lat="43.74499" lon="7.10237">
        <ele>571.20001220703</ele>
        <time>2011-06-20T07:46:26.000Z</time>
      </trkpt>
      <trkpt lat="43.74519" lon="7.10219">
        <ele>577</ele>
        <time>2011-06-20T07:46:36.000Z</time>
      </trkpt>
      <trkpt lat="43.74541" lon="7.10199">
        <ele>580.40002441406</ele>
        <time>2011-06-20T07:46:47.000Z</time>
      </trkpt>
      <trkpt lat="43.74561" lon="7.10181">
        <ele>580.59997558594</ele>
        <time>2011-06-20T07:46:57.000Z</time>
      </trkpt>
      <trkpt lat="43.74582" lon="7.10161">
        <ele>579.20001220703</ele>
        <time>2011-06-20T07:47:07.000Z</time>
      </trkpt>
      <trkpt lat="43.74602" lon="7.10141">
        <ele>583.20001220703</ele>
        <time>2011-06-20T07:47:16.000Z</time>
      </trkpt>
      <trkpt lat="43.7463" lon="7.10114">
        <ele>586.20001220703</ele>
        <time>2011-06-20T07:47:29.000Z</time>
      </trkpt>
      <trkpt lat="43.74642" lon="7.10095">
        <ele>585.79998779297</ele>
        <time>2011-06-20T07:47:36.000Z</time>
      </trkpt>
      <trkpt lat="43.74651" lon="7.10065">
        <ele>586.59997558594</ele>
        <time>2011-06-20T07:47:45.000Z</time>
      </trkpt>
      <trkpt lat="43.74661" lon="7.10026">
        <ele>588.59997558594</ele>
        <time>2011-06-20T07:47:56.000Z</time>
      </trkpt>
      <trkpt lat="43.74671" lon="7.09987">
        <ele>591.20001220703</ele>
        <time>2011-06-20T07:48:07.000Z</time>
      </trkpt>
      <trkpt lat="43.7468" lon="7.09957">
        <ele>595.40002441406</ele>
        <time>2011-06-20T07:48:16.000Z</time>
      </trkpt>
      <trkpt lat="43.7469" lon="7.09925">
        <ele>599.40002441406</ele>
        <time>2011-06-20T07:48:26.000Z</time>
      </trkpt>
      <trkpt lat="43.74703" lon="7.09891">
        <ele>603.79998779297</ele>
        <time>2011-06-20T07:48:37.000Z</time>
      </trkpt>
      <trkpt lat="43.74717" lon="7.09861">
        <ele>606</ele>
        <time>2011-06-20T07:48:47.000Z</time>
      </trkpt>
      <trkpt lat="43.74737" lon="7.09832">
        <ele>606</ele>
        <time>2011-06-20T07:48:58.000Z</time>
      </trkpt>
      <trkpt lat="43.74754" lon="7.09809">
        <ele>607.59997558594</ele>
        <time>2011-06-20T07:49:08.000Z</time>
      </trkpt>
      <trkpt lat="43.74774" lon="7.09779">
        <ele>612.79998779297</ele>
        <time>2011-06-20T07:49:19.000Z</time>
      </trkpt>
      <trkpt lat="43.74789" lon="7.0975">
        <ele>614.40002441406</ele>
        <time>2011-06-20T07:49:29.000Z</time>
      </trkpt>
      <trkpt lat="43.74805" lon="7.09724">
        <ele>616.79998779297</ele>
        <time>2011-06-20T07:49:39.000Z</time>
      </trkpt>
      <trkpt lat="43.74822" lon="7.097">
        <ele>616.59997558594</ele>
        <time>2011-06-20T07:49:49.000Z</time>
      </trkpt>
      <trkpt lat="43.74841" lon="7.09674">
        <ele>616</ele>
        <time>2011-06-20T07:50:00.000Z</time>
      </trkpt>
      <trkpt lat="43.74869" lon="7.0964">
        <ele>621.79998779297</ele>
        <time>2011-06-20T07:50:14.000Z</time>
      </trkpt>
      <trkpt lat="43.74893" lon="7.09623">
        <ele>625</ele>
        <time>2011-06-20T07:50:24.000Z</time>
      </trkpt>
      <trkpt lat="43.74915" lon="7.09611">
        <ele>626.40002441406</ele>
        <time>2011-06-20T07:50:33.000Z</time>
      </trkpt>
      <trkpt lat="43.74942" lon="7.09596">
        <ele>627.79998779297</ele>
        <time>2011-06-20T07:50:44.000Z</time>
      </trkpt>
      <trkpt lat="43.74973" lon="7.09579">
        <ele>629.79998779297</ele>
        <time>2011-06-20T07:50:57.000Z</time>
      </trkpt>
      <trkpt lat="43.75" lon="7.09563">
        <ele>634</ele>
        <time>2011-06-20T07:51:08.000Z</time>
      </trkpt>
      <trkpt lat="43.75017" lon="7.09558">
        <ele>636.59997558594</ele>
        <time>2011-06-20T07:51:15.000Z</time>
      </trkpt>
      <trkpt lat="43.7502" lon="7.09575">
        <ele>635.59997558594</ele>
        <time>2011-06-20T07:51:20.000Z</time>
      </trkpt>
      <trkpt lat="43.75011" lon="7.0958">
        <ele>634</ele>
        <time>2011-06-20T07:51:23.000Z</time>
      </trkpt>
      <trkpt lat="43.74988" lon="7.09584">
        <ele>630.59997558594</ele>
        <time>2011-06-20T07:51:32.000Z</time>
      </trkpt>
      <trkpt lat="43.74976" lon="7.09594">
        <ele>631.79998779297</ele>
        <time>2011-06-20T07:51:37.000Z</time>
      </trkpt>
      <trkpt lat="43.74953" lon="7.09614">
        <ele>632.79998779297</ele>
        <time>2011-06-20T07:51:47.000Z</time>
      </trkpt>
      <trkpt lat="43.74933" lon="7.09631">
        <ele>632.20001220703</ele>
        <time>2011-06-20T07:51:56.000Z</time>
      </trkpt>
      <trkpt lat="43.74918" lon="7.09652">
        <ele>632.20001220703</ele>
        <time>2011-06-20T07:52:04.000Z</time>
      </trkpt>
      <trkpt lat="43.74923" lon="7.09665">
        <ele>635.40002441406</ele>
        <time>2011-06-20T07:52:08.000Z</time>
      </trkpt>
      <trkpt lat="43.74934" lon="7.09663">
        <ele>637.79998779297</ele>
        <time>2011-06-20T07:52:12.000Z</time>
      </trkpt>
      <trkpt lat="43.7495" lon="7.09647">
        <ele>638.59997558594</ele>
        <time>2011-06-20T07:52:18.000Z</time>
      </trkpt>
      <trkpt lat="43.74977" lon="7.09625">
        <ele>639.40002441406</ele>
        <time>2011-06-20T07:52:28.000Z</time>
      </trkpt>
      <trkpt lat="43.75004" lon="7.09617">
        <ele>642</ele>
        <time>2011-06-20T07:52:37.000Z</time>
      </trkpt>
      <trkpt lat="43.75043" lon="7.09612">
        <ele>646.79998779297</ele>
        <time>2011-06-20T07:52:50.000Z</time>
      </trkpt>
      <trkpt lat="43.75072" lon="7.09603">
        <ele>649</ele>
        <time>2011-06-20T07:53:00.000Z</time>
      </trkpt>
      <trkpt lat="43.751" lon="7.09592">
        <ele>650.20001220703</ele>
        <time>2011-06-20T07:53:10.000Z</time>
      </trkpt>
      <trkpt lat="43.75129" lon="7.09586">
        <ele>652.79998779297</ele>
        <time>2011-06-20T07:53:20.000Z</time>
      </trkpt>
      <trkpt lat="43.75154" lon="7.0959">
        <ele>657.79998779297</ele>
        <time>2011-06-20T07:53:30.000Z</time>
      </trkpt>
      <trkpt lat="43.75168" lon="7.09583">
        <ele>658.20001220703</ele>
        <time>2011-06-20T07:53:36.000Z</time>
      </trkpt>
      <trkpt lat="43.75173" lon="7.09563">
        <ele>657.20001220703</ele>
        <time>2011-06-20T07:53:42.000Z</time>
      </trkpt>
      <trkpt lat="43.75182" lon="7.09533">
        <ele>655.79998779297</ele>
        <time>2011-06-20T07:53:51.000Z</time>
      </trkpt>
      <trkpt lat="43.75198" lon="7.09511">
        <ele>656.40002441406</ele>
        <time>2011-06-20T07:54:00.000Z</time>
      </trkpt>
      <trkpt lat="43.75214" lon="7.09494">
        <ele>657.59997558594</ele>
        <time>2011-06-20T07:54:08.000Z</time>
      </trkpt>
      <trkpt lat="43.75234" lon="7.09481">
        <ele>660.40002441406</ele>
        <time>2011-06-20T07:54:17.000Z</time>
      </trkpt>
      <trkpt lat="43.75257" lon="7.09477">
        <ele>663.79998779297</ele>
        <time>2011-06-20T07:54:26.000Z</time>
      </trkpt>
      <trkpt lat="43.75282" lon="7.09474">
        <ele>668.20001220703</ele>
        <time>2011-06-20T07:54:36.000Z</time>
      </trkpt>
      <trkpt lat="43.75303" lon="7.09467">
        <ele>671.59997558594</ele>
        <time>2011-06-20T07:54:45.000Z</time>
      </trkpt>
      <trkpt lat="43.75329" lon="7.09457">
        <ele>675</ele>
        <time>2011-06-20T07:54:56.000Z</time>
      </trkpt>
      <trkpt lat="43.75349" lon="7.09447">
        <ele>678</ele>
        <time>2011-06-20T07:55:05.000Z</time>
      </trkpt>
      <trkpt lat="43.75374" lon="7.09434">
        <ele>682</ele>
        <time>2011-06-20T07:55:16.000Z</time>
      </trkpt>
      <trkpt lat="43.75396" lon="7.09417">
        <ele>683.59997558594</ele>
        <time>2011-06-20T07:55:26.000Z</time>
      </trkpt>
      <trkpt lat="43.75419" lon="7.09393">
        <ele>688.40002441406</ele>
        <time>2011-06-20T07:55:37.000Z</time>
      </trkpt>
      <trkpt lat="43.75435" lon="7.09367">
        <ele>692.40002441406</ele>
        <time>2011-06-20T07:55:47.000Z</time>
      </trkpt>
      <trkpt lat="43.75447" lon="7.0934">
        <ele>694.40002441406</ele>
        <time>2011-06-20T07:55:56.000Z</time>
      </trkpt>
      <trkpt lat="43.75453" lon="7.09322">
        <ele>696.40002441406</ele>
        <time>2011-06-20T07:56:02.000Z</time>
      </trkpt>
      <trkpt lat="43.75457" lon="7.09306">
        <ele>697.79998779297</ele>
        <time>2011-06-20T07:56:08.000Z</time>
      </trkpt>
      <trkpt lat="43.75442" lon="7.09293">
        <ele>696</ele>
        <time>2011-06-20T07:56:15.000Z</time>
      </trkpt>
      <trkpt lat="43.75431" lon="7.093">
        <ele>693.79998779297</ele>
        <time>2011-06-20T07:56:19.000Z</time>
      </trkpt>
      <trkpt lat="43.75414" lon="7.09326">
        <ele>688</ele>
        <time>2011-06-20T07:56:28.000Z</time>
      </trkpt>
      <trkpt lat="43.75392" lon="7.09338">
        <ele>686.59997558594</ele>
        <time>2011-06-20T07:56:37.000Z</time>
      </trkpt>
      <trkpt lat="43.75372" lon="7.09339">
        <ele>686.20001220703</ele>
        <time>2011-06-20T07:56:45.000Z</time>
      </trkpt>
      <trkpt lat="43.75346" lon="7.0933">
        <ele>687.59997558594</ele>
        <time>2011-06-20T07:56:56.000Z</time>
      </trkpt>
      <trkpt lat="43.75322" lon="7.09316">
        <ele>689.20001220703</ele>
        <time>2011-06-20T07:57:07.000Z</time>
      </trkpt>
      <trkpt lat="43.75304" lon="7.09302">
        <ele>689.40002441406</ele>
        <time>2011-06-20T07:57:16.000Z</time>
      </trkpt>
      <trkpt lat="43.7528" lon="7.09279">
        <ele>690.40002441406</ele>
        <time>2011-06-20T07:57:28.000Z</time>
      </trkpt>
      <trkpt lat="43.75268" lon="7.09255">
        <ele>693.79998779297</ele>
        <time>2011-06-20T07:57:37.000Z</time>
      </trkpt>
      <trkpt lat="43.75263" lon="7.09215">
        <ele>697.59997558594</ele>
        <time>2011-06-20T07:57:49.000Z</time>
      </trkpt>
      <trkpt lat="43.75262" lon="7.09181">
        <ele>700.79998779297</ele>
        <time>2011-06-20T07:57:59.000Z</time>
      </trkpt>
      <trkpt lat="43.7526" lon="7.09143">
        <ele>704.59997558594</ele>
        <time>2011-06-20T07:58:10.000Z</time>
      </trkpt>
      <trkpt lat="43.75261" lon="7.09119">
        <ele>707.40002441406</ele>
        <time>2011-06-20T07:58:17.000Z</time>
      </trkpt>
      <trkpt lat="43.75261" lon="7.0909">
        <ele>710.40002441406</ele>
        <time>2011-06-20T07:58:26.000Z</time>
      </trkpt>
      <trkpt lat="43.75261" lon="7.09055">
        <ele>714.20001220703</ele>
        <time>2011-06-20T07:58:37.000Z</time>
      </trkpt>
      <trkpt lat="43.75256" lon="7.09027">
        <ele>716.20001220703</ele>
        <time>2011-06-20T07:58:46.000Z</time>
      </trkpt>
      <trkpt lat="43.75245" lon="7.08995">
        <ele>719.59997558594</ele>
        <time>2011-06-20T07:58:57.000Z</time>
      </trkpt>
      <trkpt lat="43.75245" lon="7.08974">
        <ele>722.40002441406</ele>
        <time>2011-06-20T07:59:03.000Z</time>
      </trkpt>
      <trkpt lat="43.75253" lon="7.08969">
        <ele>722.59997558594</ele>
        <time>2011-06-20T07:59:07.000Z</time>
      </trkpt>
      <trkpt lat="43.75264" lon="7.08978">
        <ele>723.59997558594</ele>
        <time>2011-06-20T07:59:12.000Z</time>
      </trkpt>
      <trkpt lat="43.7527" lon="7.09">
        <ele>722</ele>
        <time>2011-06-20T07:59:19.000Z</time>
      </trkpt>
      <trkpt lat="43.75278" lon="7.09033">
        <ele>720.20001220703</ele>
        <time>2011-06-20T07:59:29.000Z</time>
      </trkpt>
      <trkpt lat="43.75291" lon="7.0907">
        <ele>719.20001220703</ele>
        <time>2011-06-20T07:59:41.000Z</time>
      </trkpt>
      <trkpt lat="43.75307" lon="7.09092">
        <ele>720.20001220703</ele>
        <time>2011-06-20T07:59:50.000Z</time>
      </trkpt>
      <trkpt lat="43.75325" lon="7.09108">
        <ele>722.59997558594</ele>
        <time>2011-06-20T07:59:59.000Z</time>
      </trkpt>
      <trkpt lat="43.75343" lon="7.09116">
        <ele>722.79998779297</ele>
        <time>2011-06-20T08:00:07.000Z</time>
      </trkpt>
      <trkpt lat="43.75365" lon="7.09117">
        <ele>721.79998779297</ele>
        <time>2011-06-20T08:00:16.000Z</time>
      </trkpt>
      <trkpt lat="43.75382" lon="7.09105">
        <ele>722.79998779297</ele>
        <time>2011-06-20T08:00:24.000Z</time>
      </trkpt>
      <trkpt lat="43.75401" lon="7.09074">
        <ele>726.40002441406</ele>
        <time>2011-06-20T08:00:36.000Z</time>
      </trkpt>
      <trkpt lat="43.75417" lon="7.09044">
        <ele>730.20001220703</ele>
        <time>2011-06-20T08:00:47.000Z</time>
      </trkpt>
      <trkpt lat="43.75429" lon="7.09013">
        <ele>732</ele>
        <time>2011-06-20T08:00:58.000Z</time>
      </trkpt>
      <trkpt lat="43.75442" lon="7.08983">
        <ele>733.40002441406</ele>
        <time>2011-06-20T08:01:08.000Z</time>
      </trkpt>
      <trkpt lat="43.75454" lon="7.08954">
        <ele>735.20001220703</ele>
        <time>2011-06-20T08:01:18.000Z</time>
      </trkpt>
      <trkpt lat="43.75462" lon="7.08919">
        <ele>738.59997558594</ele>
        <time>2011-06-20T08:01:29.000Z</time>
      </trkpt>
      <trkpt lat="43.75468" lon="7.08888">
        <ele>741.59997558594</ele>
        <time>2011-06-20T08:01:39.000Z</time>
      </trkpt>
      <trkpt lat="43.75474" lon="7.08854">
        <ele>745.20001220703</ele>
        <time>2011-06-20T08:01:50.000Z</time>
      </trkpt>
      <trkpt lat="43.75482" lon="7.08826">
        <ele>748.20001220703</ele>
        <time>2011-06-20T08:01:59.000Z</time>
      </trkpt>
      <trkpt lat="43.7549" lon="7.08803">
        <ele>751.79998779297</ele>
        <time>2011-06-20T08:02:07.000Z</time>
      </trkpt>
      <trkpt lat="43.75502" lon="7.08793">
        <ele>753</ele>
        <time>2011-06-20T08:02:13.000Z</time>
      </trkpt>
      <trkpt lat="43.75514" lon="7.08795">
        <ele>752.20001220703</ele>
        <time>2011-06-20T08:02:18.000Z</time>
      </trkpt>
      <trkpt lat="43.75538" lon="7.08801">
        <ele>750</ele>
        <time>2011-06-20T08:02:28.000Z</time>
      </trkpt>
      <trkpt lat="43.75554" lon="7.08796">
        <ele>750.20001220703</ele>
        <time>2011-06-20T08:02:35.000Z</time>
      </trkpt>
      <trkpt lat="43.75577" lon="7.08776">
        <ele>753</ele>
        <time>2011-06-20T08:02:46.000Z</time>
      </trkpt>
      <trkpt lat="43.75601" lon="7.08752">
        <ele>755.79998779297</ele>
        <time>2011-06-20T08:02:58.000Z</time>
      </trkpt>
      <trkpt lat="43.75613" lon="7.08733">
        <ele>758</ele>
        <time>2011-06-20T08:03:06.000Z</time>
      </trkpt>
      <trkpt lat="43.75625" lon="7.08709">
        <ele>760.79998779297</ele>
        <time>2011-06-20T08:03:15.000Z</time>
      </trkpt>
      <trkpt lat="43.75631" lon="7.08682">
        <ele>764.20001220703</ele>
        <time>2011-06-20T08:03:24.000Z</time>
      </trkpt>
      <trkpt lat="43.75634" lon="7.08658">
        <ele>767.20001220703</ele>
        <time>2011-06-20T08:03:32.000Z</time>
      </trkpt>
      <trkpt lat="43.75633" lon="7.08633">
        <ele>771.20001220703</ele>
        <time>2011-06-20T08:03:40.000Z</time>
      </trkpt>
      <trkpt lat="43.75637" lon="7.08609">
        <ele>774.20001220703</ele>
        <time>2011-06-20T08:03:48.000Z</time>
      </trkpt>
      <trkpt lat="43.75648" lon="7.08598">
        <ele>774.20001220703</ele>
        <time>2011-06-20T08:03:54.000Z</time>
      </trkpt>
      <trkpt lat="43.75673" lon="7.08597">
        <ele>772.79998779297</ele>
        <time>2011-06-20T08:04:04.000Z</time>
      </trkpt>
      <trkpt lat="43.7569" lon="7.0859">
        <ele>775.40002441406</ele>
        <time>2011-06-20T08:04:11.000Z</time>
      </trkpt>
      <trkpt lat="43.75711" lon="7.08573">
        <ele>780.79998779297</ele>
        <time>2011-06-20T08:04:21.000Z</time>
      </trkpt>
      <trkpt lat="43.75729" lon="7.08562">
        <ele>785</ele>
        <time>2011-06-20T08:04:29.000Z</time>
      </trkpt>
      <trkpt lat="43.75742" lon="7.08566">
        <ele>785.20001220703</ele>
        <time>2011-06-20T08:04:35.000Z</time>
      </trkpt>
      <trkpt lat="43.7575" lon="7.08581">
        <ele>782.40002441406</ele>
        <time>2011-06-20T08:04:41.000Z</time>
      </trkpt>
      <trkpt lat="43.75753" lon="7.08603">
        <ele>780.59997558594</ele>
        <time>2011-06-20T08:04:48.000Z</time>
      </trkpt>
      <trkpt lat="43.7576" lon="7.08625">
        <ele>779.79998779297</ele>
        <time>2011-06-20T08:04:56.000Z</time>
      </trkpt>
      <trkpt lat="43.75776" lon="7.0864">
        <ele>780.79998779297</ele>
        <time>2011-06-20T08:05:04.000Z</time>
      </trkpt>
      <trkpt lat="43.75796" lon="7.0865">
        <ele>783.40002441406</ele>
        <time>2011-06-20T08:05:13.000Z</time>
      </trkpt>
      <trkpt lat="43.7582" lon="7.08661">
        <ele>786.20001220703</ele>
        <time>2011-06-20T08:05:24.000Z</time>
      </trkpt>
      <trkpt lat="43.75836" lon="7.08667">
        <ele>788</ele>
        <time>2011-06-20T08:05:31.000Z</time>
      </trkpt>
      <trkpt lat="43.75855" lon="7.08665">
        <ele>789.40002441406</ele>
        <time>2011-06-20T08:05:39.000Z</time>
      </trkpt>
      <trkpt lat="43.75874" lon="7.08663">
        <ele>790.59997558594</ele>
        <time>2011-06-20T08:05:47.000Z</time>
      </trkpt>
      <trkpt lat="43.75891" lon="7.08672">
        <ele>790.79998779297</ele>
        <time>2011-06-20T08:05:55.000Z</time>
      </trkpt>
      <trkpt lat="43.75906" lon="7.08678">
        <ele>791</ele>
        <time>2011-06-20T08:06:02.000Z</time>
      </trkpt>
      <trkpt lat="43.75918" lon="7.0867">
        <ele>792.40002441406</ele>
        <time>2011-06-20T08:06:08.000Z</time>
      </trkpt>
      <trkpt lat="43.75937" lon="7.08643">
        <ele>793.59997558594</ele>
        <time>2011-06-20T08:06:18.000Z</time>
      </trkpt>
      <trkpt lat="43.75962" lon="7.08615">
        <ele>794.40002441406</ele>
        <time>2011-06-20T08:06:29.000Z</time>
      </trkpt>
      <trkpt lat="43.75981" lon="7.08587">
        <ele>795.40002441406</ele>
        <time>2011-06-20T08:06:39.000Z</time>
      </trkpt>
      <trkpt lat="43.7599" lon="7.08561">
        <ele>798.79998779297</ele>
        <time>2011-06-20T08:06:47.000Z</time>
      </trkpt>
      <trkpt lat="43.76006" lon="7.08528">
        <ele>803.79998779297</ele>
        <time>2011-06-20T08:06:57.000Z</time>
      </trkpt>
      <trkpt lat="43.76024" lon="7.08504">
        <ele>806.79998779297</ele>
        <time>2011-06-20T08:07:06.000Z</time>
      </trkpt>
      <trkpt lat="43.76045" lon="7.0847">
        <ele>810.59997558594</ele>
        <time>2011-06-20T08:07:18.000Z</time>
      </trkpt>
      <trkpt lat="43.76054" lon="7.08441">
        <ele>814.20001220703</ele>
        <time>2011-06-20T08:07:27.000Z</time>
      </trkpt>
      <trkpt lat="43.7606" lon="7.0841">
        <ele>818.20001220703</ele>
        <time>2011-06-20T08:07:36.000Z</time>
      </trkpt>
      <trkpt lat="43.76074" lon="7.08394">
        <ele>819.79998779297</ele>
        <time>2011-06-20T08:07:43.000Z</time>
      </trkpt>
      <trkpt lat="43.76087" lon="7.08395">
        <ele>819</ele>
        <time>2011-06-20T08:07:48.000Z</time>
      </trkpt>
      <trkpt lat="43.76099" lon="7.0841">
        <ele>818.40002441406</ele>
        <time>2011-06-20T08:07:54.000Z</time>
      </trkpt>
      <trkpt lat="43.76117" lon="7.08439">
        <ele>817.40002441406</ele>
        <time>2011-06-20T08:08:04.000Z</time>
      </trkpt>
      <trkpt lat="43.76134" lon="7.08465">
        <ele>816.79998779297</ele>
        <time>2011-06-20T08:08:13.000Z</time>
      </trkpt>
      <trkpt lat="43.76152" lon="7.08488">
        <ele>817</ele>
        <time>2011-06-20T08:08:22.000Z</time>
      </trkpt>
      <trkpt lat="43.76174" lon="7.08503">
        <ele>818.59997558594</ele>
        <time>2011-06-20T08:08:31.000Z</time>
      </trkpt>
      <trkpt lat="43.762" lon="7.08519">
        <ele>821</ele>
        <time>2011-06-20T08:08:42.000Z</time>
      </trkpt>
      <trkpt lat="43.76222" lon="7.0853">
        <ele>823</ele>
        <time>2011-06-20T08:08:51.000Z</time>
      </trkpt>
      <trkpt lat="43.76235" lon="7.08537">
        <ele>824.40002441406</ele>
        <time>2011-06-20T08:08:57.000Z</time>
      </trkpt>
      <trkpt lat="43.76256" lon="7.08547">
        <ele>825.79998779297</ele>
        <time>2011-06-20T08:09:06.000Z</time>
      </trkpt>
      <trkpt lat="43.76274" lon="7.08545">
        <ele>827.20001220703</ele>
        <time>2011-06-20T08:09:14.000Z</time>
      </trkpt>
      <trkpt lat="43.76295" lon="7.08536">
        <ele>829</ele>
        <time>2011-06-20T08:09:23.000Z</time>
      </trkpt>
      <trkpt lat="43.76312" lon="7.08529">
        <ele>830.79998779297</ele>
        <time>2011-06-20T08:09:31.000Z</time>
      </trkpt>
      <trkpt lat="43.7633" lon="7.0852">
        <ele>832.79998779297</ele>
        <time>2011-06-20T08:09:39.000Z</time>
      </trkpt>
      <trkpt lat="43.76337" lon="7.08509">
        <ele>834</ele>
        <time>2011-06-20T08:09:44.000Z</time>
      </trkpt>
      <trkpt lat="43.76335" lon="7.08494">
        <ele>835.79998779297</ele>
        <time>2011-06-20T08:09:49.000Z</time>
      </trkpt>
      <trkpt lat="43.76324" lon="7.08483">
        <ele>836.59997558594</ele>
        <time>2011-06-20T08:09:54.000Z</time>
      </trkpt>
      <trkpt lat="43.76293" lon="7.08456">
        <ele>838.59997558594</ele>
        <time>2011-06-20T08:10:07.000Z</time>
      </trkpt>
      <trkpt lat="43.76271" lon="7.08438">
        <ele>840</ele>
        <time>2011-06-20T08:10:16.000Z</time>
      </trkpt>
      <trkpt lat="43.76244" lon="7.08417">
        <ele>840.79998779297</ele>
        <time>2011-06-20T08:10:27.000Z</time>
      </trkpt>
      <trkpt lat="43.7622" lon="7.08397">
        <ele>840.79998779297</ele>
        <time>2011-06-20T08:10:37.000Z</time>
      </trkpt>
      <trkpt lat="43.76203" lon="7.08372">
        <ele>842.59997558594</ele>
        <time>2011-06-20T08:10:46.000Z</time>
      </trkpt>
      <trkpt lat="43.76193" lon="7.08348">
        <ele>845.40002441406</ele>
        <time>2011-06-20T08:10:54.000Z</time>
      </trkpt>
      <trkpt lat="43.7618" lon="7.08315">
        <ele>849.20001220703</ele>
        <time>2011-06-20T08:11:05.000Z</time>
      </trkpt>
      <trkpt lat="43.7617" lon="7.08287">
        <ele>852.20001220703</ele>
        <time>2011-06-20T08:11:14.000Z</time>
      </trkpt>
      <trkpt lat="43.76159" lon="7.08259">
        <ele>855</ele>
        <time>2011-06-20T08:11:24.000Z</time>
      </trkpt>
      <trkpt lat="43.76145" lon="7.08231">
        <ele>858.40002441406</ele>
        <time>2011-06-20T08:11:35.000Z</time>
      </trkpt>
      <trkpt lat="43.76126" lon="7.08203">
        <ele>861.79998779297</ele>
        <time>2011-06-20T08:11:47.000Z</time>
      </trkpt>
      <trkpt lat="43.7611" lon="7.0818">
        <ele>864.59997558594</ele>
        <time>2011-06-20T08:11:57.000Z</time>
      </trkpt>
      <trkpt lat="43.76092" lon="7.08159">
        <ele>866.59997558594</ele>
        <time>2011-06-20T08:12:07.000Z</time>
      </trkpt>
      <trkpt lat="43.7608" lon="7.08144">
        <ele>868.20001220703</ele>
        <time>2011-06-20T08:12:14.000Z</time>
      </trkpt>
      <trkpt lat="43.76065" lon="7.08134">
        <ele>870.79998779297</ele>
        <time>2011-06-20T08:12:20.000Z</time>
      </trkpt>
      <trkpt lat="43.76047" lon="7.08136">
        <ele>871.40002441406</ele>
        <time>2011-06-20T08:12:27.000Z</time>
      </trkpt>
      <trkpt lat="43.76034" lon="7.08148">
        <ele>869.59997558594</ele>
        <time>2011-06-20T08:12:33.000Z</time>
      </trkpt>
      <trkpt lat="43.7602" lon="7.08162">
        <ele>867.79998779297</ele>
        <time>2011-06-20T08:12:40.000Z</time>
      </trkpt>
      <trkpt lat="43.75994" lon="7.08176">
        <ele>866.79998779297</ele>
        <time>2011-06-20T08:12:51.000Z</time>
      </trkpt>
      <trkpt lat="43.75972" lon="7.08189">
        <ele>866.40002441406</ele>
        <time>2011-06-20T08:13:01.000Z</time>
      </trkpt>
      <trkpt lat="43.75957" lon="7.08193">
        <ele>867</ele>
        <time>2011-06-20T08:13:07.000Z</time>
      </trkpt>
      <trkpt lat="43.75931" lon="7.08191">
        <ele>869.59997558594</ele>
        <time>2011-06-20T08:13:17.000Z</time>
      </trkpt>
      <trkpt lat="43.75906" lon="7.08186">
        <ele>871.79998779297</ele>
        <time>2011-06-20T08:13:27.000Z</time>
      </trkpt>
      <trkpt lat="43.75879" lon="7.08172">
        <ele>874.79998779297</ele>
        <time>2011-06-20T08:13:38.000Z</time>
      </trkpt>
      <trkpt lat="43.7586" lon="7.0816">
        <ele>877.40002441406</ele>
        <time>2011-06-20T08:13:46.000Z</time>
      </trkpt>
      <trkpt lat="43.75835" lon="7.08141">
        <ele>881.20001220703</ele>
        <time>2011-06-20T08:13:57.000Z</time>
      </trkpt>
      <trkpt lat="43.75811" lon="7.08122">
        <ele>883.20001220703</ele>
        <time>2011-06-20T08:14:08.000Z</time>
      </trkpt>
      <trkpt lat="43.75799" lon="7.0811">
        <ele>884.59997558594</ele>
        <time>2011-06-20T08:14:14.000Z</time>
      </trkpt>
      <trkpt lat="43.75784" lon="7.08098">
        <ele>885.79998779297</ele>
        <time>2011-06-20T08:14:21.000Z</time>
      </trkpt>
      <trkpt lat="43.75757" lon="7.08076">
        <ele>888</ele>
        <time>2011-06-20T08:14:33.000Z</time>
      </trkpt>
      <trkpt lat="43.7573" lon="7.08053">
        <ele>889.59997558594</ele>
        <time>2011-06-20T08:14:45.000Z</time>
      </trkpt>
      <trkpt lat="43.7571" lon="7.08036">
        <ele>890.20001220703</ele>
        <time>2011-06-20T08:14:55.000Z</time>
      </trkpt>
      <trkpt lat="43.75692" lon="7.08017">
        <ele>890.79998779297</ele>
        <time>2011-06-20T08:15:04.000Z</time>
      </trkpt>
      <trkpt lat="43.75684" lon="7.07997">
        <ele>892.59997558594</ele>
        <time>2011-06-20T08:15:11.000Z</time>
      </trkpt>
      <trkpt lat="43.7568" lon="7.07968">
        <ele>894.79998779297</ele>
        <time>2011-06-20T08:15:20.000Z</time>
      </trkpt>
      <trkpt lat="43.75678" lon="7.07942">
        <ele>896.79998779297</ele>
        <time>2011-06-20T08:15:28.000Z</time>
      </trkpt>
      <trkpt lat="43.75676" lon="7.07916">
        <ele>898.79998779297</ele>
        <time>2011-06-20T08:15:36.000Z</time>
      </trkpt>
      <trkpt lat="43.75674" lon="7.0789">
        <ele>899.59997558594</ele>
        <time>2011-06-20T08:15:44.000Z</time>
      </trkpt>
      <trkpt lat="43.75671" lon="7.07852">
        <ele>900.79998779297</ele>
        <time>2011-06-20T08:15:55.000Z</time>
      </trkpt>
      <trkpt lat="43.7567" lon="7.07819">
        <ele>902.20001220703</ele>
        <time>2011-06-20T08:16:04.000Z</time>
      </trkpt>
      <trkpt lat="43.75669" lon="7.07777">
        <ele>904.20001220703</ele>
        <time>2011-06-20T08:16:15.000Z</time>
      </trkpt>
      <trkpt lat="43.75673" lon="7.0775">
        <ele>906.20001220703</ele>
        <time>2011-06-20T08:16:23.000Z</time>
      </trkpt>
      <trkpt lat="43.7568" lon="7.0772">
        <ele>908</ele>
        <time>2011-06-20T08:16:32.000Z</time>
      </trkpt>
      <trkpt lat="43.7569" lon="7.07691">
        <ele>910.59997558594</ele>
        <time>2011-06-20T08:16:41.000Z</time>
      </trkpt>
      <trkpt lat="43.75699" lon="7.07665">
        <ele>913</ele>
        <time>2011-06-20T08:16:49.000Z</time>
      </trkpt>
      <trkpt lat="43.75711" lon="7.07625">
        <ele>916</ele>
        <time>2011-06-20T08:17:01.000Z</time>
      </trkpt>
      <trkpt lat="43.75718" lon="7.07599">
        <ele>917.79998779297</ele>
        <time>2011-06-20T08:17:09.000Z</time>
      </trkpt>
      <trkpt lat="43.75719" lon="7.07573">
        <ele>918.59997558594</ele>
        <time>2011-06-20T08:17:16.000Z</time>
      </trkpt>
      <trkpt lat="43.75723" lon="7.07531">
        <ele>921.40002441406</ele>
        <time>2011-06-20T08:17:28.000Z</time>
      </trkpt>
      <trkpt lat="43.75719" lon="7.07503">
        <ele>921.59997558594</ele>
        <time>2011-06-20T08:17:36.000Z</time>
      </trkpt>
      <trkpt lat="43.75715" lon="7.07477">
        <ele>922.20001220703</ele>
        <time>2011-06-20T08:17:44.000Z</time>
      </trkpt>
      <trkpt lat="43.75717" lon="7.07457">
        <ele>924</ele>
        <time>2011-06-20T08:17:50.000Z</time>
      </trkpt>
      <trkpt lat="43.75728" lon="7.07452">
        <ele>927.20001220703</ele>
        <time>2011-06-20T08:17:55.000Z</time>
      </trkpt>
      <trkpt lat="43.7574" lon="7.07463">
        <ele>929.40002441406</ele>
        <time>2011-06-20T08:18:00.000Z</time>
      </trkpt>
      <trkpt lat="43.7575" lon="7.07486">
        <ele>930.79998779297</ele>
        <time>2011-06-20T08:18:06.000Z</time>
      </trkpt>
      <trkpt lat="43.75761" lon="7.07521">
        <ele>931.40002441406</ele>
        <time>2011-06-20T08:18:15.000Z</time>
      </trkpt>
      <trkpt lat="43.7577" lon="7.07564">
        <ele>931.20001220703</ele>
        <time>2011-06-20T08:18:26.000Z</time>
      </trkpt>
      <trkpt lat="43.75778" lon="7.07602">
        <ele>931.79998779297</ele>
        <time>2011-06-20T08:18:36.000Z</time>
      </trkpt>
      <trkpt lat="43.75782" lon="7.07623">
        <ele>932.40002441406</ele>
        <time>2011-06-20T08:18:43.000Z</time>
      </trkpt>
      <trkpt lat="43.75792" lon="7.0766">
        <ele>934</ele>
        <time>2011-06-20T08:18:55.000Z</time>
      </trkpt>
      <trkpt lat="43.75806" lon="7.0768">
        <ele>936</ele>
        <time>2011-06-20T08:19:03.000Z</time>
      </trkpt>
      <trkpt lat="43.75821" lon="7.07691">
        <ele>938.20001220703</ele>
        <time>2011-06-20T08:19:10.000Z</time>
      </trkpt>
      <trkpt lat="43.75846" lon="7.077">
        <ele>940.79998779297</ele>
        <time>2011-06-20T08:19:20.000Z</time>
      </trkpt>
      <trkpt lat="43.7587" lon="7.077">
        <ele>942.40002441406</ele>
        <time>2011-06-20T08:19:27.000Z</time>
      </trkpt>
      <trkpt lat="43.75889" lon="7.07687">
        <ele>944.59997558594</ele>
        <time>2011-06-20T08:19:33.000Z</time>
      </trkpt>
      <trkpt lat="43.75908" lon="7.07662">
        <ele>947.59997558594</ele>
        <time>2011-06-20T08:19:41.000Z</time>
      </trkpt>
      <trkpt lat="43.75925" lon="7.07635">
        <ele>950</ele>
        <time>2011-06-20T08:19:49.000Z</time>
      </trkpt>
      <trkpt lat="43.75941" lon="7.07609">
        <ele>951.79998779297</ele>
        <time>2011-06-20T08:19:58.000Z</time>
      </trkpt>
      <trkpt lat="43.75958" lon="7.07585">
        <ele>953.79998779297</ele>
        <time>2011-06-20T08:20:07.000Z</time>
      </trkpt>
      <trkpt lat="43.75976" lon="7.07566">
        <ele>956.20001220703</ele>
        <time>2011-06-20T08:20:14.000Z</time>
      </trkpt>
      <trkpt lat="43.76002" lon="7.07552">
        <ele>958.40002441406</ele>
        <time>2011-06-20T08:20:22.000Z</time>
      </trkpt>
      <trkpt lat="43.76012" lon="7.07548">
        <ele>959.20001220703</ele>
        <time>2011-06-20T08:20:25.000Z</time>
      </trkpt>
      <trkpt lat="43.76024" lon="7.07542">
        <ele>960.40002441406</ele>
        <time>2011-06-20T08:20:29.000Z</time>
      </trkpt>
      <trkpt lat="43.76039" lon="7.07535">
        <ele>961.40002441406</ele>
        <time>2011-06-20T08:20:36.000Z</time>
      </trkpt>
      <trkpt lat="43.76052" lon="7.07526">
        <ele>962.40002441406</ele>
        <time>2011-06-20T08:20:43.000Z</time>
      </trkpt>
      <trkpt lat="43.76067" lon="7.07516">
        <ele>963.20001220703</ele>
        <time>2011-06-20T08:20:51.000Z</time>
      </trkpt>
      <trkpt lat="43.76078" lon="7.07506">
        <ele>963.79998779297</ele>
        <time>2011-06-20T08:20:57.000Z</time>
      </trkpt>
      <trkpt lat="43.76098" lon="7.0749">
        <ele>964</ele>
        <time>2011-06-20T08:21:06.000Z</time>
      </trkpt>
      <trkpt lat="43.76109" lon="7.07487">
        <ele>964</ele>
        <time>2011-06-20T08:21:12.000Z</time>
      </trkpt>
      <trkpt lat="43.76114" lon="7.07486">
        <ele>964</ele>
        <time>2011-06-20T08:21:19.000Z</time>
      </trkpt>
      <trkpt lat="43.76114" lon="7.07487">
        <ele>964</ele>
        <time>2011-06-20T08:21:25.000Z</time>
      </trkpt>
      <trkpt lat="43.76114" lon="7.07487">
        <ele>964</ele>
        <time>2011-06-20T08:21:31.000Z</time>
      </trkpt>
      <trkpt lat="43.76117" lon="7.07486">
        <ele>964</ele>
        <time>2011-06-20T08:21:37.000Z</time>
      </trkpt>
      <trkpt lat="43.76116" lon="7.07486">
        <ele>964</ele>
        <time>2011-06-20T08:21:41.000Z</time>
      </trkpt>
      <trkpt lat="43.76113" lon="7.07488">
        <ele>964</ele>
        <time>2011-06-20T08:21:57.000Z</time>
      </trkpt>
      <trkpt lat="43.76113" lon="7.07487">
        <ele>964</ele>
        <time>2011-06-20T08:22:05.000Z</time>
      </trkpt>
      <trkpt lat="43.76113" lon="7.07487">
        <ele>964</ele>
        <time>2011-06-20T08:22:09.000Z</time>
      </trkpt>
      <trkpt lat="43.76108" lon="7.07493">
        <ele>964</ele>
        <time>2011-06-20T08:22:18.000Z</time>
      </trkpt>
      <trkpt lat="43.76113" lon="7.0749">
        <ele>964</ele>
        <time>2011-06-20T08:22:30.000Z</time>
      </trkpt>
      <trkpt lat="43.76113" lon="7.07489">
        <ele>964</ele>
        <time>2011-06-20T08:22:33.000Z</time>
      </trkpt>
      <trkpt lat="43.76112" lon="7.07486">
        <ele>964</ele>
        <time>2011-06-20T08:26:28.000Z</time>
      </trkpt>
      <trkpt lat="43.76112" lon="7.07486">
        <ele>964</ele>
        <time>2011-06-20T08:26:29.000Z</time>
      </trkpt>
      <trkpt lat="43.76112" lon="7.07486">
        <ele>964</ele>
        <time>2011-06-20T08:26:30.000Z</time>
      </trkpt>
      <trkpt lat="43.76115" lon="7.07474">
        <ele>963.79998779297</ele>
        <time>2011-06-20T08:26:35.000Z</time>
      </trkpt>
      <trkpt lat="43.7613" lon="7.07454">
        <ele>963.59997558594</ele>
        <time>2011-06-20T08:26:41.000Z</time>
      </trkpt>
      <trkpt lat="43.76152" lon="7.0742">
        <ele>963</ele>
        <time>2011-06-20T08:26:47.000Z</time>
      </trkpt>
      <trkpt lat="43.76173" lon="7.0738">
        <ele>960.59997558594</ele>
        <time>2011-06-20T08:26:52.000Z</time>
      </trkpt>
      <trkpt lat="43.76192" lon="7.07327">
        <ele>957.79998779297</ele>
        <time>2011-06-20T08:26:57.000Z</time>
      </trkpt>
      <trkpt lat="43.76219" lon="7.0728">
        <ele>957</ele>
        <time>2011-06-20T08:27:02.000Z</time>
      </trkpt>
      <trkpt lat="43.76253" lon="7.07249">
        <ele>957</ele>
        <time>2011-06-20T08:27:07.000Z</time>
      </trkpt>
      <trkpt lat="43.76267" lon="7.07238">
        <ele>956.59997558594</ele>
        <time>2011-06-20T08:27:09.000Z</time>
      </trkpt>
      <trkpt lat="43.76281" lon="7.07223">
        <ele>956.20001220703</ele>
        <time>2011-06-20T08:27:11.000Z</time>
      </trkpt>
      <trkpt lat="43.76303" lon="7.07191">
        <ele>954.40002441406</ele>
        <time>2011-06-20T08:27:15.000Z</time>
      </trkpt>
      <trkpt lat="43.76328" lon="7.0717">
        <ele>953.20001220703</ele>
        <time>2011-06-20T08:27:19.000Z</time>
      </trkpt>
      <trkpt lat="43.76374" lon="7.07147">
        <ele>949.59997558594</ele>
        <time>2011-06-20T08:27:25.000Z</time>
      </trkpt>
      <trkpt lat="43.76441" lon="7.07115">
        <ele>944.59997558594</ele>
        <time>2011-06-20T08:27:32.000Z</time>
      </trkpt>
      <trkpt lat="43.76506" lon="7.07078">
        <ele>941.59997558594</ele>
        <time>2011-06-20T08:27:39.000Z</time>
      </trkpt>
      <trkpt lat="43.76548" lon="7.07057">
        <ele>940.20001220703</ele>
        <time>2011-06-20T08:27:44.000Z</time>
      </trkpt>
      <trkpt lat="43.76595" lon="7.07047">
        <ele>938.40002441406</ele>
        <time>2011-06-20T08:27:49.000Z</time>
      </trkpt>
      <trkpt lat="43.76706" lon="7.07014">
        <ele>931.59997558594</ele>
        <time>2011-06-20T08:28:00.000Z</time>
      </trkpt>
      <trkpt lat="43.76772" lon="7.06995">
        <ele>929</ele>
        <time>2011-06-20T08:28:07.000Z</time>
      </trkpt>
      <trkpt lat="43.76821" lon="7.06975">
        <ele>928.40002441406</ele>
        <time>2011-06-20T08:28:13.000Z</time>
      </trkpt>
      <trkpt lat="43.76834" lon="7.06967">
        <ele>927.79998779297</ele>
        <time>2011-06-20T08:28:15.000Z</time>
      </trkpt>
      <trkpt lat="43.76856" lon="7.06968">
        <ele>926.40002441406</ele>
        <time>2011-06-20T08:28:19.000Z</time>
      </trkpt>
      <trkpt lat="43.76861" lon="7.06972">
        <ele>926.20001220703</ele>
        <time>2011-06-20T08:28:20.000Z</time>
      </trkpt>
      <trkpt lat="43.76871" lon="7.06981">
        <ele>925.79998779297</ele>
        <time>2011-06-20T08:28:22.000Z</time>
      </trkpt>
      <trkpt lat="43.76906" lon="7.07006">
        <ele>924.79998779297</ele>
        <time>2011-06-20T08:28:29.000Z</time>
      </trkpt>
      <trkpt lat="43.76911" lon="7.07009">
        <ele>925</ele>
        <time>2011-06-20T08:28:30.000Z</time>
      </trkpt>
      <trkpt lat="43.76947" lon="7.07041">
        <ele>927</ele>
        <time>2011-06-20T08:28:37.000Z</time>
      </trkpt>
      <trkpt lat="43.76973" lon="7.07064">
        <ele>926.20001220703</ele>
        <time>2011-06-20T08:28:42.000Z</time>
      </trkpt>
      <trkpt lat="43.76979" lon="7.0707">
        <ele>925.59997558594</ele>
        <time>2011-06-20T08:28:43.000Z</time>
      </trkpt>
      <trkpt lat="43.76998" lon="7.07095">
        <ele>925</ele>
        <time>2011-06-20T08:28:47.000Z</time>
      </trkpt>
      <trkpt lat="43.77012" lon="7.07125">
        <ele>928.40002441406</ele>
        <time>2011-06-20T08:28:51.000Z</time>
      </trkpt>
      <trkpt lat="43.77034" lon="7.0715">
        <ele>927.40002441406</ele>
        <time>2011-06-20T08:28:55.000Z</time>
      </trkpt>
      <trkpt lat="43.77065" lon="7.07175">
        <ele>921.59997558594</ele>
        <time>2011-06-20T08:29:00.000Z</time>
      </trkpt>
      <trkpt lat="43.77078" lon="7.07184">
        <ele>919.79998779297</ele>
        <time>2011-06-20T08:29:02.000Z</time>
      </trkpt>
      <trkpt lat="43.77105" lon="7.07201">
        <ele>919.20001220703</ele>
        <time>2011-06-20T08:29:06.000Z</time>
      </trkpt>
      <trkpt lat="43.77147" lon="7.07238">
        <ele>914.59997558594</ele>
        <time>2011-06-20T08:29:13.000Z</time>
      </trkpt>
      <trkpt lat="43.77178" lon="7.07281">
        <ele>914</ele>
        <time>2011-06-20T08:29:19.000Z</time>
      </trkpt>
      <trkpt lat="43.77183" lon="7.07288">
        <ele>914.20001220703</ele>
        <time>2011-06-20T08:29:20.000Z</time>
      </trkpt>
      <trkpt lat="43.77193" lon="7.07305">
        <ele>914.20001220703</ele>
        <time>2011-06-20T08:29:22.000Z</time>
      </trkpt>
      <trkpt lat="43.77225" lon="7.0734">
        <ele>908.40002441406</ele>
        <time>2011-06-20T08:29:27.000Z</time>
      </trkpt>
      <trkpt lat="43.77232" lon="7.07347">
        <ele>908</ele>
        <time>2011-06-20T08:29:28.000Z</time>
      </trkpt>
      <trkpt lat="43.77262" lon="7.0737">
        <ele>903.79998779297</ele>
        <time>2011-06-20T08:29:32.000Z</time>
      </trkpt>
      <trkpt lat="43.77291" lon="7.07387">
        <ele>898</ele>
        <time>2011-06-20T08:29:36.000Z</time>
      </trkpt>
      <trkpt lat="43.77318" lon="7.07419">
        <ele>889.40002441406</ele>
        <time>2011-06-20T08:29:41.000Z</time>
      </trkpt>
      <trkpt lat="43.77338" lon="7.07456">
        <ele>893.59997558594</ele>
        <time>2011-06-20T08:29:45.000Z</time>
      </trkpt>
      <trkpt lat="43.77357" lon="7.07478">
        <ele>892.20001220703</ele>
        <time>2011-06-20T08:29:48.000Z</time>
      </trkpt>
      <trkpt lat="43.77386" lon="7.07499">
        <ele>882.40002441406</ele>
        <time>2011-06-20T08:29:53.000Z</time>
      </trkpt>
      <trkpt lat="43.77396" lon="7.07507">
        <ele>880.79998779297</ele>
        <time>2011-06-20T08:29:55.000Z</time>
      </trkpt>
      <trkpt lat="43.77429" lon="7.07525">
        <ele>873</ele>
        <time>2011-06-20T08:30:01.000Z</time>
      </trkpt>
      <trkpt lat="43.77444" lon="7.07534">
        <ele>870.20001220703</ele>
        <time>2011-06-20T08:30:04.000Z</time>
      </trkpt>
      <trkpt lat="43.77462" lon="7.07551">
        <ele>867.40002441406</ele>
        <time>2011-06-20T08:30:09.000Z</time>
      </trkpt>
      <trkpt lat="43.77473" lon="7.07563">
        <ele>866</ele>
        <time>2011-06-20T08:30:13.000Z</time>
      </trkpt>
      <trkpt lat="43.77473" lon="7.07556">
        <ele>863.59997558594</ele>
        <time>2011-06-20T08:30:16.000Z</time>
      </trkpt>
      <trkpt lat="43.77458" lon="7.07534">
        <ele>863.79998779297</ele>
        <time>2011-06-20T08:30:21.000Z</time>
      </trkpt>
      <trkpt lat="43.77443" lon="7.07518">
        <ele>864.20001220703</ele>
        <time>2011-06-20T08:30:26.000Z</time>
      </trkpt>
      <trkpt lat="43.77438" lon="7.07509">
        <ele>862.79998779297</ele>
        <time>2011-06-20T08:30:29.000Z</time>
      </trkpt>
      <trkpt lat="43.77447" lon="7.07511">
        <ele>860</ele>
        <time>2011-06-20T08:30:33.000Z</time>
      </trkpt>
      <trkpt lat="43.7745" lon="7.07513">
        <ele>859.40002441406</ele>
        <time>2011-06-20T08:30:34.000Z</time>
      </trkpt>
      <trkpt lat="43.77474" lon="7.07533">
        <ele>855.79998779297</ele>
        <time>2011-06-20T08:30:40.000Z</time>
      </trkpt>
      <trkpt lat="43.77481" lon="7.07547">
        <ele>856.79998779297</ele>
        <time>2011-06-20T08:30:44.000Z</time>
      </trkpt>
      <trkpt lat="43.77488" lon="7.07566">
        <ele>858.40002441406</ele>
        <time>2011-06-20T08:30:49.000Z</time>
      </trkpt>
      <trkpt lat="43.77499" lon="7.07585">
        <ele>857.20001220703</ele>
        <time>2011-06-20T08:30:53.000Z</time>
      </trkpt>
      <trkpt lat="43.7751" lon="7.07604">
        <ele>856.59997558594</ele>
        <time>2011-06-20T08:30:57.000Z</time>
      </trkpt>
      <trkpt lat="43.77523" lon="7.07601">
        <ele>848.79998779297</ele>
        <time>2011-06-20T08:31:01.000Z</time>
      </trkpt>
      <trkpt lat="43.77527" lon="7.07595">
        <ele>845.20001220703</ele>
        <time>2011-06-20T08:31:04.000Z</time>
      </trkpt>
      <trkpt lat="43.77529" lon="7.07601">
        <ele>845.79998779297</ele>
        <time>2011-06-20T08:31:07.000Z</time>
      </trkpt>
      <trkpt lat="43.77526" lon="7.07612">
        <ele>849.79998779297</ele>
        <time>2011-06-20T08:31:10.000Z</time>
      </trkpt>
      <trkpt lat="43.77526" lon="7.07615">
        <ele>850.40002441406</ele>
        <time>2011-06-20T08:31:12.000Z</time>
      </trkpt>
      <trkpt lat="43.77532" lon="7.07613">
        <ele>846.79998779297</ele>
        <time>2011-06-20T08:31:18.000Z</time>
      </trkpt>
      <trkpt lat="43.77534" lon="7.07613">
        <ele>845.40002441406</ele>
        <time>2011-06-20T08:31:22.000Z</time>
      </trkpt>
      <trkpt lat="43.77536" lon="7.0762">
        <ele>846</ele>
        <time>2011-06-20T08:31:31.000Z</time>
      </trkpt>
      <trkpt lat="43.77534" lon="7.07626">
        <ele>848.40002441406</ele>
        <time>2011-06-20T08:31:36.000Z</time>
      </trkpt>
      <trkpt lat="43.77535" lon="7.07628">
        <ele>848.40002441406</ele>
        <time>2011-06-20T08:31:40.000Z</time>
      </trkpt>
      <trkpt lat="43.77536" lon="7.07624">
        <ele>846.79998779297</ele>
        <time>2011-06-20T08:31:43.000Z</time>
      </trkpt>
      <trkpt lat="43.77543" lon="7.07615">
        <ele>841.20001220703</ele>
        <time>2011-06-20T08:31:47.000Z</time>
      </trkpt>
      <trkpt lat="43.7754" lon="7.07628">
        <ele>845.20001220703</ele>
        <time>2011-06-20T08:31:51.000Z</time>
      </trkpt>
      <trkpt lat="43.77538" lon="7.0765">
        <ele>851.40002441406</ele>
        <time>2011-06-20T08:31:56.000Z</time>
      </trkpt>
      <trkpt lat="43.7754" lon="7.0765">
        <ele>850</ele>
        <time>2011-06-20T08:32:00.000Z</time>
      </trkpt>
      <trkpt lat="43.77552" lon="7.07644">
        <ele>841.40002441406</ele>
        <time>2011-06-20T08:32:05.000Z</time>
      </trkpt>
      <trkpt lat="43.77567" lon="7.07648">
        <ele>833.20001220703</ele>
        <time>2011-06-20T08:32:10.000Z</time>
      </trkpt>
      <trkpt lat="43.77571" lon="7.07645">
        <ele>830.40002441406</ele>
        <time>2011-06-20T08:32:12.000Z</time>
      </trkpt>
      <trkpt lat="43.77586" lon="7.07653">
        <ele>823.20001220703</ele>
        <time>2011-06-20T08:32:17.000Z</time>
      </trkpt>
      <trkpt lat="43.776" lon="7.07663">
        <ele>819.40002441406</ele>
        <time>2011-06-20T08:32:21.000Z</time>
      </trkpt>
      <trkpt lat="43.77615" lon="7.07657">
        <ele>813.20001220703</ele>
        <time>2011-06-20T08:32:26.000Z</time>
      </trkpt>
      <trkpt lat="43.77619" lon="7.07654">
        <ele>811.59997558594</ele>
        <time>2011-06-20T08:32:28.000Z</time>
      </trkpt>
      <trkpt lat="43.77623" lon="7.07648">
        <ele>809</ele>
        <time>2011-06-20T08:32:31.000Z</time>
      </trkpt>
      <trkpt lat="43.77631" lon="7.0765">
        <ele>806.20001220703</ele>
        <time>2011-06-20T08:32:35.000Z</time>
      </trkpt>
      <trkpt lat="43.77635" lon="7.07664">
        <ele>807.40002441406</ele>
        <time>2011-06-20T08:32:39.000Z</time>
      </trkpt>
      <trkpt lat="43.77633" lon="7.07676">
        <ele>808.40002441406</ele>
        <time>2011-06-20T08:32:42.000Z</time>
      </trkpt>
      <trkpt lat="43.7763" lon="7.07694">
        <ele>808.59997558594</ele>
        <time>2011-06-20T08:32:46.000Z</time>
      </trkpt>
      <trkpt lat="43.77641" lon="7.07708">
        <ele>804</ele>
        <time>2011-06-20T08:32:51.000Z</time>
      </trkpt>
      <trkpt lat="43.77645" lon="7.07719">
        <ele>802</ele>
        <time>2011-06-20T08:32:55.000Z</time>
      </trkpt>
      <trkpt lat="43.77643" lon="7.07721">
        <ele>802.59997558594</ele>
        <time>2011-06-20T08:32:56.000Z</time>
      </trkpt>
      <trkpt lat="43.77641" lon="7.07728">
        <ele>803.40002441406</ele>
        <time>2011-06-20T08:33:01.000Z</time>
      </trkpt>
      <trkpt lat="43.77641" lon="7.07733">
        <ele>803</ele>
        <time>2011-06-20T08:33:07.000Z</time>
      </trkpt>
      <trkpt lat="43.77648" lon="7.07733">
        <ele>800.20001220703</ele>
        <time>2011-06-20T08:33:11.000Z</time>
      </trkpt>
      <trkpt lat="43.77649" lon="7.07735">
        <ele>799.59997558594</ele>
        <time>2011-06-20T08:33:12.000Z</time>
      </trkpt>
      <trkpt lat="43.77664" lon="7.0773">
        <ele>794.20001220703</ele>
        <time>2011-06-20T08:33:18.000Z</time>
      </trkpt>
      <trkpt lat="43.7767" lon="7.0773">
        <ele>792</ele>
        <time>2011-06-20T08:33:21.000Z</time>
      </trkpt>
      <trkpt lat="43.77678" lon="7.07731">
        <ele>788.79998779297</ele>
        <time>2011-06-20T08:33:24.000Z</time>
      </trkpt>
      <trkpt lat="43.77684" lon="7.07731">
        <ele>786.40002441406</ele>
        <time>2011-06-20T08:33:26.000Z</time>
      </trkpt>
      <trkpt lat="43.77694" lon="7.07714">
        <ele>783.59997558594</ele>
        <time>2011-06-20T08:33:31.000Z</time>
      </trkpt>
      <trkpt lat="43.77697" lon="7.07707">
        <ele>782.59997558594</ele>
        <time>2011-06-20T08:33:33.000Z</time>
      </trkpt>
      <trkpt lat="43.77713" lon="7.07714">
        <ele>776.40002441406</ele>
        <time>2011-06-20T08:33:38.000Z</time>
      </trkpt>
      <trkpt lat="43.77727" lon="7.07717">
        <ele>771</ele>
        <time>2011-06-20T08:33:42.000Z</time>
      </trkpt>
      <trkpt lat="43.77736" lon="7.0773">
        <ele>767.40002441406</ele>
        <time>2011-06-20T08:33:46.000Z</time>
      </trkpt>
      <trkpt lat="43.77741" lon="7.07733">
        <ele>765.59997558594</ele>
        <time>2011-06-20T08:33:50.000Z</time>
      </trkpt>
      <trkpt lat="43.77747" lon="7.07719">
        <ele>763.40002441406</ele>
        <time>2011-06-20T08:33:54.000Z</time>
      </trkpt>
      <trkpt lat="43.77757" lon="7.07719">
        <ele>758.79998779297</ele>
        <time>2011-06-20T08:33:58.000Z</time>
      </trkpt>
      <trkpt lat="43.77769" lon="7.07725">
        <ele>752.59997558594</ele>
        <time>2011-06-20T08:34:02.000Z</time>
      </trkpt>
      <trkpt lat="43.77773" lon="7.07734">
        <ele>750.40002441406</ele>
        <time>2011-06-20T08:34:04.000Z</time>
      </trkpt>
      <trkpt lat="43.77781" lon="7.07757">
        <ele>745.40002441406</ele>
        <time>2011-06-20T08:34:10.000Z</time>
      </trkpt>
      <trkpt lat="43.77783" lon="7.0776">
        <ele>744.20001220703</ele>
        <time>2011-06-20T08:34:11.000Z</time>
      </trkpt>
      <trkpt lat="43.77785" lon="7.07765">
        <ele>742.40002441406</ele>
        <time>2011-06-20T08:34:16.000Z</time>
      </trkpt>
      <trkpt lat="43.77785" lon="7.07767">
        <ele>742.20001220703</ele>
        <time>2011-06-20T08:34:28.000Z</time>
      </trkpt>
      <trkpt lat="43.77784" lon="7.07768">
        <ele>742.79998779297</ele>
        <time>2011-06-20T08:34:37.000Z</time>
      </trkpt>
      <trkpt lat="43.77785" lon="7.07773">
        <ele>742.20001220703</ele>
        <time>2011-06-20T08:34:41.000Z</time>
      </trkpt>
      <trkpt lat="43.77787" lon="7.07777">
        <ele>740.79998779297</ele>
        <time>2011-06-20T08:34:43.000Z</time>
      </trkpt>
      <trkpt lat="43.77789" lon="7.07796">
        <ele>738.20001220703</ele>
        <time>2011-06-20T08:34:48.000Z</time>
      </trkpt>
      <trkpt lat="43.77796" lon="7.07811">
        <ele>733.40002441406</ele>
        <time>2011-06-20T08:34:51.000Z</time>
      </trkpt>
      <trkpt lat="43.77802" lon="7.07824">
        <ele>730.20001220703</ele>
        <time>2011-06-20T08:34:54.000Z</time>
      </trkpt>
      <trkpt lat="43.77799" lon="7.0785">
        <ele>730.59997558594</ele>
        <time>2011-06-20T08:34:59.000Z</time>
      </trkpt>
      <trkpt lat="43.77798" lon="7.07861">
        <ele>730.59997558594</ele>
        <time>2011-06-20T08:35:01.000Z</time>
      </trkpt>
      <trkpt lat="43.77803" lon="7.07883">
        <ele>728</ele>
        <time>2011-06-20T08:35:05.000Z</time>
      </trkpt>
      <trkpt lat="43.77816" lon="7.07911">
        <ele>720.79998779297</ele>
        <time>2011-06-20T08:35:10.000Z</time>
      </trkpt>
      <trkpt lat="43.77829" lon="7.07932">
        <ele>715</ele>
        <time>2011-06-20T08:35:16.000Z</time>
      </trkpt>
      <trkpt lat="43.7783" lon="7.07951">
        <ele>715.79998779297</ele>
        <time>2011-06-20T08:35:20.000Z</time>
      </trkpt>
      <trkpt lat="43.77833" lon="7.07967">
        <ele>714.79998779297</ele>
        <time>2011-06-20T08:35:24.000Z</time>
      </trkpt>
      <trkpt lat="43.7784" lon="7.07972">
        <ele>712.59997558594</ele>
        <time>2011-06-20T08:35:27.000Z</time>
      </trkpt>
      <trkpt lat="43.77845" lon="7.07968">
        <ele>710.59997558594</ele>
        <time>2011-06-20T08:35:30.000Z</time>
      </trkpt>
      <trkpt lat="43.77856" lon="7.07977">
        <ele>706.59997558594</ele>
        <time>2011-06-20T08:35:35.000Z</time>
      </trkpt>
      <trkpt lat="43.77858" lon="7.07992">
        <ele>706.20001220703</ele>
        <time>2011-06-20T08:35:39.000Z</time>
      </trkpt>
      <trkpt lat="43.77863" lon="7.08015">
        <ele>704</ele>
        <time>2011-06-20T08:35:44.000Z</time>
      </trkpt>
      <trkpt lat="43.77864" lon="7.08037">
        <ele>702.59997558594</ele>
        <time>2011-06-20T08:35:49.000Z</time>
      </trkpt>
      <trkpt lat="43.77864" lon="7.08048">
        <ele>702.40002441406</ele>
        <time>2011-06-20T08:35:51.000Z</time>
      </trkpt>
      <trkpt lat="43.77873" lon="7.08063">
        <ele>697.79998779297</ele>
        <time>2011-06-20T08:35:57.000Z</time>
      </trkpt>
      <trkpt lat="43.77874" lon="7.08071">
        <ele>697.20001220703</ele>
        <time>2011-06-20T08:35:59.000Z</time>
      </trkpt>
      <trkpt lat="43.77882" lon="7.08086">
        <ele>693.40002441406</ele>
        <time>2011-06-20T08:36:05.000Z</time>
      </trkpt>
      <trkpt lat="43.77888" lon="7.08096">
        <ele>691</ele>
        <time>2011-06-20T08:36:09.000Z</time>
      </trkpt>
      <trkpt lat="43.77893" lon="7.08109">
        <ele>688.59997558594</ele>
        <time>2011-06-20T08:36:13.000Z</time>
      </trkpt>
      <trkpt lat="43.77895" lon="7.08121">
        <ele>687.59997558594</ele>
        <time>2011-06-20T08:36:17.000Z</time>
      </trkpt>
      <trkpt lat="43.77897" lon="7.08132">
        <ele>686.40002441406</ele>
        <time>2011-06-20T08:36:25.000Z</time>
      </trkpt>
      <trkpt lat="43.77899" lon="7.08132">
        <ele>685.40002441406</ele>
        <time>2011-06-20T08:36:30.000Z</time>
      </trkpt>
      <trkpt lat="43.77903" lon="7.08132">
        <ele>683.40002441406</ele>
        <time>2011-06-20T08:36:37.000Z</time>
      </trkpt>
      <trkpt lat="43.7791" lon="7.08148">
        <ele>679.79998779297</ele>
        <time>2011-06-20T08:36:42.000Z</time>
      </trkpt>
      <trkpt lat="43.77915" lon="7.08165">
        <ele>676.59997558594</ele>
        <time>2011-06-20T08:36:47.000Z</time>
      </trkpt>
      <trkpt lat="43.77919" lon="7.08186">
        <ele>676.79998779297</ele>
        <time>2011-06-20T08:36:52.000Z</time>
      </trkpt>
      <trkpt lat="43.77922" lon="7.08194">
        <ele>677.59997558594</ele>
        <time>2011-06-20T08:36:54.000Z</time>
      </trkpt>
      <trkpt lat="43.77923" lon="7.08208">
        <ele>678</ele>
        <time>2011-06-20T08:36:58.000Z</time>
      </trkpt>
      <trkpt lat="43.77922" lon="7.08213">
        <ele>678</ele>
        <time>2011-06-20T08:37:02.000Z</time>
      </trkpt>
      <trkpt lat="43.77925" lon="7.08219">
        <ele>678.59997558594</ele>
        <time>2011-06-20T08:37:09.000Z</time>
      </trkpt>
      <trkpt lat="43.77928" lon="7.08223">
        <ele>679</ele>
        <time>2011-06-20T08:37:14.000Z</time>
      </trkpt>
      <trkpt lat="43.77931" lon="7.08223">
        <ele>679.59997558594</ele>
        <time>2011-06-20T08:37:27.000Z</time>
      </trkpt>
      <trkpt lat="43.77928" lon="7.08222">
        <ele>679</ele>
        <time>2011-06-20T08:37:33.000Z</time>
      </trkpt>
      <trkpt lat="43.77926" lon="7.08213">
        <ele>678.59997558594</ele>
        <time>2011-06-20T08:37:41.000Z</time>
      </trkpt>
      <trkpt lat="43.77927" lon="7.08206">
        <ele>678.79998779297</ele>
        <time>2011-06-20T08:37:47.000Z</time>
      </trkpt>
      <trkpt lat="43.7793" lon="7.08202">
        <ele>679.20001220703</ele>
        <time>2011-06-20T08:37:53.000Z</time>
      </trkpt>
      <trkpt lat="43.77931" lon="7.08206">
        <ele>679.59997558594</ele>
        <time>2011-06-20T08:37:59.000Z</time>
      </trkpt>
      <trkpt lat="43.77931" lon="7.08208">
        <ele>679.59997558594</ele>
        <time>2011-06-20T08:38:10.000Z</time>
      </trkpt>
      <trkpt lat="43.77933" lon="7.08212">
        <ele>679.79998779297</ele>
        <time>2011-06-20T08:38:35.000Z</time>
      </trkpt>
      <trkpt lat="43.77936" lon="7.08211">
        <ele>680.40002441406</ele>
        <time>2011-06-20T08:38:45.000Z</time>
      </trkpt>
      <trkpt lat="43.77937" lon="7.0821">
        <ele>680.59997558594</ele>
        <time>2011-06-20T08:38:46.000Z</time>
      </trkpt>
      <trkpt lat="43.77941" lon="7.08212">
        <ele>681.40002441406</ele>
        <time>2011-06-20T08:38:53.000Z</time>
      </trkpt>
      <trkpt lat="43.77941" lon="7.08215">
        <ele>681.20001220703</ele>
        <time>2011-06-20T08:38:59.000Z</time>
      </trkpt>
      <trkpt lat="43.77938" lon="7.08218">
        <ele>680.59997558594</ele>
        <time>2011-06-20T08:39:04.000Z</time>
      </trkpt>
      <trkpt lat="43.77935" lon="7.08221">
        <ele>680.20001220703</ele>
        <time>2011-06-20T08:39:08.000Z</time>
      </trkpt>
      <trkpt lat="43.7794" lon="7.08231">
        <ele>680.79998779297</ele>
        <time>2011-06-20T08:39:13.000Z</time>
      </trkpt>
      <trkpt lat="43.77942" lon="7.08236">
        <ele>681</ele>
        <time>2011-06-20T08:39:15.000Z</time>
      </trkpt>
      <trkpt lat="43.77946" lon="7.08245">
        <ele>681.20001220703</ele>
        <time>2011-06-20T08:39:18.000Z</time>
      </trkpt>
      <trkpt lat="43.77963" lon="7.08256">
        <ele>682.59997558594</ele>
        <time>2011-06-20T08:39:25.000Z</time>
      </trkpt>
      <trkpt lat="43.77966" lon="7.08269">
        <ele>682.59997558594</ele>
        <time>2011-06-20T08:39:29.000Z</time>
      </trkpt>
      <trkpt lat="43.77966" lon="7.08273">
        <ele>682.40002441406</ele>
        <time>2011-06-20T08:39:30.000Z</time>
      </trkpt>
      <trkpt lat="43.77973" lon="7.08295">
        <ele>681.59997558594</ele>
        <time>2011-06-20T08:39:36.000Z</time>
      </trkpt>
      <trkpt lat="43.77974" lon="7.08297">
        <ele>681.40002441406</ele>
        <time>2011-06-20T08:39:37.000Z</time>
      </trkpt>
      <trkpt lat="43.77975" lon="7.08307">
        <ele>680.79998779297</ele>
        <time>2011-06-20T08:39:42.000Z</time>
      </trkpt>
      <trkpt lat="43.77973" lon="7.08309">
        <ele>680.79998779297</ele>
        <time>2011-06-20T08:39:45.000Z</time>
      </trkpt>
      <trkpt lat="43.77973" lon="7.08313">
        <ele>680.59997558594</ele>
        <time>2011-06-20T08:39:53.000Z</time>
      </trkpt>
      <trkpt lat="43.77974" lon="7.08318">
        <ele>680.20001220703</ele>
        <time>2011-06-20T08:39:59.000Z</time>
      </trkpt>
      <trkpt lat="43.77971" lon="7.08316">
        <ele>680.59997558594</ele>
        <time>2011-06-20T08:40:05.000Z</time>
      </trkpt>
      <trkpt lat="43.77972" lon="7.08319">
        <ele>680.40002441406</ele>
        <time>2011-06-20T08:40:15.000Z</time>
      </trkpt>
      <trkpt lat="43.77975" lon="7.08324">
        <ele>679.79998779297</ele>
        <time>2011-06-20T08:40:23.000Z</time>
      </trkpt>
      <trkpt lat="43.77977" lon="7.08329">
        <ele>679.40002441406</ele>
        <time>2011-06-20T08:40:30.000Z</time>
      </trkpt>
      <trkpt lat="43.77977" lon="7.08332">
        <ele>679.20001220703</ele>
        <time>2011-06-20T08:40:36.000Z</time>
      </trkpt>
      <trkpt lat="43.77978" lon="7.08339">
        <ele>678.79998779297</ele>
        <time>2011-06-20T08:40:41.000Z</time>
      </trkpt>
      <trkpt lat="43.7798" lon="7.08348">
        <ele>678.20001220703</ele>
        <time>2011-06-20T08:40:48.000Z</time>
      </trkpt>
      <trkpt lat="43.77982" lon="7.08354">
        <ele>677.59997558594</ele>
        <time>2011-06-20T08:40:54.000Z</time>
      </trkpt>
      <trkpt lat="43.77985" lon="7.0836">
        <ele>676.79998779297</ele>
        <time>2011-06-20T08:40:59.000Z</time>
      </trkpt>
      <trkpt lat="43.7799" lon="7.0837">
        <ele>675.79998779297</ele>
        <time>2011-06-20T08:41:04.000Z</time>
      </trkpt>
      <trkpt lat="43.7799" lon="7.08371">
        <ele>675.59997558594</ele>
        <time>2011-06-20T08:41:05.000Z</time>
      </trkpt>
      <trkpt lat="43.77987" lon="7.08381">
        <ele>675.40002441406</ele>
        <time>2011-06-20T08:41:10.000Z</time>
      </trkpt>
      <trkpt lat="43.77992" lon="7.08389">
        <ele>674.20001220703</ele>
        <time>2011-06-20T08:41:13.000Z</time>
      </trkpt>
      <trkpt lat="43.78001" lon="7.08406">
        <ele>672.20001220703</ele>
        <time>2011-06-20T08:41:18.000Z</time>
      </trkpt>
      <trkpt lat="43.77998" lon="7.08426">
        <ele>670.59997558594</ele>
        <time>2011-06-20T08:41:22.000Z</time>
      </trkpt>
      <trkpt lat="43.77998" lon="7.08436">
        <ele>669.79998779297</ele>
        <time>2011-06-20T08:41:24.000Z</time>
      </trkpt>
      <trkpt lat="43.77993" lon="7.08451">
        <ele>669.79998779297</ele>
        <time>2011-06-20T08:41:28.000Z</time>
      </trkpt>
      <trkpt lat="43.77996" lon="7.08475">
        <ele>667.20001220703</ele>
        <time>2011-06-20T08:41:34.000Z</time>
      </trkpt>
      <trkpt lat="43.77991" lon="7.08491">
        <ele>667.59997558594</ele>
        <time>2011-06-20T08:41:40.000Z</time>
      </trkpt>
      <trkpt lat="43.77984" lon="7.08507">
        <ele>669</ele>
        <time>2011-06-20T08:41:47.000Z</time>
      </trkpt>
      <trkpt lat="43.7798" lon="7.08524">
        <ele>670.20001220703</ele>
        <time>2011-06-20T08:41:53.000Z</time>
      </trkpt>
      <trkpt lat="43.77978" lon="7.08541">
        <ele>671</ele>
        <time>2011-06-20T08:41:58.000Z</time>
      </trkpt>
      <trkpt lat="43.77983" lon="7.0856">
        <ele>669</ele>
        <time>2011-06-20T08:42:03.000Z</time>
      </trkpt>
      <trkpt lat="43.77992" lon="7.08573">
        <ele>664.20001220703</ele>
        <time>2011-06-20T08:42:07.000Z</time>
      </trkpt>
      <trkpt lat="43.78004" lon="7.08594">
        <ele>660.79998779297</ele>
        <time>2011-06-20T08:42:11.000Z</time>
      </trkpt>
      <trkpt lat="43.78023" lon="7.08613">
        <ele>662.20001220703</ele>
        <time>2011-06-20T08:42:15.000Z</time>
      </trkpt>
      <trkpt lat="43.78045" lon="7.08616">
        <ele>663</ele>
        <time>2011-06-20T08:42:19.000Z</time>
      </trkpt>
      <trkpt lat="43.78062" lon="7.08623">
        <ele>662.40002441406</ele>
        <time>2011-06-20T08:42:23.000Z</time>
      </trkpt>
      <trkpt lat="43.78073" lon="7.08642">
        <ele>659</ele>
        <time>2011-06-20T08:42:27.000Z</time>
      </trkpt>
      <trkpt lat="43.78075" lon="7.08655">
        <ele>656.20001220703</ele>
        <time>2011-06-20T08:42:29.000Z</time>
      </trkpt>
      <trkpt lat="43.7808" lon="7.08687">
        <ele>652</ele>
        <time>2011-06-20T08:42:35.000Z</time>
      </trkpt>
      <trkpt lat="43.78085" lon="7.08701">
        <ele>650.59997558594</ele>
        <time>2011-06-20T08:42:38.000Z</time>
      </trkpt>
      <trkpt lat="43.78086" lon="7.08721">
        <ele>649.20001220703</ele>
        <time>2011-06-20T08:42:42.000Z</time>
      </trkpt>
      <trkpt lat="43.78081" lon="7.08734">
        <ele>648.79998779297</ele>
        <time>2011-06-20T08:42:45.000Z</time>
      </trkpt>
      <trkpt lat="43.78084" lon="7.08745">
        <ele>647.20001220703</ele>
        <time>2011-06-20T08:42:48.000Z</time>
      </trkpt>
      <trkpt lat="43.7809" lon="7.08768">
        <ele>647.20001220703</ele>
        <time>2011-06-20T08:42:53.000Z</time>
      </trkpt>
      <trkpt lat="43.78097" lon="7.08775">
        <ele>647.40002441406</ele>
        <time>2011-06-20T08:42:55.000Z</time>
      </trkpt>
      <trkpt lat="43.78111" lon="7.08787">
        <ele>648.20001220703</ele>
        <time>2011-06-20T08:42:58.000Z</time>
      </trkpt>
      <trkpt lat="43.7813" lon="7.08802">
        <ele>649.20001220703</ele>
        <time>2011-06-20T08:43:03.000Z</time>
      </trkpt>
      <trkpt lat="43.78139" lon="7.08801">
        <ele>649.79998779297</ele>
        <time>2011-06-20T08:43:05.000Z</time>
      </trkpt>
      <trkpt lat="43.78142" lon="7.0881">
        <ele>650</ele>
        <time>2011-06-20T08:43:09.000Z</time>
      </trkpt>
      <trkpt lat="43.7814" lon="7.08822">
        <ele>650.20001220703</ele>
        <time>2011-06-20T08:43:13.000Z</time>
      </trkpt>
      <trkpt lat="43.78148" lon="7.08825">
        <ele>650.59997558594</ele>
        <time>2011-06-20T08:43:18.000Z</time>
      </trkpt>
      <trkpt lat="43.78151" lon="7.0882">
        <ele>650.59997558594</ele>
        <time>2011-06-20T08:43:21.000Z</time>
      </trkpt>
      <trkpt lat="43.78156" lon="7.08796">
        <ele>650.40002441406</ele>
        <time>2011-06-20T08:43:30.000Z</time>
      </trkpt>
      <trkpt lat="43.78157" lon="7.08794">
        <ele>650.40002441406</ele>
        <time>2011-06-20T08:43:31.000Z</time>
      </trkpt>
      <trkpt lat="43.78158" lon="7.08797">
        <ele>650.59997558594</ele>
        <time>2011-06-20T08:43:36.000Z</time>
      </trkpt>
      <trkpt lat="43.78157" lon="7.08806">
        <ele>650.79998779297</ele>
        <time>2011-06-20T08:43:40.000Z</time>
      </trkpt>
      <trkpt lat="43.78159" lon="7.08809">
        <ele>650.79998779297</ele>
        <time>2011-06-20T08:43:43.000Z</time>
      </trkpt>
      <trkpt lat="43.78161" lon="7.08815">
        <ele>651.20001220703</ele>
        <time>2011-06-20T08:43:51.000Z</time>
      </trkpt>
      <trkpt lat="43.78158" lon="7.08822">
        <ele>651.20001220703</ele>
        <time>2011-06-20T08:43:58.000Z</time>
      </trkpt>
      <trkpt lat="43.78156" lon="7.08831">
        <ele>651.20001220703</ele>
        <time>2011-06-20T08:44:07.000Z</time>
      </trkpt>
      <trkpt lat="43.78156" lon="7.0884">
        <ele>651.59997558594</ele>
        <time>2011-06-20T08:44:14.000Z</time>
      </trkpt>
      <trkpt lat="43.78155" lon="7.08848">
        <ele>652.20001220703</ele>
        <time>2011-06-20T08:44:20.000Z</time>
      </trkpt>
      <trkpt lat="43.78154" lon="7.08855">
        <ele>652.59997558594</ele>
        <time>2011-06-20T08:44:28.000Z</time>
      </trkpt>
      <trkpt lat="43.78155" lon="7.08859">
        <ele>652.79998779297</ele>
        <time>2011-06-20T08:44:35.000Z</time>
      </trkpt>
      <trkpt lat="43.78156" lon="7.08862">
        <ele>653.20001220703</ele>
        <time>2011-06-20T08:44:46.000Z</time>
      </trkpt>
      <trkpt lat="43.78157" lon="7.08865">
        <ele>653.40002441406</ele>
        <time>2011-06-20T08:44:48.000Z</time>
      </trkpt>
      <trkpt lat="43.78159" lon="7.0888">
        <ele>654.59997558594</ele>
        <time>2011-06-20T08:44:55.000Z</time>
      </trkpt>
      <trkpt lat="43.78164" lon="7.08893">
        <ele>656</ele>
        <time>2011-06-20T08:45:02.000Z</time>
      </trkpt>
      <trkpt lat="43.7817" lon="7.08901">
        <ele>657.79998779297</ele>
        <time>2011-06-20T08:45:07.000Z</time>
      </trkpt>
      <trkpt lat="43.78176" lon="7.08913">
        <ele>660.79998779297</ele>
        <time>2011-06-20T08:45:13.000Z</time>
      </trkpt>
      <trkpt lat="43.78184" lon="7.08929">
        <ele>663.40002441406</ele>
        <time>2011-06-20T08:45:20.000Z</time>
      </trkpt>
      <trkpt lat="43.7819" lon="7.08946">
        <ele>665.20001220703</ele>
        <time>2011-06-20T08:45:27.000Z</time>
      </trkpt>
      <trkpt lat="43.78194" lon="7.08963">
        <ele>666</ele>
        <time>2011-06-20T08:45:34.000Z</time>
      </trkpt>
      <trkpt lat="43.78203" lon="7.08983">
        <ele>668.79998779297</ele>
        <time>2011-06-20T08:45:43.000Z</time>
      </trkpt>
      <trkpt lat="43.7821" lon="7.08995">
        <ele>671</ele>
        <time>2011-06-20T08:45:49.000Z</time>
      </trkpt>
      <trkpt lat="43.78216" lon="7.09009">
        <ele>673.20001220703</ele>
        <time>2011-06-20T08:45:55.000Z</time>
      </trkpt>
      <trkpt lat="43.78222" lon="7.09025">
        <ele>676</ele>
        <time>2011-06-20T08:46:02.000Z</time>
      </trkpt>
      <trkpt lat="43.78227" lon="7.09033">
        <ele>677.79998779297</ele>
        <time>2011-06-20T08:46:06.000Z</time>
      </trkpt>
      <trkpt lat="43.78226" lon="7.09044">
        <ele>678.20001220703</ele>
        <time>2011-06-20T08:46:10.000Z</time>
      </trkpt>
      <trkpt lat="43.78214" lon="7.09065">
        <ele>675.20001220703</ele>
        <time>2011-06-20T08:46:19.000Z</time>
      </trkpt>
      <trkpt lat="43.78205" lon="7.09086">
        <ele>673.20001220703</ele>
        <time>2011-06-20T08:46:27.000Z</time>
      </trkpt>
      <trkpt lat="43.782" lon="7.09103">
        <ele>673.59997558594</ele>
        <time>2011-06-20T08:46:34.000Z</time>
      </trkpt>
      <trkpt lat="43.782" lon="7.09127">
        <ele>676.59997558594</ele>
        <time>2011-06-20T08:46:41.000Z</time>
      </trkpt>
      <trkpt lat="43.78202" lon="7.09154">
        <ele>680.59997558594</ele>
        <time>2011-06-20T08:46:49.000Z</time>
      </trkpt>
      <trkpt lat="43.782" lon="7.09172">
        <ele>681.79998779297</ele>
        <time>2011-06-20T08:46:55.000Z</time>
      </trkpt>
      <trkpt lat="43.78196" lon="7.09199">
        <ele>683.20001220703</ele>
        <time>2011-06-20T08:47:04.000Z</time>
      </trkpt>
      <trkpt lat="43.78198" lon="7.0922">
        <ele>686.40002441406</ele>
        <time>2011-06-20T08:47:10.000Z</time>
      </trkpt>
      <trkpt lat="43.78195" lon="7.09246">
        <ele>687.79998779297</ele>
        <time>2011-06-20T08:47:17.000Z</time>
      </trkpt>
      <trkpt lat="43.78192" lon="7.09271">
        <ele>688.20001220703</ele>
        <time>2011-06-20T08:47:24.000Z</time>
      </trkpt>
      <trkpt lat="43.78193" lon="7.09297">
        <ele>690.79998779297</ele>
        <time>2011-06-20T08:47:31.000Z</time>
      </trkpt>
      <trkpt lat="43.78192" lon="7.09327">
        <ele>692.59997558594</ele>
        <time>2011-06-20T08:47:39.000Z</time>
      </trkpt>
      <trkpt lat="43.7819" lon="7.09346">
        <ele>691.20001220703</ele>
        <time>2011-06-20T08:47:45.000Z</time>
      </trkpt>
      <trkpt lat="43.78193" lon="7.09364">
        <ele>691.40002441406</ele>
        <time>2011-06-20T08:47:51.000Z</time>
      </trkpt>
      <trkpt lat="43.782" lon="7.09383">
        <ele>694.59997558594</ele>
        <time>2011-06-20T08:47:58.000Z</time>
      </trkpt>
      <trkpt lat="43.78211" lon="7.094">
        <ele>699.59997558594</ele>
        <time>2011-06-20T08:48:06.000Z</time>
      </trkpt>
      <trkpt lat="43.78218" lon="7.09416">
        <ele>703.20001220703</ele>
        <time>2011-06-20T08:48:13.000Z</time>
      </trkpt>
      <trkpt lat="43.78218" lon="7.09417">
        <ele>703.59997558594</ele>
        <time>2011-06-20T08:48:19.000Z</time>
      </trkpt>
      <trkpt lat="43.78219" lon="7.0942">
        <ele>703.40002441406</ele>
        <time>2011-06-20T08:48:24.000Z</time>
      </trkpt>
      <trkpt lat="43.78222" lon="7.09436">
        <ele>703.59997558594</ele>
        <time>2011-06-20T08:48:34.000Z</time>
      </trkpt>
      <trkpt lat="43.78223" lon="7.09454">
        <ele>702</ele>
        <time>2011-06-20T08:48:44.000Z</time>
      </trkpt>
      <trkpt lat="43.78224" lon="7.09462">
        <ele>701.79998779297</ele>
        <time>2011-06-20T08:48:49.000Z</time>
      </trkpt>
      <trkpt lat="43.78226" lon="7.09467">
        <ele>702.40002441406</ele>
        <time>2011-06-20T08:48:58.000Z</time>
      </trkpt>
      <trkpt lat="43.78227" lon="7.09471">
        <ele>702.40002441406</ele>
        <time>2011-06-20T08:49:03.000Z</time>
      </trkpt>
      <trkpt lat="43.7823" lon="7.09488">
        <ele>702</ele>
        <time>2011-06-20T08:49:09.000Z</time>
      </trkpt>
      <trkpt lat="43.78236" lon="7.09508">
        <ele>703.40002441406</ele>
        <time>2011-06-20T08:49:16.000Z</time>
      </trkpt>
      <trkpt lat="43.78245" lon="7.09532">
        <ele>706.20001220703</ele>
        <time>2011-06-20T08:49:25.000Z</time>
      </trkpt>
      <trkpt lat="43.78248" lon="7.09542">
        <ele>707</ele>
        <time>2011-06-20T08:49:31.000Z</time>
      </trkpt>
      <trkpt lat="43.78253" lon="7.09555">
        <ele>708.20001220703</ele>
        <time>2011-06-20T08:49:38.000Z</time>
      </trkpt>
      <trkpt lat="43.78263" lon="7.09572">
        <ele>711.59997558594</ele>
        <time>2011-06-20T08:49:47.000Z</time>
      </trkpt>
      <trkpt lat="43.78277" lon="7.09584">
        <ele>716.20001220703</ele>
        <time>2011-06-20T08:49:55.000Z</time>
      </trkpt>
      <trkpt lat="43.78289" lon="7.09593">
        <ele>719.40002441406</ele>
        <time>2011-06-20T08:50:02.000Z</time>
      </trkpt>
      <trkpt lat="43.78303" lon="7.09604">
        <ele>722</ele>
        <time>2011-06-20T08:50:10.000Z</time>
      </trkpt>
      <trkpt lat="43.78313" lon="7.09619">
        <ele>722.20001220703</ele>
        <time>2011-06-20T08:50:18.000Z</time>
      </trkpt>
      <trkpt lat="43.78324" lon="7.09626">
        <ele>725</ele>
        <time>2011-06-20T08:50:25.000Z</time>
      </trkpt>
      <trkpt lat="43.78334" lon="7.09634">
        <ele>727</ele>
        <time>2011-06-20T08:50:32.000Z</time>
      </trkpt>
      <trkpt lat="43.78348" lon="7.09648">
        <ele>732</ele>
        <time>2011-06-20T08:50:42.000Z</time>
      </trkpt>
      <trkpt lat="43.78349" lon="7.0965">
        <ele>732</ele>
        <time>2011-06-20T08:50:47.000Z</time>
      </trkpt>
      <trkpt lat="43.7835" lon="7.09651">
        <ele>732.59997558594</ele>
        <time>2011-06-20T08:51:03.000Z</time>
      </trkpt>
      <trkpt lat="43.78359" lon="7.09661">
        <ele>735.79998779297</ele>
        <time>2011-06-20T08:51:09.000Z</time>
      </trkpt>
      <trkpt lat="43.78373" lon="7.09684">
        <ele>741.59997558594</ele>
        <time>2011-06-20T08:51:18.000Z</time>
      </trkpt>
      <trkpt lat="43.78382" lon="7.09708">
        <ele>744.20001220703</ele>
        <time>2011-06-20T08:51:26.000Z</time>
      </trkpt>
      <trkpt lat="43.78381" lon="7.0973">
        <ele>741.40002441406</ele>
        <time>2011-06-20T08:51:33.000Z</time>
      </trkpt>
      <trkpt lat="43.78381" lon="7.09736">
        <ele>740.59997558594</ele>
        <time>2011-06-20T08:51:36.000Z</time>
      </trkpt>
      <trkpt lat="43.78375" lon="7.09755">
        <ele>733.79998779297</ele>
        <time>2011-06-20T08:51:42.000Z</time>
      </trkpt>
      <trkpt lat="43.78367" lon="7.0979">
        <ele>725.20001220703</ele>
        <time>2011-06-20T08:51:47.000Z</time>
      </trkpt>
      <trkpt lat="43.78369" lon="7.09823">
        <ele>723</ele>
        <time>2011-06-20T08:51:51.000Z</time>
      </trkpt>
      <trkpt lat="43.78371" lon="7.09847">
        <ele>721.20001220703</ele>
        <time>2011-06-20T08:51:54.000Z</time>
      </trkpt>
      <trkpt lat="43.78376" lon="7.09894">
        <ele>718.40002441406</ele>
        <time>2011-06-20T08:52:00.000Z</time>
      </trkpt>
      <trkpt lat="43.78379" lon="7.09926">
        <ele>716.79998779297</ele>
        <time>2011-06-20T08:52:04.000Z</time>
      </trkpt>
      <trkpt lat="43.78375" lon="7.09947">
        <ele>715</ele>
        <time>2011-06-20T08:52:09.000Z</time>
      </trkpt>
      <trkpt lat="43.78372" lon="7.09955">
        <ele>713.40002441406</ele>
        <time>2011-06-20T08:52:11.000Z</time>
      </trkpt>
      <trkpt lat="43.78367" lon="7.09975">
        <ele>710.20001220703</ele>
        <time>2011-06-20T08:52:16.000Z</time>
      </trkpt>
      <trkpt lat="43.78362" lon="7.0999">
        <ele>707.59997558594</ele>
        <time>2011-06-20T08:52:20.000Z</time>
      </trkpt>
      <trkpt lat="43.78357" lon="7.10009">
        <ele>704.59997558594</ele>
        <time>2011-06-20T08:52:26.000Z</time>
      </trkpt>
      <trkpt lat="43.78353" lon="7.10029">
        <ele>702</ele>
        <time>2011-06-20T08:52:32.000Z</time>
      </trkpt>
      <trkpt lat="43.78352" lon="7.10035">
        <ele>701.40002441406</ele>
        <time>2011-06-20T08:52:34.000Z</time>
      </trkpt>
      <trkpt lat="43.78348" lon="7.10051">
        <ele>699</ele>
        <time>2011-06-20T08:52:39.000Z</time>
      </trkpt>
      <trkpt lat="43.78349" lon="7.1007">
        <ele>700</ele>
        <time>2011-06-20T08:52:43.000Z</time>
      </trkpt>
      <trkpt lat="43.78353" lon="7.10087">
        <ele>702.20001220703</ele>
        <time>2011-06-20T08:52:47.000Z</time>
      </trkpt>
      <trkpt lat="43.78354" lon="7.1009">
        <ele>702.59997558594</ele>
        <time>2011-06-20T08:52:48.000Z</time>
      </trkpt>
      <trkpt lat="43.78362" lon="7.10112">
        <ele>704.40002441406</ele>
        <time>2011-06-20T08:52:54.000Z</time>
      </trkpt>
      <trkpt lat="43.78365" lon="7.10131">
        <ele>703.40002441406</ele>
        <time>2011-06-20T08:52:58.000Z</time>
      </trkpt>
      <trkpt lat="43.78368" lon="7.10155">
        <ele>701.20001220703</ele>
        <time>2011-06-20T08:53:03.000Z</time>
      </trkpt>
      <trkpt lat="43.78373" lon="7.10177">
        <ele>701</ele>
        <time>2011-06-20T08:53:08.000Z</time>
      </trkpt>
      <trkpt lat="43.78381" lon="7.10212">
        <ele>700</ele>
        <time>2011-06-20T08:53:15.000Z</time>
      </trkpt>
      <trkpt lat="43.78389" lon="7.10239">
        <ele>701.20001220703</ele>
        <time>2011-06-20T08:53:20.000Z</time>
      </trkpt>
      <trkpt lat="43.78394" lon="7.10247">
        <ele>702.79998779297</ele>
        <time>2011-06-20T08:53:22.000Z</time>
      </trkpt>
      <trkpt lat="43.78402" lon="7.10266">
        <ele>703.20001220703</ele>
        <time>2011-06-20T08:53:28.000Z</time>
      </trkpt>
      <trkpt lat="43.78404" lon="7.1027">
        <ele>704.20001220703</ele>
        <time>2011-06-20T08:53:30.000Z</time>
      </trkpt>
      <trkpt lat="43.78413" lon="7.1029">
        <ele>704.20001220703</ele>
        <time>2011-06-20T08:53:35.000Z</time>
      </trkpt>
      <trkpt lat="43.78419" lon="7.10302">
        <ele>704.59997558594</ele>
        <time>2011-06-20T08:53:38.000Z</time>
      </trkpt>
      <trkpt lat="43.78423" lon="7.10321">
        <ele>701.59997558594</ele>
        <time>2011-06-20T08:53:43.000Z</time>
      </trkpt>
      <trkpt lat="43.78425" lon="7.10334">
        <ele>699.59997558594</ele>
        <time>2011-06-20T08:53:46.000Z</time>
      </trkpt>
      <trkpt lat="43.7843" lon="7.10348">
        <ele>700</ele>
        <time>2011-06-20T08:53:50.000Z</time>
      </trkpt>
      <trkpt lat="43.78443" lon="7.10369">
        <ele>705.20001220703</ele>
        <time>2011-06-20T08:53:56.000Z</time>
      </trkpt>
      <trkpt lat="43.78441" lon="7.10382">
        <ele>702</ele>
        <time>2011-06-20T08:54:00.000Z</time>
      </trkpt>
      <trkpt lat="43.78438" lon="7.10398">
        <ele>697</ele>
        <time>2011-06-20T08:54:05.000Z</time>
      </trkpt>
      <trkpt lat="43.78437" lon="7.10406">
        <ele>695.20001220703</ele>
        <time>2011-06-20T08:54:14.000Z</time>
      </trkpt>
      <trkpt lat="43.78436" lon="7.10409">
        <ele>693.59997558594</ele>
        <time>2011-06-20T08:54:19.000Z</time>
      </trkpt>
      <trkpt lat="43.78427" lon="7.10422">
        <ele>686.40002441406</ele>
        <time>2011-06-20T08:54:24.000Z</time>
      </trkpt>
      <trkpt lat="43.78422" lon="7.10442">
        <ele>684.20001220703</ele>
        <time>2011-06-20T08:54:29.000Z</time>
      </trkpt>
      <trkpt lat="43.78419" lon="7.10453">
        <ele>682.59997558594</ele>
        <time>2011-06-20T08:54:32.000Z</time>
      </trkpt>
      <trkpt lat="43.7842" lon="7.10461">
        <ele>683.59997558594</ele>
        <time>2011-06-20T08:54:39.000Z</time>
      </trkpt>
      <trkpt lat="43.78419" lon="7.10463">
        <ele>683</ele>
        <time>2011-06-20T08:54:41.000Z</time>
      </trkpt>
      <trkpt lat="43.78418" lon="7.10478">
        <ele>683</ele>
        <time>2011-06-20T08:54:47.000Z</time>
      </trkpt>
      <trkpt lat="43.7842" lon="7.10484">
        <ele>684.40002441406</ele>
        <time>2011-06-20T08:54:52.000Z</time>
      </trkpt>
      <trkpt lat="43.7842" lon="7.10489">
        <ele>684.40002441406</ele>
        <time>2011-06-20T08:54:56.000Z</time>
      </trkpt>
      <trkpt lat="43.78417" lon="7.10511">
        <ele>683.40002441406</ele>
        <time>2011-06-20T08:55:02.000Z</time>
      </trkpt>
      <trkpt lat="43.7841" lon="7.1053">
        <ele>679.59997558594</ele>
        <time>2011-06-20T08:55:07.000Z</time>
      </trkpt>
      <trkpt lat="43.78402" lon="7.1054">
        <ele>674.40002441406</ele>
        <time>2011-06-20T08:55:11.000Z</time>
      </trkpt>
      <trkpt lat="43.78396" lon="7.10557">
        <ele>671.59997558594</ele>
        <time>2011-06-20T08:55:17.000Z</time>
      </trkpt>
      <trkpt lat="43.78398" lon="7.10573">
        <ele>673.59997558594</ele>
        <time>2011-06-20T08:55:21.000Z</time>
      </trkpt>
      <trkpt lat="43.78403" lon="7.10592">
        <ele>676</ele>
        <time>2011-06-20T08:55:26.000Z</time>
      </trkpt>
      <trkpt lat="43.78409" lon="7.10603">
        <ele>678.79998779297</ele>
        <time>2011-06-20T08:55:31.000Z</time>
      </trkpt>
      <trkpt lat="43.78411" lon="7.10608">
        <ele>679.40002441406</ele>
        <time>2011-06-20T08:55:36.000Z</time>
      </trkpt>
      <trkpt lat="43.7841" lon="7.10611">
        <ele>678.59997558594</ele>
        <time>2011-06-20T08:55:41.000Z</time>
      </trkpt>
      <trkpt lat="43.78408" lon="7.10617">
        <ele>676.59997558594</ele>
        <time>2011-06-20T08:55:47.000Z</time>
      </trkpt>
      <trkpt lat="43.78408" lon="7.10619">
        <ele>676.20001220703</ele>
        <time>2011-06-20T08:55:52.000Z</time>
      </trkpt>
      <trkpt lat="43.78408" lon="7.10622">
        <ele>675.79998779297</ele>
        <time>2011-06-20T08:55:54.000Z</time>
      </trkpt>
      <trkpt lat="43.78406" lon="7.10646">
        <ele>672.59997558594</ele>
        <time>2011-06-20T08:56:00.000Z</time>
      </trkpt>
      <trkpt lat="43.78402" lon="7.10663">
        <ele>668.20001220703</ele>
        <time>2011-06-20T08:56:04.000Z</time>
      </trkpt>
      <trkpt lat="43.78396" lon="7.10683">
        <ele>666.20001220703</ele>
        <time>2011-06-20T08:56:08.000Z</time>
      </trkpt>
      <trkpt lat="43.78386" lon="7.10709">
        <ele>663</ele>
        <time>2011-06-20T08:56:14.000Z</time>
      </trkpt>
      <trkpt lat="43.78374" lon="7.10729">
        <ele>657.40002441406</ele>
        <time>2011-06-20T08:56:19.000Z</time>
      </trkpt>
      <trkpt lat="43.78369" lon="7.10747">
        <ele>655.79998779297</ele>
        <time>2011-06-20T08:56:23.000Z</time>
      </trkpt>
      <trkpt lat="43.78364" lon="7.10775">
        <ele>658.20001220703</ele>
        <time>2011-06-20T08:56:30.000Z</time>
      </trkpt>
      <trkpt lat="43.7836" lon="7.10802">
        <ele>661.40002441406</ele>
        <time>2011-06-20T08:56:36.000Z</time>
      </trkpt>
      <trkpt lat="43.78357" lon="7.10822">
        <ele>663.59997558594</ele>
        <time>2011-06-20T08:56:41.000Z</time>
      </trkpt>
      <trkpt lat="43.78348" lon="7.10838">
        <ele>661</ele>
        <time>2011-06-20T08:56:46.000Z</time>
      </trkpt>
      <trkpt lat="43.78344" lon="7.10847">
        <ele>660.20001220703</ele>
        <time>2011-06-20T08:56:51.000Z</time>
      </trkpt>
      <trkpt lat="43.78339" lon="7.10857">
        <ele>658.79998779297</ele>
        <time>2011-06-20T08:56:56.000Z</time>
      </trkpt>
      <trkpt lat="43.78333" lon="7.10871">
        <ele>657.79998779297</ele>
        <time>2011-06-20T08:57:01.000Z</time>
      </trkpt>
      <trkpt lat="43.78328" lon="7.1088">
        <ele>657</ele>
        <time>2011-06-20T08:57:05.000Z</time>
      </trkpt>
      <trkpt lat="43.78325" lon="7.1089">
        <ele>657.79998779297</ele>
        <time>2011-06-20T08:57:08.000Z</time>
      </trkpt>
      <trkpt lat="43.7833" lon="7.10905">
        <ele>662.79998779297</ele>
        <time>2011-06-20T08:57:13.000Z</time>
      </trkpt>
      <trkpt lat="43.78329" lon="7.10917">
        <ele>665.40002441406</ele>
        <time>2011-06-20T08:57:16.000Z</time>
      </trkpt>
      <trkpt lat="43.78323" lon="7.10922">
        <ele>663.79998779297</ele>
        <time>2011-06-20T08:57:19.000Z</time>
      </trkpt>
      <trkpt lat="43.78319" lon="7.10922">
        <ele>661.79998779297</ele>
        <time>2011-06-20T08:57:26.000Z</time>
      </trkpt>
      <trkpt lat="43.78318" lon="7.10922">
        <ele>661.59997558594</ele>
        <time>2011-06-20T08:57:32.000Z</time>
      </trkpt>
      <trkpt lat="43.78308" lon="7.10929">
        <ele>659.20001220703</ele>
        <time>2011-06-20T08:57:37.000Z</time>
      </trkpt>
      <trkpt lat="43.78298" lon="7.1094">
        <ele>657.79998779297</ele>
        <time>2011-06-20T08:57:43.000Z</time>
      </trkpt>
      <trkpt lat="43.7829" lon="7.1095">
        <ele>657.40002441406</ele>
        <time>2011-06-20T08:57:48.000Z</time>
      </trkpt>
      <trkpt lat="43.78285" lon="7.10956">
        <ele>657.20001220703</ele>
        <time>2011-06-20T08:57:51.000Z</time>
      </trkpt>
      <trkpt lat="43.78281" lon="7.1096">
        <ele>657</ele>
        <time>2011-06-20T08:57:57.000Z</time>
      </trkpt>
      <trkpt lat="43.7828" lon="7.1096">
        <ele>656.59997558594</ele>
        <time>2011-06-20T08:57:59.000Z</time>
      </trkpt>
      <trkpt lat="43.78281" lon="7.10963">
        <ele>657.59997558594</ele>
        <time>2011-06-20T09:01:24.000Z</time>
      </trkpt>
      <trkpt lat="43.7828" lon="7.10963">
        <ele>657.59997558594</ele>
        <time>2011-06-20T09:01:25.000Z</time>
      </trkpt>
      <trkpt lat="43.78276" lon="7.10969">
        <ele>657.59997558594</ele>
        <time>2011-06-20T09:01:29.000Z</time>
      </trkpt>
      <trkpt lat="43.78272" lon="7.10976">
        <ele>658</ele>
        <time>2011-06-20T09:01:36.000Z</time>
      </trkpt>
      <trkpt lat="43.7827" lon="7.10977">
        <ele>657.59997558594</ele>
        <time>2011-06-20T09:01:43.000Z</time>
      </trkpt>
      <trkpt lat="43.78269" lon="7.10979">
        <ele>658</ele>
        <time>2011-06-20T09:01:48.000Z</time>
      </trkpt>
      <trkpt lat="43.78268" lon="7.1098">
        <ele>657.79998779297</ele>
        <time>2011-06-20T09:01:49.000Z</time>
      </trkpt>
      <trkpt lat="43.78263" lon="7.1099">
        <ele>658.79998779297</ele>
        <time>2011-06-20T09:01:54.000Z</time>
      </trkpt>
      <trkpt lat="43.78255" lon="7.11">
        <ele>659.20001220703</ele>
        <time>2011-06-20T09:02:00.000Z</time>
      </trkpt>
      <trkpt lat="43.78249" lon="7.11009">
        <ele>659.20001220703</ele>
        <time>2011-06-20T09:02:06.000Z</time>
      </trkpt>
      <trkpt lat="43.78246" lon="7.11016">
        <ele>659.59997558594</ele>
        <time>2011-06-20T09:02:10.000Z</time>
      </trkpt>
      <trkpt lat="43.7824" lon="7.11031">
        <ele>661.40002441406</ele>
        <time>2011-06-20T09:02:16.000Z</time>
      </trkpt>
      <trkpt lat="43.78238" lon="7.11042">
        <ele>663.79998779297</ele>
        <time>2011-06-20T09:02:24.000Z</time>
      </trkpt>
      <trkpt lat="43.78238" lon="7.11045">
        <ele>664.40002441406</ele>
        <time>2011-06-20T09:02:26.000Z</time>
      </trkpt>
      <trkpt lat="43.78235" lon="7.11051">
        <ele>665</ele>
        <time>2011-06-20T09:02:33.000Z</time>
      </trkpt>
      <trkpt lat="43.7823" lon="7.11055">
        <ele>663.79998779297</ele>
        <time>2011-06-20T09:02:39.000Z</time>
      </trkpt>
      <trkpt lat="43.78229" lon="7.1106">
        <ele>665.20001220703</ele>
        <time>2011-06-20T09:02:45.000Z</time>
      </trkpt>
      <trkpt lat="43.78228" lon="7.11066">
        <ele>666.59997558594</ele>
        <time>2011-06-20T09:02:52.000Z</time>
      </trkpt>
      <trkpt lat="43.78228" lon="7.11066">
        <ele>666.40002441406</ele>
        <time>2011-06-20T09:02:58.000Z</time>
      </trkpt>
      <trkpt lat="43.78228" lon="7.11068">
        <ele>667</ele>
        <time>2011-06-20T09:03:07.000Z</time>
      </trkpt>
      <trkpt lat="43.78229" lon="7.11073">
        <ele>668.79998779297</ele>
        <time>2011-06-20T09:03:13.000Z</time>
      </trkpt>
      <trkpt lat="43.78225" lon="7.11078">
        <ele>668.79998779297</ele>
        <time>2011-06-20T09:03:19.000Z</time>
      </trkpt>
      <trkpt lat="43.78222" lon="7.11085">
        <ele>669.40002441406</ele>
        <time>2011-06-20T09:03:26.000Z</time>
      </trkpt>
      <trkpt lat="43.78219" lon="7.11089">
        <ele>669</ele>
        <time>2011-06-20T09:03:30.000Z</time>
      </trkpt>
      <trkpt lat="43.78211" lon="7.11098">
        <ele>668</ele>
        <time>2011-06-20T09:03:35.000Z</time>
      </trkpt>
      <trkpt lat="43.78207" lon="7.11105">
        <ele>668.40002441406</ele>
        <time>2011-06-20T09:03:38.000Z</time>
      </trkpt>
      <trkpt lat="43.78202" lon="7.11115">
        <ele>668.59997558594</ele>
        <time>2011-06-20T09:03:43.000Z</time>
      </trkpt>
      <trkpt lat="43.78201" lon="7.11116">
        <ele>668.40002441406</ele>
        <time>2011-06-20T09:03:44.000Z</time>
      </trkpt>
      <trkpt lat="43.78188" lon="7.11127">
        <ele>666</ele>
        <time>2011-06-20T09:03:49.000Z</time>
      </trkpt>
      <trkpt lat="43.78178" lon="7.11138">
        <ele>664.79998779297</ele>
        <time>2011-06-20T09:03:53.000Z</time>
      </trkpt>
      <trkpt lat="43.78166" lon="7.11151">
        <ele>663.20001220703</ele>
        <time>2011-06-20T09:03:57.000Z</time>
      </trkpt>
      <trkpt lat="43.78154" lon="7.11167">
        <ele>663.79998779297</ele>
        <time>2011-06-20T09:04:02.000Z</time>
      </trkpt>
      <trkpt lat="43.78143" lon="7.1119">
        <ele>661.59997558594</ele>
        <time>2011-06-20T09:04:08.000Z</time>
      </trkpt>
      <trkpt lat="43.78138" lon="7.11194">
        <ele>660.40002441406</ele>
        <time>2011-06-20T09:04:10.000Z</time>
      </trkpt>
      <trkpt lat="43.78129" lon="7.11214">
        <ele>658.20001220703</ele>
        <time>2011-06-20T09:04:15.000Z</time>
      </trkpt>
      <trkpt lat="43.78124" lon="7.11234">
        <ele>658</ele>
        <time>2011-06-20T09:04:19.000Z</time>
      </trkpt>
      <trkpt lat="43.78121" lon="7.11258">
        <ele>657.59997558594</ele>
        <time>2011-06-20T09:04:25.000Z</time>
      </trkpt>
      <trkpt lat="43.78121" lon="7.11265">
        <ele>657.40002441406</ele>
        <time>2011-06-20T09:04:27.000Z</time>
      </trkpt>
      <trkpt lat="43.7812" lon="7.11271">
        <ele>656.79998779297</ele>
        <time>2011-06-20T09:04:29.000Z</time>
      </trkpt>
      <trkpt lat="43.78123" lon="7.11284">
        <ele>657.20001220703</ele>
        <time>2011-06-20T09:04:35.000Z</time>
      </trkpt>
      <trkpt lat="43.78126" lon="7.11287">
        <ele>658</ele>
        <time>2011-06-20T09:04:39.000Z</time>
      </trkpt>
      <trkpt lat="43.78127" lon="7.11288">
        <ele>658.59997558594</ele>
        <time>2011-06-20T09:04:45.000Z</time>
      </trkpt>
      <trkpt lat="43.78128" lon="7.11293">
        <ele>659</ele>
        <time>2011-06-20T09:04:48.000Z</time>
      </trkpt>
      <trkpt lat="43.78135" lon="7.1131">
        <ele>660.79998779297</ele>
        <time>2011-06-20T09:04:54.000Z</time>
      </trkpt>
      <trkpt lat="43.78136" lon="7.11313">
        <ele>661.20001220703</ele>
        <time>2011-06-20T09:04:55.000Z</time>
      </trkpt>
      <trkpt lat="43.78143" lon="7.1133">
        <ele>663.40002441406</ele>
        <time>2011-06-20T09:05:01.000Z</time>
      </trkpt>
      <trkpt lat="43.7815" lon="7.11342">
        <ele>664.59997558594</ele>
        <time>2011-06-20T09:05:06.000Z</time>
      </trkpt>
      <trkpt lat="43.78158" lon="7.11363">
        <ele>664.79998779297</ele>
        <time>2011-06-20T09:05:13.000Z</time>
      </trkpt>
      <trkpt lat="43.78165" lon="7.11376">
        <ele>664.79998779297</ele>
        <time>2011-06-20T09:05:18.000Z</time>
      </trkpt>
      <trkpt lat="43.78168" lon="7.11381">
        <ele>665</ele>
        <time>2011-06-20T09:05:21.000Z</time>
      </trkpt>
      <trkpt lat="43.78169" lon="7.11392">
        <ele>663.40002441406</ele>
        <time>2011-06-20T09:05:25.000Z</time>
      </trkpt>
      <trkpt lat="43.78178" lon="7.11409">
        <ele>664.40002441406</ele>
        <time>2011-06-20T09:05:31.000Z</time>
      </trkpt>
      <trkpt lat="43.7818" lon="7.11423">
        <ele>664</ele>
        <time>2011-06-20T09:05:36.000Z</time>
      </trkpt>
      <trkpt lat="43.78182" lon="7.11428">
        <ele>664.40002441406</ele>
        <time>2011-06-20T09:05:38.000Z</time>
      </trkpt>
      <trkpt lat="43.78185" lon="7.1145">
        <ele>665</ele>
        <time>2011-06-20T09:05:46.000Z</time>
      </trkpt>
      <trkpt lat="43.78189" lon="7.11467">
        <ele>666.20001220703</ele>
        <time>2011-06-20T09:05:52.000Z</time>
      </trkpt>
      <trkpt lat="43.7819" lon="7.11474">
        <ele>666.40002441406</ele>
        <time>2011-06-20T09:05:57.000Z</time>
      </trkpt>
      <trkpt lat="43.78195" lon="7.11486">
        <ele>667.40002441406</ele>
        <time>2011-06-20T09:06:03.000Z</time>
      </trkpt>
      <trkpt lat="43.78201" lon="7.11504">
        <ele>668.79998779297</ele>
        <time>2011-06-20T09:06:09.000Z</time>
      </trkpt>
      <trkpt lat="43.78202" lon="7.11511">
        <ele>669.40002441406</ele>
        <time>2011-06-20T09:06:11.000Z</time>
      </trkpt>
      <trkpt lat="43.78209" lon="7.11521">
        <ele>671.40002441406</ele>
        <time>2011-06-20T09:06:15.000Z</time>
      </trkpt>
      <trkpt lat="43.78213" lon="7.11532">
        <ele>672.40002441406</ele>
        <time>2011-06-20T09:06:21.000Z</time>
      </trkpt>
      <trkpt lat="43.78213" lon="7.11537">
        <ele>672.40002441406</ele>
        <time>2011-06-20T09:06:29.000Z</time>
      </trkpt>
      <trkpt lat="43.78207" lon="7.11548">
        <ele>671.40002441406</ele>
        <time>2011-06-20T09:06:34.000Z</time>
      </trkpt>
      <trkpt lat="43.78208" lon="7.11559">
        <ele>671.59997558594</ele>
        <time>2011-06-20T09:06:38.000Z</time>
      </trkpt>
      <trkpt lat="43.78206" lon="7.11564">
        <ele>671.40002441406</ele>
        <time>2011-06-20T09:06:40.000Z</time>
      </trkpt>
      <trkpt lat="43.78201" lon="7.11585">
        <ele>671.59997558594</ele>
        <time>2011-06-20T09:06:46.000Z</time>
      </trkpt>
      <trkpt lat="43.78194" lon="7.11584">
        <ele>671</ele>
        <time>2011-06-20T09:06:49.000Z</time>
      </trkpt>
      <trkpt lat="43.78191" lon="7.11583">
        <ele>670.59997558594</ele>
        <time>2011-06-20T09:06:50.000Z</time>
      </trkpt>
      <trkpt lat="43.7818" lon="7.11573">
        <ele>668.79998779297</ele>
        <time>2011-06-20T09:06:56.000Z</time>
      </trkpt>
      <trkpt lat="43.78169" lon="7.11563">
        <ele>666.59997558594</ele>
        <time>2011-06-20T09:07:01.000Z</time>
      </trkpt>
      <trkpt lat="43.78166" lon="7.1156">
        <ele>666</ele>
        <time>2011-06-20T09:07:03.000Z</time>
      </trkpt>
      <trkpt lat="43.78157" lon="7.11542">
        <ele>664.59997558594</ele>
        <time>2011-06-20T09:07:09.000Z</time>
      </trkpt>
      <trkpt lat="43.78146" lon="7.11527">
        <ele>663.40002441406</ele>
        <time>2011-06-20T09:07:15.000Z</time>
      </trkpt>
      <trkpt lat="43.78132" lon="7.11512">
        <ele>661.79998779297</ele>
        <time>2011-06-20T09:07:22.000Z</time>
      </trkpt>
      <trkpt lat="43.78126" lon="7.11509">
        <ele>661.59997558594</ele>
        <time>2011-06-20T09:07:25.000Z</time>
      </trkpt>
      <trkpt lat="43.78127" lon="7.11515">
        <ele>662.79998779297</ele>
        <time>2011-06-20T09:07:31.000Z</time>
      </trkpt>
      <trkpt lat="43.78129" lon="7.11519">
        <ele>663.40002441406</ele>
        <time>2011-06-20T09:07:38.000Z</time>
      </trkpt>
      <trkpt lat="43.7813" lon="7.1152">
        <ele>663.59997558594</ele>
        <time>2011-06-20T09:07:48.000Z</time>
      </trkpt>
      <trkpt lat="43.78128" lon="7.11521">
        <ele>664</ele>
        <time>2011-06-20T09:07:52.000Z</time>
      </trkpt>
      <trkpt lat="43.78123" lon="7.11523">
        <ele>664.79998779297</ele>
        <time>2011-06-20T09:07:59.000Z</time>
      </trkpt>
      <trkpt lat="43.78123" lon="7.11527">
        <ele>665.59997558594</ele>
        <time>2011-06-20T09:08:05.000Z</time>
      </trkpt>
      <trkpt lat="43.78119" lon="7.1153">
        <ele>666.59997558594</ele>
        <time>2011-06-20T09:08:12.000Z</time>
      </trkpt>
      <trkpt lat="43.78118" lon="7.11532">
        <ele>667.20001220703</ele>
        <time>2011-06-20T09:08:16.000Z</time>
      </trkpt>
      <trkpt lat="43.78114" lon="7.11535">
        <ele>668.20001220703</ele>
        <time>2011-06-20T09:08:22.000Z</time>
      </trkpt>
      <trkpt lat="43.7811" lon="7.11536">
        <ele>668.79998779297</ele>
        <time>2011-06-20T09:08:27.000Z</time>
      </trkpt>
      <trkpt lat="43.78102" lon="7.11539">
        <ele>670.40002441406</ele>
        <time>2011-06-20T09:08:36.000Z</time>
      </trkpt>
      <trkpt lat="43.78097" lon="7.11544">
        <ele>672.59997558594</ele>
        <time>2011-06-20T09:08:45.000Z</time>
      </trkpt>
      <trkpt lat="43.78094" lon="7.11549">
        <ele>674.20001220703</ele>
        <time>2011-06-20T09:08:51.000Z</time>
      </trkpt>
      <trkpt lat="43.78089" lon="7.11549">
        <ele>674.59997558594</ele>
        <time>2011-06-20T09:08:56.000Z</time>
      </trkpt>
      <trkpt lat="43.78083" lon="7.11547">
        <ele>675</ele>
        <time>2011-06-20T09:09:05.000Z</time>
      </trkpt>
      <trkpt lat="43.78076" lon="7.11549">
        <ele>676.20001220703</ele>
        <time>2011-06-20T09:09:12.000Z</time>
      </trkpt>
      <trkpt lat="43.78077" lon="7.11546">
        <ele>675.59997558594</ele>
        <time>2011-06-20T09:09:18.000Z</time>
      </trkpt>
      <trkpt lat="43.78073" lon="7.11546">
        <ele>675.79998779297</ele>
        <time>2011-06-20T09:09:21.000Z</time>
      </trkpt>
      <trkpt lat="43.78061" lon="7.11545">
        <ele>676.79998779297</ele>
        <time>2011-06-20T09:09:30.000Z</time>
      </trkpt>
      <trkpt lat="43.78053" lon="7.11546">
        <ele>678.20001220703</ele>
        <time>2011-06-20T09:09:38.000Z</time>
      </trkpt>
      <trkpt lat="43.78046" lon="7.11546">
        <ele>678.79998779297</ele>
        <time>2011-06-20T09:09:45.000Z</time>
      </trkpt>
      <trkpt lat="43.78041" lon="7.1155">
        <ele>680.79998779297</ele>
        <time>2011-06-20T09:09:51.000Z</time>
      </trkpt>
      <trkpt lat="43.78036" lon="7.11552">
        <ele>681.59997558594</ele>
        <time>2011-06-20T09:09:57.000Z</time>
      </trkpt>
      <trkpt lat="43.78031" lon="7.11553">
        <ele>682.59997558594</ele>
        <time>2011-06-20T09:10:04.000Z</time>
      </trkpt>
      <trkpt lat="43.78032" lon="7.11554">
        <ele>682.79998779297</ele>
        <time>2011-06-20T09:10:13.000Z</time>
      </trkpt>
      <trkpt lat="43.78032" lon="7.11556">
        <ele>683.40002441406</ele>
        <time>2011-06-20T09:10:19.000Z</time>
      </trkpt>
      <trkpt lat="43.78027" lon="7.1156">
        <ele>684.79998779297</ele>
        <time>2011-06-20T09:10:26.000Z</time>
      </trkpt>
      <trkpt lat="43.78025" lon="7.11563">
        <ele>686</ele>
        <time>2011-06-20T09:10:32.000Z</time>
      </trkpt>
      <trkpt lat="43.78023" lon="7.11568">
        <ele>687.40002441406</ele>
        <time>2011-06-20T09:10:38.000Z</time>
      </trkpt>
      <trkpt lat="43.78021" lon="7.11571">
        <ele>688.59997558594</ele>
        <time>2011-06-20T09:10:43.000Z</time>
      </trkpt>
      <trkpt lat="43.78018" lon="7.11577">
        <ele>690.40002441406</ele>
        <time>2011-06-20T09:10:52.000Z</time>
      </trkpt>
      <trkpt lat="43.78011" lon="7.11581">
        <ele>692.20001220703</ele>
        <time>2011-06-20T09:11:01.000Z</time>
      </trkpt>
      <trkpt lat="43.78007" lon="7.11584">
        <ele>693.40002441406</ele>
        <time>2011-06-20T09:11:09.000Z</time>
      </trkpt>
      <trkpt lat="43.78009" lon="7.11589">
        <ele>694</ele>
        <time>2011-06-20T09:11:18.000Z</time>
      </trkpt>
      <trkpt lat="43.78007" lon="7.11594">
        <ele>695.40002441406</ele>
        <time>2011-06-20T09:11:25.000Z</time>
      </trkpt>
      <trkpt lat="43.78002" lon="7.11598">
        <ele>696.79998779297</ele>
        <time>2011-06-20T09:11:32.000Z</time>
      </trkpt>
      <trkpt lat="43.77999" lon="7.116">
        <ele>697.40002441406</ele>
        <time>2011-06-20T09:11:38.000Z</time>
      </trkpt>
      <trkpt lat="43.77996" lon="7.11603">
        <ele>698.59997558594</ele>
        <time>2011-06-20T09:11:46.000Z</time>
      </trkpt>
      <trkpt lat="43.77994" lon="7.11608">
        <ele>699.79998779297</ele>
        <time>2011-06-20T09:11:52.000Z</time>
      </trkpt>
      <trkpt lat="43.77992" lon="7.1161">
        <ele>700.40002441406</ele>
        <time>2011-06-20T09:11:58.000Z</time>
      </trkpt>
      <trkpt lat="43.7799" lon="7.11616">
        <ele>702.20001220703</ele>
        <time>2011-06-20T09:12:05.000Z</time>
      </trkpt>
      <trkpt lat="43.77985" lon="7.11618">
        <ele>703.20001220703</ele>
        <time>2011-06-20T09:12:13.000Z</time>
      </trkpt>
      <trkpt lat="43.77985" lon="7.11616">
        <ele>702.79998779297</ele>
        <time>2011-06-20T09:12:16.000Z</time>
      </trkpt>
      <trkpt lat="43.77981" lon="7.11617">
        <ele>703.59997558594</ele>
        <time>2011-06-20T09:12:20.000Z</time>
      </trkpt>
      <trkpt lat="43.77975" lon="7.11621">
        <ele>705.20001220703</ele>
        <time>2011-06-20T09:12:28.000Z</time>
      </trkpt>
      <trkpt lat="43.77971" lon="7.11621">
        <ele>705.79998779297</ele>
        <time>2011-06-20T09:12:35.000Z</time>
      </trkpt>
      <trkpt lat="43.77968" lon="7.11624">
        <ele>706.79998779297</ele>
        <time>2011-06-20T09:12:41.000Z</time>
      </trkpt>
      <trkpt lat="43.77963" lon="7.11628">
        <ele>708</ele>
        <time>2011-06-20T09:12:48.000Z</time>
      </trkpt>
      <trkpt lat="43.77957" lon="7.11628">
        <ele>708.79998779297</ele>
        <time>2011-06-20T09:12:54.000Z</time>
      </trkpt>
      <trkpt lat="43.77949" lon="7.11628">
        <ele>710</ele>
        <time>2011-06-20T09:13:03.000Z</time>
      </trkpt>
      <trkpt lat="43.77945" lon="7.11632">
        <ele>711</ele>
        <time>2011-06-20T09:13:08.000Z</time>
      </trkpt>
      <trkpt lat="43.77941" lon="7.11638">
        <ele>712.40002441406</ele>
        <time>2011-06-20T09:13:14.000Z</time>
      </trkpt>
      <trkpt lat="43.77939" lon="7.1164">
        <ele>713</ele>
        <time>2011-06-20T09:13:16.000Z</time>
      </trkpt>
      <trkpt lat="43.77935" lon="7.11639">
        <ele>713.20001220703</ele>
        <time>2011-06-20T09:13:20.000Z</time>
      </trkpt>
      <trkpt lat="43.77931" lon="7.11641">
        <ele>714</ele>
        <time>2011-06-20T09:13:28.000Z</time>
      </trkpt>
      <trkpt lat="43.77929" lon="7.11646">
        <ele>715</ele>
        <time>2011-06-20T09:13:34.000Z</time>
      </trkpt>
      <trkpt lat="43.77925" lon="7.1165">
        <ele>716</ele>
        <time>2011-06-20T09:13:40.000Z</time>
      </trkpt>
      <trkpt lat="43.7792" lon="7.11655">
        <ele>717.20001220703</ele>
        <time>2011-06-20T09:13:47.000Z</time>
      </trkpt>
      <trkpt lat="43.77918" lon="7.11659">
        <ele>717.79998779297</ele>
        <time>2011-06-20T09:13:53.000Z</time>
      </trkpt>
      <trkpt lat="43.77914" lon="7.1166">
        <ele>718.59997558594</ele>
        <time>2011-06-20T09:13:58.000Z</time>
      </trkpt>
      <trkpt lat="43.77908" lon="7.11666">
        <ele>720.20001220703</ele>
        <time>2011-06-20T09:14:05.000Z</time>
      </trkpt>
      <trkpt lat="43.77904" lon="7.1167">
        <ele>721.40002441406</ele>
        <time>2011-06-20T09:14:13.000Z</time>
      </trkpt>
      <trkpt lat="43.779" lon="7.11672">
        <ele>722.40002441406</ele>
        <time>2011-06-20T09:14:22.000Z</time>
      </trkpt>
      <trkpt lat="43.77898" lon="7.11675">
        <ele>723</ele>
        <time>2011-06-20T09:14:28.000Z</time>
      </trkpt>
      <trkpt lat="43.77895" lon="7.11678">
        <ele>723.79998779297</ele>
        <time>2011-06-20T09:14:33.000Z</time>
      </trkpt>
      <trkpt lat="43.77893" lon="7.11681">
        <ele>724.59997558594</ele>
        <time>2011-06-20T09:14:39.000Z</time>
      </trkpt>
      <trkpt lat="43.77889" lon="7.11683">
        <ele>725.59997558594</ele>
        <time>2011-06-20T09:14:46.000Z</time>
      </trkpt>
      <trkpt lat="43.77884" lon="7.11684">
        <ele>726.40002441406</ele>
        <time>2011-06-20T09:14:52.000Z</time>
      </trkpt>
      <trkpt lat="43.77879" lon="7.11687">
        <ele>727.40002441406</ele>
        <time>2011-06-20T09:14:58.000Z</time>
      </trkpt>
      <trkpt lat="43.77875" lon="7.1169">
        <ele>728.20001220703</ele>
        <time>2011-06-20T09:15:04.000Z</time>
      </trkpt>
      <trkpt lat="43.7787" lon="7.11694">
        <ele>729.40002441406</ele>
        <time>2011-06-20T09:15:09.000Z</time>
      </trkpt>
      <trkpt lat="43.77863" lon="7.11696">
        <ele>730.59997558594</ele>
        <time>2011-06-20T09:15:15.000Z</time>
      </trkpt>
      <trkpt lat="43.77856" lon="7.11696">
        <ele>731.59997558594</ele>
        <time>2011-06-20T09:15:23.000Z</time>
      </trkpt>
      <trkpt lat="43.77852" lon="7.11697">
        <ele>732.20001220703</ele>
        <time>2011-06-20T09:15:28.000Z</time>
      </trkpt>
      <trkpt lat="43.77847" lon="7.11697">
        <ele>732.79998779297</ele>
        <time>2011-06-20T09:15:33.000Z</time>
      </trkpt>
      <trkpt lat="43.77843" lon="7.11697">
        <ele>733.40002441406</ele>
        <time>2011-06-20T09:15:38.000Z</time>
      </trkpt>
      <trkpt lat="43.77839" lon="7.11701">
        <ele>734.20001220703</ele>
        <time>2011-06-20T09:15:45.000Z</time>
      </trkpt>
      <trkpt lat="43.77834" lon="7.11704">
        <ele>735</ele>
        <time>2011-06-20T09:15:51.000Z</time>
      </trkpt>
      <trkpt lat="43.77832" lon="7.11702">
        <ele>735</ele>
        <time>2011-06-20T09:15:56.000Z</time>
      </trkpt>
      <trkpt lat="43.77826" lon="7.117">
        <ele>734.79998779297</ele>
        <time>2011-06-20T09:16:02.000Z</time>
      </trkpt>
      <trkpt lat="43.77819" lon="7.11698">
        <ele>734.40002441406</ele>
        <time>2011-06-20T09:16:09.000Z</time>
      </trkpt>
      <trkpt lat="43.77816" lon="7.11697">
        <ele>734.40002441406</ele>
        <time>2011-06-20T09:16:18.000Z</time>
      </trkpt>
      <trkpt lat="43.77813" lon="7.11698">
        <ele>734.40002441406</ele>
        <time>2011-06-20T09:16:25.000Z</time>
      </trkpt>
      <trkpt lat="43.77801" lon="7.117">
        <ele>734.20001220703</ele>
        <time>2011-06-20T09:16:32.000Z</time>
      </trkpt>
      <trkpt lat="43.77799" lon="7.11702">
        <ele>734.40002441406</ele>
        <time>2011-06-20T09:16:33.000Z</time>
      </trkpt>
      <trkpt lat="43.77781" lon="7.11713">
        <ele>734.79998779297</ele>
        <time>2011-06-20T09:16:41.000Z</time>
      </trkpt>
      <trkpt lat="43.77761" lon="7.11727">
        <ele>735.40002441406</ele>
        <time>2011-06-20T09:16:48.000Z</time>
      </trkpt>
      <trkpt lat="43.77751" lon="7.11739">
        <ele>736.20001220703</ele>
        <time>2011-06-20T09:16:52.000Z</time>
      </trkpt>
      <trkpt lat="43.77736" lon="7.11755">
        <ele>735.20001220703</ele>
        <time>2011-06-20T09:16:58.000Z</time>
      </trkpt>
      <trkpt lat="43.77725" lon="7.11767">
        <ele>734.59997558594</ele>
        <time>2011-06-20T09:17:02.000Z</time>
      </trkpt>
      <trkpt lat="43.77717" lon="7.1178">
        <ele>734.20001220703</ele>
        <time>2011-06-20T09:17:06.000Z</time>
      </trkpt>
      <trkpt lat="43.77711" lon="7.11797">
        <ele>734.40002441406</ele>
        <time>2011-06-20T09:17:10.000Z</time>
      </trkpt>
      <trkpt lat="43.77701" lon="7.11812">
        <ele>733.79998779297</ele>
        <time>2011-06-20T09:17:14.000Z</time>
      </trkpt>
      <trkpt lat="43.7769" lon="7.11834">
        <ele>733.20001220703</ele>
        <time>2011-06-20T09:17:19.000Z</time>
      </trkpt>
      <trkpt lat="43.77681" lon="7.11861">
        <ele>733.59997558594</ele>
        <time>2011-06-20T09:17:24.000Z</time>
      </trkpt>
      <trkpt lat="43.77677" lon="7.11866">
        <ele>733.20001220703</ele>
        <time>2011-06-20T09:17:26.000Z</time>
      </trkpt>
      <trkpt lat="43.77667" lon="7.11862">
        <ele>731.40002441406</ele>
        <time>2011-06-20T09:17:30.000Z</time>
      </trkpt>
      <trkpt lat="43.77654" lon="7.1187">
        <ele>731</ele>
        <time>2011-06-20T09:17:36.000Z</time>
      </trkpt>
      <trkpt lat="43.77634" lon="7.1188">
        <ele>730.59997558594</ele>
        <time>2011-06-20T09:17:42.000Z</time>
      </trkpt>
      <trkpt lat="43.7762" lon="7.11875">
        <ele>729</ele>
        <time>2011-06-20T09:17:46.000Z</time>
      </trkpt>
      <trkpt lat="43.77614" lon="7.11869">
        <ele>727.59997558594</ele>
        <time>2011-06-20T09:17:48.000Z</time>
      </trkpt>
      <trkpt lat="43.77601" lon="7.11874">
        <ele>727.59997558594</ele>
        <time>2011-06-20T09:17:53.000Z</time>
      </trkpt>
      <trkpt lat="43.77585" lon="7.11888">
        <ele>729.20001220703</ele>
        <time>2011-06-20T09:18:00.000Z</time>
      </trkpt>
      <trkpt lat="43.77573" lon="7.11895">
        <ele>730.59997558594</ele>
        <time>2011-06-20T09:18:04.000Z</time>
      </trkpt>
      <trkpt lat="43.77561" lon="7.11895">
        <ele>731</ele>
        <time>2011-06-20T09:18:08.000Z</time>
      </trkpt>
      <trkpt lat="43.77551" lon="7.11898">
        <ele>731.59997558594</ele>
        <time>2011-06-20T09:18:12.000Z</time>
      </trkpt>
      <trkpt lat="43.77537" lon="7.11889">
        <ele>730</ele>
        <time>2011-06-20T09:18:18.000Z</time>
      </trkpt>
      <trkpt lat="43.7753" lon="7.11883">
        <ele>728.79998779297</ele>
        <time>2011-06-20T09:18:21.000Z</time>
      </trkpt>
      <trkpt lat="43.77517" lon="7.11881">
        <ele>728.40002441406</ele>
        <time>2011-06-20T09:18:26.000Z</time>
      </trkpt>
      <trkpt lat="43.77499" lon="7.11876">
        <ele>727.59997558594</ele>
        <time>2011-06-20T09:18:32.000Z</time>
      </trkpt>
      <trkpt lat="43.77485" lon="7.11872">
        <ele>727</ele>
        <time>2011-06-20T09:18:37.000Z</time>
      </trkpt>
      <trkpt lat="43.7748" lon="7.11869">
        <ele>726.59997558594</ele>
        <time>2011-06-20T09:18:39.000Z</time>
      </trkpt>
      <trkpt lat="43.77468" lon="7.11872">
        <ele>727.40002441406</ele>
        <time>2011-06-20T09:18:46.000Z</time>
      </trkpt>
      <trkpt lat="43.77464" lon="7.11871">
        <ele>727.40002441406</ele>
        <time>2011-06-20T09:18:52.000Z</time>
      </trkpt>
      <trkpt lat="43.77461" lon="7.11874">
        <ele>728.20001220703</ele>
        <time>2011-06-20T09:19:00.000Z</time>
      </trkpt>
      <trkpt lat="43.77456" lon="7.11876">
        <ele>728.79998779297</ele>
        <time>2011-06-20T09:19:06.000Z</time>
      </trkpt>
      <trkpt lat="43.77451" lon="7.11878">
        <ele>729.20001220703</ele>
        <time>2011-06-20T09:19:12.000Z</time>
      </trkpt>
      <trkpt lat="43.77446" lon="7.11883">
        <ele>730.40002441406</ele>
        <time>2011-06-20T09:19:19.000Z</time>
      </trkpt>
      <trkpt lat="43.77441" lon="7.11888">
        <ele>731.40002441406</ele>
        <time>2011-06-20T09:19:23.000Z</time>
      </trkpt>
      <trkpt lat="43.77436" lon="7.11895">
        <ele>732.59997558594</ele>
        <time>2011-06-20T09:19:26.000Z</time>
      </trkpt>
      <trkpt lat="43.77428" lon="7.11899">
        <ele>733.59997558594</ele>
        <time>2011-06-20T09:19:30.000Z</time>
      </trkpt>
      <trkpt lat="43.77424" lon="7.119">
        <ele>733.79998779297</ele>
        <time>2011-06-20T09:19:35.000Z</time>
      </trkpt>
      <trkpt lat="43.77421" lon="7.119">
        <ele>733.79998779297</ele>
        <time>2011-06-20T09:19:41.000Z</time>
      </trkpt>
      <trkpt lat="43.77417" lon="7.11899">
        <ele>733.79998779297</ele>
        <time>2011-06-20T09:19:45.000Z</time>
      </trkpt>
      <trkpt lat="43.77411" lon="7.11903">
        <ele>735.40002441406</ele>
        <time>2011-06-20T09:19:53.000Z</time>
      </trkpt>
      <trkpt lat="43.77405" lon="7.11907">
        <ele>737</ele>
        <time>2011-06-20T09:20:00.000Z</time>
      </trkpt>
      <trkpt lat="43.77399" lon="7.11912">
        <ele>738.40002441406</ele>
        <time>2011-06-20T09:20:08.000Z</time>
      </trkpt>
      <trkpt lat="43.77391" lon="7.11912">
        <ele>739.59997558594</ele>
        <time>2011-06-20T09:20:16.000Z</time>
      </trkpt>
      <trkpt lat="43.77389" lon="7.11913">
        <ele>740</ele>
        <time>2011-06-20T09:20:19.000Z</time>
      </trkpt>
      <trkpt lat="43.77387" lon="7.11913">
        <ele>740.40002441406</ele>
        <time>2011-06-20T09:20:22.000Z</time>
      </trkpt>
      <trkpt lat="43.77381" lon="7.11913">
        <ele>741</ele>
        <time>2011-06-20T09:20:29.000Z</time>
      </trkpt>
      <trkpt lat="43.77379" lon="7.11913">
        <ele>741.40002441406</ele>
        <time>2011-06-20T09:20:32.000Z</time>
      </trkpt>
      <trkpt lat="43.77374" lon="7.11915">
        <ele>742.20001220703</ele>
        <time>2011-06-20T09:20:38.000Z</time>
      </trkpt>
      <trkpt lat="43.77369" lon="7.11912">
        <ele>742.59997558594</ele>
        <time>2011-06-20T09:20:44.000Z</time>
      </trkpt>
      <trkpt lat="43.77365" lon="7.1191">
        <ele>743</ele>
        <time>2011-06-20T09:20:48.000Z</time>
      </trkpt>
      <trkpt lat="43.77362" lon="7.11913">
        <ele>743.79998779297</ele>
        <time>2011-06-20T09:20:53.000Z</time>
      </trkpt>
      <trkpt lat="43.77358" lon="7.11916">
        <ele>744.59997558594</ele>
        <time>2011-06-20T09:20:59.000Z</time>
      </trkpt>
      <trkpt lat="43.77354" lon="7.11922">
        <ele>746</ele>
        <time>2011-06-20T09:21:06.000Z</time>
      </trkpt>
      <trkpt lat="43.77348" lon="7.11925">
        <ele>747</ele>
        <time>2011-06-20T09:21:12.000Z</time>
      </trkpt>
      <trkpt lat="43.77345" lon="7.11929">
        <ele>747.79998779297</ele>
        <time>2011-06-20T09:21:17.000Z</time>
      </trkpt>
      <trkpt lat="43.77341" lon="7.11932">
        <ele>748.59997558594</ele>
        <time>2011-06-20T09:21:22.000Z</time>
      </trkpt>
      <trkpt lat="43.77338" lon="7.11938">
        <ele>749.59997558594</ele>
        <time>2011-06-20T09:21:28.000Z</time>
      </trkpt>
      <trkpt lat="43.77335" lon="7.11942">
        <ele>750.40002441406</ele>
        <time>2011-06-20T09:21:35.000Z</time>
      </trkpt>
      <trkpt lat="43.77334" lon="7.11943">
        <ele>750.79998779297</ele>
        <time>2011-06-20T09:21:37.000Z</time>
      </trkpt>
      <trkpt lat="43.77328" lon="7.11946">
        <ele>751.79998779297</ele>
        <time>2011-06-20T09:21:45.000Z</time>
      </trkpt>
      <trkpt lat="43.77325" lon="7.1195">
        <ele>752.40002441406</ele>
        <time>2011-06-20T09:21:50.000Z</time>
      </trkpt>
      <trkpt lat="43.77319" lon="7.11955">
        <ele>753.59997558594</ele>
        <time>2011-06-20T09:21:57.000Z</time>
      </trkpt>
      <trkpt lat="43.7731" lon="7.11959">
        <ele>754.79998779297</ele>
        <time>2011-06-20T09:22:04.000Z</time>
      </trkpt>
      <trkpt lat="43.77307" lon="7.11963">
        <ele>755.59997558594</ele>
        <time>2011-06-20T09:22:09.000Z</time>
      </trkpt>
      <trkpt lat="43.77304" lon="7.11961">
        <ele>755.79998779297</ele>
        <time>2011-06-20T09:22:15.000Z</time>
      </trkpt>
      <trkpt lat="43.77299" lon="7.11959">
        <ele>756</ele>
        <time>2011-06-20T09:22:19.000Z</time>
      </trkpt>
      <trkpt lat="43.77292" lon="7.11967">
        <ele>757.40002441406</ele>
        <time>2011-06-20T09:22:25.000Z</time>
      </trkpt>
      <trkpt lat="43.77282" lon="7.11981">
        <ele>759.59997558594</ele>
        <time>2011-06-20T09:22:32.000Z</time>
      </trkpt>
      <trkpt lat="43.77274" lon="7.11993">
        <ele>761.40002441406</ele>
        <time>2011-06-20T09:22:38.000Z</time>
      </trkpt>
      <trkpt lat="43.77267" lon="7.11997">
        <ele>762.20001220703</ele>
        <time>2011-06-20T09:22:43.000Z</time>
      </trkpt>
      <trkpt lat="43.77258" lon="7.11999">
        <ele>763.20001220703</ele>
        <time>2011-06-20T09:22:49.000Z</time>
      </trkpt>
      <trkpt lat="43.7725" lon="7.11999">
        <ele>763.79998779297</ele>
        <time>2011-06-20T09:22:54.000Z</time>
      </trkpt>
      <trkpt lat="43.7724" lon="7.12002">
        <ele>764.79998779297</ele>
        <time>2011-06-20T09:23:01.000Z</time>
      </trkpt>
      <trkpt lat="43.77238" lon="7.12003">
        <ele>765</ele>
        <time>2011-06-20T09:23:03.000Z</time>
      </trkpt>
      <trkpt lat="43.77232" lon="7.12012">
        <ele>766</ele>
        <time>2011-06-20T09:23:10.000Z</time>
      </trkpt>
      <trkpt lat="43.77229" lon="7.12013">
        <ele>766.20001220703</ele>
        <time>2011-06-20T09:23:12.000Z</time>
      </trkpt>
      <trkpt lat="43.77224" lon="7.12013">
        <ele>766.59997558594</ele>
        <time>2011-06-20T09:23:16.000Z</time>
      </trkpt>
      <trkpt lat="43.7722" lon="7.12012">
        <ele>766.79998779297</ele>
        <time>2011-06-20T09:23:19.000Z</time>
      </trkpt>
      <trkpt lat="43.77213" lon="7.12014">
        <ele>767.40002441406</ele>
        <time>2011-06-20T09:23:24.000Z</time>
      </trkpt>
      <trkpt lat="43.77207" lon="7.12017">
        <ele>768</ele>
        <time>2011-06-20T09:23:28.000Z</time>
      </trkpt>
      <trkpt lat="43.77197" lon="7.12023">
        <ele>769</ele>
        <time>2011-06-20T09:23:35.000Z</time>
      </trkpt>
      <trkpt lat="43.77189" lon="7.1202">
        <ele>769.40002441406</ele>
        <time>2011-06-20T09:23:42.000Z</time>
      </trkpt>
      <trkpt lat="43.77183" lon="7.12022">
        <ele>770</ele>
        <time>2011-06-20T09:23:48.000Z</time>
      </trkpt>
      <trkpt lat="43.7718" lon="7.12021">
        <ele>770</ele>
        <time>2011-06-20T09:23:50.000Z</time>
      </trkpt>
      <trkpt lat="43.77174" lon="7.12029">
        <ele>770.79998779297</ele>
        <time>2011-06-20T09:23:56.000Z</time>
      </trkpt>
      <trkpt lat="43.77166" lon="7.12036">
        <ele>771.59997558594</ele>
        <time>2011-06-20T09:24:01.000Z</time>
      </trkpt>
      <trkpt lat="43.77164" lon="7.12036">
        <ele>771.79998779297</ele>
        <time>2011-06-20T09:24:02.000Z</time>
      </trkpt>
      <trkpt lat="43.7715" lon="7.12041">
        <ele>772.40002441406</ele>
        <time>2011-06-20T09:24:09.000Z</time>
      </trkpt>
      <trkpt lat="43.77137" lon="7.12054">
        <ele>773.59997558594</ele>
        <time>2011-06-20T09:24:16.000Z</time>
      </trkpt>
      <trkpt lat="43.77124" lon="7.12065">
        <ele>774.79998779297</ele>
        <time>2011-06-20T09:24:23.000Z</time>
      </trkpt>
      <trkpt lat="43.77118" lon="7.12068">
        <ele>775.20001220703</ele>
        <time>2011-06-20T09:24:26.000Z</time>
      </trkpt>
      <trkpt lat="43.77105" lon="7.1207">
        <ele>776</ele>
        <time>2011-06-20T09:24:32.000Z</time>
      </trkpt>
      <trkpt lat="43.77099" lon="7.12072">
        <ele>776.40002441406</ele>
        <time>2011-06-20T09:24:36.000Z</time>
      </trkpt>
      <trkpt lat="43.77089" lon="7.1207">
        <ele>776.59997558594</ele>
        <time>2011-06-20T09:24:41.000Z</time>
      </trkpt>
      <trkpt lat="43.77084" lon="7.12075">
        <ele>777.40002441406</ele>
        <time>2011-06-20T09:24:46.000Z</time>
      </trkpt>
      <trkpt lat="43.77081" lon="7.12074">
        <ele>777.20001220703</ele>
        <time>2011-06-20T09:24:50.000Z</time>
      </trkpt>
      <trkpt lat="43.77074" lon="7.12076">
        <ele>777.20001220703</ele>
        <time>2011-06-20T09:24:58.000Z</time>
      </trkpt>
      <trkpt lat="43.7707" lon="7.12077">
        <ele>777.20001220703</ele>
        <time>2011-06-20T09:25:01.000Z</time>
      </trkpt>
      <trkpt lat="43.77066" lon="7.12077">
        <ele>777.20001220703</ele>
        <time>2011-06-20T09:25:05.000Z</time>
      </trkpt>
      <trkpt lat="43.7706" lon="7.12077">
        <ele>777.20001220703</ele>
        <time>2011-06-20T09:25:12.000Z</time>
      </trkpt>
      <trkpt lat="43.77056" lon="7.12078">
        <ele>777.20001220703</ele>
        <time>2011-06-20T09:25:16.000Z</time>
      </trkpt>
      <trkpt lat="43.77053" lon="7.1208">
        <ele>777.20001220703</ele>
        <time>2011-06-20T09:25:21.000Z</time>
      </trkpt>
      <trkpt lat="43.7704" lon="7.12077">
        <ele>777</ele>
        <time>2011-06-20T09:25:27.000Z</time>
      </trkpt>
      <trkpt lat="43.77031" lon="7.12072">
        <ele>776.59997558594</ele>
        <time>2011-06-20T09:25:31.000Z</time>
      </trkpt>
      <trkpt lat="43.7703" lon="7.12071">
        <ele>776.40002441406</ele>
        <time>2011-06-20T09:25:32.000Z</time>
      </trkpt>
      <trkpt lat="43.7702" lon="7.12069">
        <ele>776.20001220703</ele>
        <time>2011-06-20T09:25:37.000Z</time>
      </trkpt>
      <trkpt lat="43.77012" lon="7.12069">
        <ele>776.20001220703</ele>
        <time>2011-06-20T09:25:40.000Z</time>
      </trkpt>
      <trkpt lat="43.77009" lon="7.12066">
        <ele>776</ele>
        <time>2011-06-20T09:25:42.000Z</time>
      </trkpt>
      <trkpt lat="43.77002" lon="7.12065">
        <ele>775.79998779297</ele>
        <time>2011-06-20T09:25:46.000Z</time>
      </trkpt>
      <trkpt lat="43.77002" lon="7.12069">
        <ele>776</ele>
        <time>2011-06-20T09:25:52.000Z</time>
      </trkpt>
      <trkpt lat="43.76999" lon="7.12068">
        <ele>776</ele>
        <time>2011-06-20T09:25:59.000Z</time>
      </trkpt>
      <trkpt lat="43.76996" lon="7.12068">
        <ele>775.79998779297</ele>
        <time>2011-06-20T09:26:03.000Z</time>
      </trkpt>
      <trkpt lat="43.76993" lon="7.12067">
        <ele>775.59997558594</ele>
        <time>2011-06-20T09:26:09.000Z</time>
      </trkpt>
      <trkpt lat="43.76989" lon="7.12068">
        <ele>775.59997558594</ele>
        <time>2011-06-20T09:26:16.000Z</time>
      </trkpt>
      <trkpt lat="43.76983" lon="7.12071">
        <ele>775.59997558594</ele>
        <time>2011-06-20T09:26:21.000Z</time>
      </trkpt>
      <trkpt lat="43.76978" lon="7.12073">
        <ele>775.59997558594</ele>
        <time>2011-06-20T09:26:26.000Z</time>
      </trkpt>
      <trkpt lat="43.76971" lon="7.12081">
        <ele>775.79998779297</ele>
        <time>2011-06-20T09:26:33.000Z</time>
      </trkpt>
      <trkpt lat="43.76971" lon="7.12082">
        <ele>775.79998779297</ele>
        <time>2011-06-20T09:26:34.000Z</time>
      </trkpt>
      <trkpt lat="43.76968" lon="7.12085">
        <ele>775.79998779297</ele>
        <time>2011-06-20T09:26:37.000Z</time>
      </trkpt>
      <trkpt lat="43.76964" lon="7.12089">
        <ele>775.59997558594</ele>
        <time>2011-06-20T09:26:42.000Z</time>
      </trkpt>
      <trkpt lat="43.76959" lon="7.12091">
        <ele>775.40002441406</ele>
        <time>2011-06-20T09:26:49.000Z</time>
      </trkpt>
      <trkpt lat="43.76956" lon="7.12093">
        <ele>775.40002441406</ele>
        <time>2011-06-20T09:26:52.000Z</time>
      </trkpt>
      <trkpt lat="43.76949" lon="7.12101">
        <ele>774.79998779297</ele>
        <time>2011-06-20T09:26:58.000Z</time>
      </trkpt>
      <trkpt lat="43.76947" lon="7.12106">
        <ele>774.59997558594</ele>
        <time>2011-06-20T09:27:02.000Z</time>
      </trkpt>
      <trkpt lat="43.76944" lon="7.12116">
        <ele>774.40002441406</ele>
        <time>2011-06-20T09:27:07.000Z</time>
      </trkpt>
      <trkpt lat="43.76938" lon="7.12133">
        <ele>773.59997558594</ele>
        <time>2011-06-20T09:27:14.000Z</time>
      </trkpt>
      <trkpt lat="43.76934" lon="7.12147">
        <ele>772.59997558594</ele>
        <time>2011-06-20T09:27:19.000Z</time>
      </trkpt>
      <trkpt lat="43.7693" lon="7.1216">
        <ele>772</ele>
        <time>2011-06-20T09:27:23.000Z</time>
      </trkpt>
      <trkpt lat="43.76928" lon="7.12166">
        <ele>771.40002441406</ele>
        <time>2011-06-20T09:27:25.000Z</time>
      </trkpt>
      <trkpt lat="43.7691" lon="7.12169">
        <ele>769.20001220703</ele>
        <time>2011-06-20T09:27:30.000Z</time>
      </trkpt>
      <trkpt lat="43.76901" lon="7.12169">
        <ele>768</ele>
        <time>2011-06-20T09:27:33.000Z</time>
      </trkpt>
      <trkpt lat="43.7688" lon="7.1218">
        <ele>765.40002441406</ele>
        <time>2011-06-20T09:27:39.000Z</time>
      </trkpt>
      <trkpt lat="43.76865" lon="7.12182">
        <ele>763.59997558594</ele>
        <time>2011-06-20T09:27:43.000Z</time>
      </trkpt>
      <trkpt lat="43.76848" lon="7.12177">
        <ele>761.59997558594</ele>
        <time>2011-06-20T09:27:47.000Z</time>
      </trkpt>
      <trkpt lat="43.76837" lon="7.12176">
        <ele>760.20001220703</ele>
        <time>2011-06-20T09:27:49.000Z</time>
      </trkpt>
      <trkpt lat="43.76821" lon="7.12175">
        <ele>758.79998779297</ele>
        <time>2011-06-20T09:27:53.000Z</time>
      </trkpt>
      <trkpt lat="43.76809" lon="7.12182">
        <ele>757.59997558594</ele>
        <time>2011-06-20T09:27:58.000Z</time>
      </trkpt>
      <trkpt lat="43.76796" lon="7.12194">
        <ele>756.20001220703</ele>
        <time>2011-06-20T09:28:02.000Z</time>
      </trkpt>
      <trkpt lat="43.76777" lon="7.12201">
        <ele>754.20001220703</ele>
        <time>2011-06-20T09:28:06.000Z</time>
      </trkpt>
      <trkpt lat="43.76755" lon="7.12216">
        <ele>751.59997558594</ele>
        <time>2011-06-20T09:28:11.000Z</time>
      </trkpt>
      <trkpt lat="43.76735" lon="7.12244">
        <ele>749.59997558594</ele>
        <time>2011-06-20T09:28:17.000Z</time>
      </trkpt>
      <trkpt lat="43.76722" lon="7.12245">
        <ele>749</ele>
        <time>2011-06-20T09:28:21.000Z</time>
      </trkpt>
      <trkpt lat="43.76718" lon="7.12244">
        <ele>748.79998779297</ele>
        <time>2011-06-20T09:28:22.000Z</time>
      </trkpt>
      <trkpt lat="43.76711" lon="7.12243">
        <ele>748.59997558594</ele>
        <time>2011-06-20T09:28:24.000Z</time>
      </trkpt>
      <trkpt lat="43.76692" lon="7.12232">
        <ele>747.79998779297</ele>
        <time>2011-06-20T09:28:28.000Z</time>
      </trkpt>
      <trkpt lat="43.76674" lon="7.12219">
        <ele>747</ele>
        <time>2011-06-20T09:28:32.000Z</time>
      </trkpt>
      <trkpt lat="43.76669" lon="7.12219">
        <ele>746.59997558594</ele>
        <time>2011-06-20T09:28:33.000Z</time>
      </trkpt>
      <trkpt lat="43.76655" lon="7.1222">
        <ele>745.20001220703</ele>
        <time>2011-06-20T09:28:36.000Z</time>
      </trkpt>
      <trkpt lat="43.76648" lon="7.12219">
        <ele>744.40002441406</ele>
        <time>2011-06-20T09:28:38.000Z</time>
      </trkpt>
      <trkpt lat="43.76641" lon="7.12218">
        <ele>743.59997558594</ele>
        <time>2011-06-20T09:28:40.000Z</time>
      </trkpt>
      <trkpt lat="43.76626" lon="7.12217">
        <ele>742</ele>
        <time>2011-06-20T09:28:45.000Z</time>
      </trkpt>
      <trkpt lat="43.76622" lon="7.12217">
        <ele>741.40002441406</ele>
        <time>2011-06-20T09:28:46.000Z</time>
      </trkpt>
      <trkpt lat="43.76597" lon="7.12212">
        <ele>738.59997558594</ele>
        <time>2011-06-20T09:28:51.000Z</time>
      </trkpt>
      <trkpt lat="43.7659" lon="7.12206">
        <ele>737.59997558594</ele>
        <time>2011-06-20T09:28:53.000Z</time>
      </trkpt>
      <trkpt lat="43.76573" lon="7.12209">
        <ele>735.59997558594</ele>
        <time>2011-06-20T09:28:57.000Z</time>
      </trkpt>
      <trkpt lat="43.76555" lon="7.12205">
        <ele>733.20001220703</ele>
        <time>2011-06-20T09:29:01.000Z</time>
      </trkpt>
      <trkpt lat="43.76537" lon="7.12206">
        <ele>731</ele>
        <time>2011-06-20T09:29:05.000Z</time>
      </trkpt>
      <trkpt lat="43.76524" lon="7.12212">
        <ele>729.59997558594</ele>
        <time>2011-06-20T09:29:08.000Z</time>
      </trkpt>
      <trkpt lat="43.76519" lon="7.12215">
        <ele>729.20001220703</ele>
        <time>2011-06-20T09:29:10.000Z</time>
      </trkpt>
      <trkpt lat="43.76492" lon="7.12223">
        <ele>726.59997558594</ele>
        <time>2011-06-20T09:29:16.000Z</time>
      </trkpt>
      <trkpt lat="43.76481" lon="7.1223">
        <ele>726.20001220703</ele>
        <time>2011-06-20T09:29:18.000Z</time>
      </trkpt>
      <trkpt lat="43.76466" lon="7.12244">
        <ele>726.20001220703</ele>
        <time>2011-06-20T09:29:22.000Z</time>
      </trkpt>
      <trkpt lat="43.76455" lon="7.12256">
        <ele>726.79998779297</ele>
        <time>2011-06-20T09:29:26.000Z</time>
      </trkpt>
      <trkpt lat="43.7645" lon="7.12263">
        <ele>727.20001220703</ele>
        <time>2011-06-20T09:29:30.000Z</time>
      </trkpt>
      <trkpt lat="43.76446" lon="7.12264">
        <ele>727</ele>
        <time>2011-06-20T09:29:47.000Z</time>
      </trkpt>
      <trkpt lat="43.76445" lon="7.12269">
        <ele>727.40002441406</ele>
        <time>2011-06-20T09:29:52.000Z</time>
      </trkpt>
      <trkpt lat="43.76447" lon="7.1228">
        <ele>728.59997558594</ele>
        <time>2011-06-20T09:30:07.000Z</time>
      </trkpt>
      <trkpt lat="43.7645" lon="7.12285">
        <ele>729.20001220703</ele>
        <time>2011-06-20T09:30:14.000Z</time>
      </trkpt>
      <trkpt lat="43.76448" lon="7.1229">
        <ele>729.59997558594</ele>
        <time>2011-06-20T09:30:19.000Z</time>
      </trkpt>
      <trkpt lat="43.76445" lon="7.12299">
        <ele>730.20001220703</ele>
        <time>2011-06-20T09:30:25.000Z</time>
      </trkpt>
      <trkpt lat="43.76445" lon="7.12309">
        <ele>731</ele>
        <time>2011-06-20T09:30:34.000Z</time>
      </trkpt>
      <trkpt lat="43.76444" lon="7.12317">
        <ele>731.59997558594</ele>
        <time>2011-06-20T09:30:40.000Z</time>
      </trkpt>
      <trkpt lat="43.76437" lon="7.12326">
        <ele>731.79998779297</ele>
        <time>2011-06-20T09:30:47.000Z</time>
      </trkpt>
      <trkpt lat="43.76436" lon="7.12327">
        <ele>731.59997558594</ele>
        <time>2011-06-20T09:30:48.000Z</time>
      </trkpt>
      <trkpt lat="43.76427" lon="7.12331">
        <ele>731</ele>
        <time>2011-06-20T09:30:57.000Z</time>
      </trkpt>
      <trkpt lat="43.76422" lon="7.12332">
        <ele>730.40002441406</ele>
        <time>2011-06-20T09:31:02.000Z</time>
      </trkpt>
      <trkpt lat="43.7641" lon="7.1233">
        <ele>728.79998779297</ele>
        <time>2011-06-20T09:31:07.000Z</time>
      </trkpt>
      <trkpt lat="43.76391" lon="7.12333">
        <ele>726.40002441406</ele>
        <time>2011-06-20T09:31:13.000Z</time>
      </trkpt>
      <trkpt lat="43.76388" lon="7.12333">
        <ele>726</ele>
        <time>2011-06-20T09:31:14.000Z</time>
      </trkpt>
      <trkpt lat="43.76374" lon="7.12331">
        <ele>724.20001220703</ele>
        <time>2011-06-20T09:31:19.000Z</time>
      </trkpt>
      <trkpt lat="43.76357" lon="7.12327">
        <ele>722</ele>
        <time>2011-06-20T09:31:24.000Z</time>
      </trkpt>
      <trkpt lat="43.76339" lon="7.12323">
        <ele>719.79998779297</ele>
        <time>2011-06-20T09:31:30.000Z</time>
      </trkpt>
      <trkpt lat="43.76323" lon="7.12319">
        <ele>717.79998779297</ele>
        <time>2011-06-20T09:31:36.000Z</time>
      </trkpt>
      <trkpt lat="43.7631" lon="7.12314">
        <ele>716.40002441406</ele>
        <time>2011-06-20T09:31:42.000Z</time>
      </trkpt>
      <trkpt lat="43.76305" lon="7.12314">
        <ele>715.79998779297</ele>
        <time>2011-06-20T09:31:46.000Z</time>
      </trkpt>
      <trkpt lat="43.76293" lon="7.12315">
        <ele>714.20001220703</ele>
        <time>2011-06-20T09:31:52.000Z</time>
      </trkpt>
      <trkpt lat="43.76278" lon="7.12314">
        <ele>712.59997558594</ele>
        <time>2011-06-20T09:31:58.000Z</time>
      </trkpt>
      <trkpt lat="43.76268" lon="7.12316">
        <ele>711.40002441406</ele>
        <time>2011-06-20T09:32:02.000Z</time>
      </trkpt>
      <trkpt lat="43.76254" lon="7.12312">
        <ele>709.59997558594</ele>
        <time>2011-06-20T09:32:08.000Z</time>
      </trkpt>
      <trkpt lat="43.76235" lon="7.12314">
        <ele>706.59997558594</ele>
        <time>2011-06-20T09:32:14.000Z</time>
      </trkpt>
      <trkpt lat="43.76223" lon="7.12316">
        <ele>704.79998779297</ele>
        <time>2011-06-20T09:32:18.000Z</time>
      </trkpt>
      <trkpt lat="43.76206" lon="7.12317">
        <ele>702.20001220703</ele>
        <time>2011-06-20T09:32:23.000Z</time>
      </trkpt>
      <trkpt lat="43.76188" lon="7.12319">
        <ele>699.59997558594</ele>
        <time>2011-06-20T09:32:29.000Z</time>
      </trkpt>
      <trkpt lat="43.76187" lon="7.12319">
        <ele>699.40002441406</ele>
        <time>2011-06-20T09:32:34.000Z</time>
      </trkpt>
      <trkpt lat="43.76183" lon="7.12319">
        <ele>698.79998779297</ele>
        <time>2011-06-20T09:32:39.000Z</time>
      </trkpt>
      <trkpt lat="43.76178" lon="7.12319">
        <ele>698.20001220703</ele>
        <time>2011-06-20T09:32:45.000Z</time>
      </trkpt>
      <trkpt lat="43.76171" lon="7.12321">
        <ele>697.40002441406</ele>
        <time>2011-06-20T09:32:52.000Z</time>
      </trkpt>
      <trkpt lat="43.76162" lon="7.12323">
        <ele>696.40002441406</ele>
        <time>2011-06-20T09:32:59.000Z</time>
      </trkpt>
      <trkpt lat="43.76158" lon="7.12325">
        <ele>695.59997558594</ele>
        <time>2011-06-20T09:33:05.000Z</time>
      </trkpt>
      <trkpt lat="43.76155" lon="7.12324">
        <ele>694.79998779297</ele>
        <time>2011-06-20T09:33:12.000Z</time>
      </trkpt>
      <trkpt lat="43.7615" lon="7.12327">
        <ele>694.20001220703</ele>
        <time>2011-06-20T09:33:18.000Z</time>
      </trkpt>
      <trkpt lat="43.76147" lon="7.12328">
        <ele>693.59997558594</ele>
        <time>2011-06-20T09:33:24.000Z</time>
      </trkpt>
      <trkpt lat="43.76146" lon="7.12329">
        <ele>693.59997558594</ele>
        <time>2011-06-20T09:33:33.000Z</time>
      </trkpt>
      <trkpt lat="43.76146" lon="7.12329">
        <ele>693.79998779297</ele>
        <time>2011-06-20T09:33:43.000Z</time>
      </trkpt>
      <trkpt lat="43.76147" lon="7.12329">
        <ele>694</ele>
        <time>2011-06-20T09:33:55.000Z</time>
      </trkpt>
      <trkpt lat="43.76148" lon="7.12328">
        <ele>694.20001220703</ele>
        <time>2011-06-20T09:34:03.000Z</time>
      </trkpt>
      <trkpt lat="43.76149" lon="7.12328">
        <ele>694.40002441406</ele>
        <time>2011-06-20T09:34:11.000Z</time>
      </trkpt>
      <trkpt lat="43.76151" lon="7.12327">
        <ele>694.40002441406</ele>
        <time>2011-06-20T09:34:31.000Z</time>
      </trkpt>
      <trkpt lat="43.76151" lon="7.12326">
        <ele>694.20001220703</ele>
        <time>2011-06-20T09:34:42.000Z</time>
      </trkpt>
      <trkpt lat="43.76148" lon="7.12327">
        <ele>693.79998779297</ele>
        <time>2011-06-20T09:34:51.000Z</time>
      </trkpt>
      <trkpt lat="43.7615" lon="7.12329">
        <ele>694.79998779297</ele>
        <time>2011-06-20T09:34:57.000Z</time>
      </trkpt>
      <trkpt lat="43.76148" lon="7.12333">
        <ele>695.40002441406</ele>
        <time>2011-06-20T09:35:04.000Z</time>
      </trkpt>
      <trkpt lat="43.76146" lon="7.1234">
        <ele>692.79998779297</ele>
        <time>2011-06-20T09:35:11.000Z</time>
      </trkpt>
      <trkpt lat="43.76148" lon="7.12341">
        <ele>693.20001220703</ele>
        <time>2011-06-20T09:35:16.000Z</time>
      </trkpt>
      <trkpt lat="43.76151" lon="7.1234">
        <ele>694</ele>
        <time>2011-06-20T09:35:23.000Z</time>
      </trkpt>
      <trkpt lat="43.76155" lon="7.12343">
        <ele>694.20001220703</ele>
        <time>2011-06-20T09:35:28.000Z</time>
      </trkpt>
      <trkpt lat="43.76159" lon="7.12347">
        <ele>694.20001220703</ele>
        <time>2011-06-20T09:35:35.000Z</time>
      </trkpt>
      <trkpt lat="43.76164" lon="7.12348">
        <ele>694.79998779297</ele>
        <time>2011-06-20T09:35:42.000Z</time>
      </trkpt>
      <trkpt lat="43.76165" lon="7.12348">
        <ele>695.20001220703</ele>
        <time>2011-06-20T09:35:51.000Z</time>
      </trkpt>
      <trkpt lat="43.76175" lon="7.12356">
        <ele>694.20001220703</ele>
        <time>2011-06-20T09:35:57.000Z</time>
      </trkpt>
      <trkpt lat="43.76185" lon="7.12362">
        <ele>694.40002441406</ele>
        <time>2011-06-20T09:36:03.000Z</time>
      </trkpt>
      <trkpt lat="43.76187" lon="7.12366">
        <ele>693.40002441406</ele>
        <time>2011-06-20T09:36:08.000Z</time>
      </trkpt>
      <trkpt lat="43.76187" lon="7.12373">
        <ele>691.59997558594</ele>
        <time>2011-06-20T09:36:14.000Z</time>
      </trkpt>
      <trkpt lat="43.76189" lon="7.12377">
        <ele>691</ele>
        <time>2011-06-20T09:36:19.000Z</time>
      </trkpt>
      <trkpt lat="43.76191" lon="7.1238">
        <ele>690.40002441406</ele>
        <time>2011-06-20T09:36:24.000Z</time>
      </trkpt>
      <trkpt lat="43.76192" lon="7.12386">
        <ele>689.20001220703</ele>
        <time>2011-06-20T09:36:29.000Z</time>
      </trkpt>
      <trkpt lat="43.76192" lon="7.12391">
        <ele>687.79998779297</ele>
        <time>2011-06-20T09:36:36.000Z</time>
      </trkpt>
      <trkpt lat="43.76196" lon="7.12393">
        <ele>688</ele>
        <time>2011-06-20T09:36:40.000Z</time>
      </trkpt>
      <trkpt lat="43.762" lon="7.124">
        <ele>687.20001220703</ele>
        <time>2011-06-20T09:36:46.000Z</time>
      </trkpt>
      <trkpt lat="43.76204" lon="7.12405">
        <ele>686.59997558594</ele>
        <time>2011-06-20T09:36:53.000Z</time>
      </trkpt>
      <trkpt lat="43.76205" lon="7.1241">
        <ele>685.79998779297</ele>
        <time>2011-06-20T09:37:00.000Z</time>
      </trkpt>
      <trkpt lat="43.76203" lon="7.12409">
        <ele>685.40002441406</ele>
        <time>2011-06-20T09:37:06.000Z</time>
      </trkpt>
      <trkpt lat="43.762" lon="7.12413">
        <ele>684</ele>
        <time>2011-06-20T09:37:11.000Z</time>
      </trkpt>
      <trkpt lat="43.76197" lon="7.12413">
        <ele>683.20001220703</ele>
        <time>2011-06-20T09:37:17.000Z</time>
      </trkpt>
      <trkpt lat="43.76194" lon="7.12412">
        <ele>682.79998779297</ele>
        <time>2011-06-20T09:37:25.000Z</time>
      </trkpt>
      <trkpt lat="43.76181" lon="7.12409">
        <ele>680.59997558594</ele>
        <time>2011-06-20T09:37:31.000Z</time>
      </trkpt>
      <trkpt lat="43.76173" lon="7.12408">
        <ele>679</ele>
        <time>2011-06-20T09:37:36.000Z</time>
      </trkpt>
      <trkpt lat="43.76172" lon="7.12408">
        <ele>678.59997558594</ele>
        <time>2011-06-20T09:37:38.000Z</time>
      </trkpt>
      <trkpt lat="43.76161" lon="7.12406">
        <ele>676.79998779297</ele>
        <time>2011-06-20T09:37:44.000Z</time>
      </trkpt>
      <trkpt lat="43.76146" lon="7.12405">
        <ele>673.40002441406</ele>
        <time>2011-06-20T09:37:50.000Z</time>
      </trkpt>
      <trkpt lat="43.76146" lon="7.12409">
        <ele>672</ele>
        <time>2011-06-20T09:37:53.000Z</time>
      </trkpt>
      <trkpt lat="43.76156" lon="7.12411">
        <ele>674</ele>
        <time>2011-06-20T09:37:58.000Z</time>
      </trkpt>
      <trkpt lat="43.7616" lon="7.12415">
        <ele>674</ele>
        <time>2011-06-20T09:38:01.000Z</time>
      </trkpt>
      <trkpt lat="43.76174" lon="7.12429">
        <ele>671.59997558594</ele>
        <time>2011-06-20T09:38:07.000Z</time>
      </trkpt>
      <trkpt lat="43.76176" lon="7.12431">
        <ele>671.20001220703</ele>
        <time>2011-06-20T09:38:08.000Z</time>
      </trkpt>
      <trkpt lat="43.76177" lon="7.12437">
        <ele>669.40002441406</ele>
        <time>2011-06-20T09:38:11.000Z</time>
      </trkpt>
      <trkpt lat="43.76176" lon="7.12437">
        <ele>669</ele>
        <time>2011-06-20T09:38:14.000Z</time>
      </trkpt>
      <trkpt lat="43.76164" lon="7.12433">
        <ele>667.20001220703</ele>
        <time>2011-06-20T09:38:19.000Z</time>
      </trkpt>
      <trkpt lat="43.76151" lon="7.12435">
        <ele>663.40002441406</ele>
        <time>2011-06-20T09:38:24.000Z</time>
      </trkpt>
      <trkpt lat="43.76151" lon="7.12436">
        <ele>663.20001220703</ele>
        <time>2011-06-20T09:38:27.000Z</time>
      </trkpt>
      <trkpt lat="43.76154" lon="7.12437">
        <ele>663.20001220703</ele>
        <time>2011-06-20T09:38:30.000Z</time>
      </trkpt>
      <trkpt lat="43.76165" lon="7.12443">
        <ele>663.59997558594</ele>
        <time>2011-06-20T09:38:35.000Z</time>
      </trkpt>
      <trkpt lat="43.76165" lon="7.12445">
        <ele>662.79998779297</ele>
        <time>2011-06-20T09:38:38.000Z</time>
      </trkpt>
      <trkpt lat="43.7616" lon="7.12445">
        <ele>661.59997558594</ele>
        <time>2011-06-20T09:38:45.000Z</time>
      </trkpt>
      <trkpt lat="43.76151" lon="7.12446">
        <ele>658.59997558594</ele>
        <time>2011-06-20T09:38:49.000Z</time>
      </trkpt>
      <trkpt lat="43.76136" lon="7.12444">
        <ele>655.59997558594</ele>
        <time>2011-06-20T09:38:54.000Z</time>
      </trkpt>
      <trkpt lat="43.76119" lon="7.12437">
        <ele>654.40002441406</ele>
        <time>2011-06-20T09:38:58.000Z</time>
      </trkpt>
      <trkpt lat="43.76113" lon="7.12436">
        <ele>653.40002441406</ele>
        <time>2011-06-20T09:39:01.000Z</time>
      </trkpt>
      <trkpt lat="43.7611" lon="7.12438">
        <ele>652</ele>
        <time>2011-06-20T09:39:06.000Z</time>
      </trkpt>
      <trkpt lat="43.76114" lon="7.12439">
        <ele>652.40002441406</ele>
        <time>2011-06-20T09:39:11.000Z</time>
      </trkpt>
      <trkpt lat="43.76117" lon="7.12442">
        <ele>652</ele>
        <time>2011-06-20T09:39:15.000Z</time>
      </trkpt>
      <trkpt lat="43.7613" lon="7.12452">
        <ele>650.79998779297</ele>
        <time>2011-06-20T09:39:22.000Z</time>
      </trkpt>
      <trkpt lat="43.76137" lon="7.12458">
        <ele>650</ele>
        <time>2011-06-20T09:39:27.000Z</time>
      </trkpt>
      <trkpt lat="43.76138" lon="7.1246">
        <ele>649.59997558594</ele>
        <time>2011-06-20T09:39:29.000Z</time>
      </trkpt>
      <trkpt lat="43.76136" lon="7.12463">
        <ele>647.59997558594</ele>
        <time>2011-06-20T09:39:36.000Z</time>
      </trkpt>
      <trkpt lat="43.76133" lon="7.12464">
        <ele>646.40002441406</ele>
        <time>2011-06-20T09:39:41.000Z</time>
      </trkpt>
      <trkpt lat="43.7613" lon="7.12466">
        <ele>645</ele>
        <time>2011-06-20T09:39:48.000Z</time>
      </trkpt>
      <trkpt lat="43.76132" lon="7.1247">
        <ele>643.59997558594</ele>
        <time>2011-06-20T09:39:54.000Z</time>
      </trkpt>
      <trkpt lat="43.76133" lon="7.12477">
        <ele>641</ele>
        <time>2011-06-20T09:40:00.000Z</time>
      </trkpt>
      <trkpt lat="43.76135" lon="7.12485">
        <ele>638.20001220703</ele>
        <time>2011-06-20T09:40:07.000Z</time>
      </trkpt>
      <trkpt lat="43.76137" lon="7.12488">
        <ele>637.40002441406</ele>
        <time>2011-06-20T09:40:13.000Z</time>
      </trkpt>
      <trkpt lat="43.76137" lon="7.12488">
        <ele>637.40002441406</ele>
        <time>2011-06-20T09:40:22.000Z</time>
      </trkpt>
      <trkpt lat="43.76147" lon="7.12501">
        <ele>634.40002441406</ele>
        <time>2011-06-20T09:40:27.000Z</time>
      </trkpt>
      <trkpt lat="43.76158" lon="7.12509">
        <ele>634.79998779297</ele>
        <time>2011-06-20T09:40:31.000Z</time>
      </trkpt>
      <trkpt lat="43.76162" lon="7.1252">
        <ele>631.79998779297</ele>
        <time>2011-06-20T09:40:35.000Z</time>
      </trkpt>
      <trkpt lat="43.76163" lon="7.12536">
        <ele>627.20001220703</ele>
        <time>2011-06-20T09:40:42.000Z</time>
      </trkpt>
      <trkpt lat="43.76162" lon="7.1254">
        <ele>625.59997558594</ele>
        <time>2011-06-20T09:40:48.000Z</time>
      </trkpt>
      <trkpt lat="43.7616" lon="7.12543">
        <ele>624</ele>
        <time>2011-06-20T09:40:53.000Z</time>
      </trkpt>
      <trkpt lat="43.76158" lon="7.12546">
        <ele>622</ele>
        <time>2011-06-20T09:40:59.000Z</time>
      </trkpt>
      <trkpt lat="43.76158" lon="7.12547">
        <ele>621.79998779297</ele>
        <time>2011-06-20T09:41:00.000Z</time>
      </trkpt>
      <trkpt lat="43.76163" lon="7.12562">
        <ele>618.59997558594</ele>
        <time>2011-06-20T09:41:05.000Z</time>
      </trkpt>
      <trkpt lat="43.76168" lon="7.12574">
        <ele>616.59997558594</ele>
        <time>2011-06-20T09:41:10.000Z</time>
      </trkpt>
      <trkpt lat="43.76171" lon="7.12579">
        <ele>616</ele>
        <time>2011-06-20T09:41:14.000Z</time>
      </trkpt>
      <trkpt lat="43.76171" lon="7.1258">
        <ele>615.40002441406</ele>
        <time>2011-06-20T09:41:16.000Z</time>
      </trkpt>
      <trkpt lat="43.76166" lon="7.12579">
        <ele>614</ele>
        <time>2011-06-20T09:41:21.000Z</time>
      </trkpt>
      <trkpt lat="43.76153" lon="7.12574">
        <ele>611.20001220703</ele>
        <time>2011-06-20T09:41:26.000Z</time>
      </trkpt>
      <trkpt lat="43.76147" lon="7.1257">
        <ele>610.59997558594</ele>
        <time>2011-06-20T09:41:28.000Z</time>
      </trkpt>
      <trkpt lat="43.76142" lon="7.12569">
        <ele>608.79998779297</ele>
        <time>2011-06-20T09:41:31.000Z</time>
      </trkpt>
      <trkpt lat="43.76146" lon="7.12581">
        <ele>606</ele>
        <time>2011-06-20T09:41:35.000Z</time>
      </trkpt>
      <trkpt lat="43.76147" lon="7.1259">
        <ele>605.79998779297</ele>
        <time>2011-06-20T09:41:37.000Z</time>
      </trkpt>
      <trkpt lat="43.76137" lon="7.12598">
        <ele>601.79998779297</ele>
        <time>2011-06-20T09:41:41.000Z</time>
      </trkpt>
      <trkpt lat="43.76123" lon="7.12608">
        <ele>595.79998779297</ele>
        <time>2011-06-20T09:41:47.000Z</time>
      </trkpt>
      <trkpt lat="43.76118" lon="7.12619">
        <ele>593.59997558594</ele>
        <time>2011-06-20T09:41:50.000Z</time>
      </trkpt>
      <trkpt lat="43.76117" lon="7.12622">
        <ele>593.20001220703</ele>
        <time>2011-06-20T09:41:53.000Z</time>
      </trkpt>
      <trkpt lat="43.76117" lon="7.12623">
        <ele>592.79998779297</ele>
        <time>2011-06-20T09:41:55.000Z</time>
      </trkpt>
      <trkpt lat="43.76115" lon="7.12634">
        <ele>591.59997558594</ele>
        <time>2011-06-20T09:42:00.000Z</time>
      </trkpt>
      <trkpt lat="43.76119" lon="7.12644">
        <ele>592.59997558594</ele>
        <time>2011-06-20T09:42:03.000Z</time>
      </trkpt>
      <trkpt lat="43.76121" lon="7.12661">
        <ele>592.59997558594</ele>
        <time>2011-06-20T09:42:07.000Z</time>
      </trkpt>
      <trkpt lat="43.76121" lon="7.12671">
        <ele>593</ele>
        <time>2011-06-20T09:42:11.000Z</time>
      </trkpt>
      <trkpt lat="43.76117" lon="7.12689">
        <ele>594.79998779297</ele>
        <time>2011-06-20T09:42:15.000Z</time>
      </trkpt>
      <trkpt lat="43.76112" lon="7.1271">
        <ele>596.40002441406</ele>
        <time>2011-06-20T09:42:19.000Z</time>
      </trkpt>
      <trkpt lat="43.76112" lon="7.12714">
        <ele>597.20001220703</ele>
        <time>2011-06-20T09:42:20.000Z</time>
      </trkpt>
      <trkpt lat="43.76105" lon="7.12724">
        <ele>595.79998779297</ele>
        <time>2011-06-20T09:42:24.000Z</time>
      </trkpt>
      <trkpt lat="43.76083" lon="7.12736">
        <ele>588.40002441406</ele>
        <time>2011-06-20T09:42:30.000Z</time>
      </trkpt>
      <trkpt lat="43.76079" lon="7.12739">
        <ele>587.79998779297</ele>
        <time>2011-06-20T09:42:32.000Z</time>
      </trkpt>
      <trkpt lat="43.76074" lon="7.12737">
        <ele>585.59997558594</ele>
        <time>2011-06-20T09:42:36.000Z</time>
      </trkpt>
      <trkpt lat="43.76065" lon="7.12741">
        <ele>583.40002441406</ele>
        <time>2011-06-20T09:42:41.000Z</time>
      </trkpt>
      <trkpt lat="43.76056" lon="7.12747">
        <ele>581.79998779297</ele>
        <time>2011-06-20T09:42:45.000Z</time>
      </trkpt>
      <trkpt lat="43.76055" lon="7.12748">
        <ele>581.59997558594</ele>
        <time>2011-06-20T09:42:46.000Z</time>
      </trkpt>
      <trkpt lat="43.76047" lon="7.1275">
        <ele>579.40002441406</ele>
        <time>2011-06-20T09:42:50.000Z</time>
      </trkpt>
      <trkpt lat="43.76049" lon="7.12743">
        <ele>578.59997558594</ele>
        <time>2011-06-20T09:42:54.000Z</time>
      </trkpt>
      <trkpt lat="43.76056" lon="7.12732">
        <ele>578.79998779297</ele>
        <time>2011-06-20T09:43:00.000Z</time>
      </trkpt>
      <trkpt lat="43.76055" lon="7.12732">
        <ele>578.59997558594</ele>
        <time>2011-06-20T09:43:01.000Z</time>
      </trkpt>
      <trkpt lat="43.76054" lon="7.12731">
        <ele>578</ele>
        <time>2011-06-20T09:43:04.000Z</time>
      </trkpt>
      <trkpt lat="43.76044" lon="7.12731">
        <ele>574.59997558594</ele>
        <time>2011-06-20T09:43:09.000Z</time>
      </trkpt>
      <trkpt lat="43.76044" lon="7.12724">
        <ele>573.20001220703</ele>
        <time>2011-06-20T09:43:12.000Z</time>
      </trkpt>
      <trkpt lat="43.76046" lon="7.1272">
        <ele>572.79998779297</ele>
        <time>2011-06-20T09:43:13.000Z</time>
      </trkpt>
      <trkpt lat="43.76049" lon="7.12708">
        <ele>571.59997558594</ele>
        <time>2011-06-20T09:43:18.000Z</time>
      </trkpt>
      <trkpt lat="43.76049" lon="7.12707">
        <ele>571.40002441406</ele>
        <time>2011-06-20T09:43:20.000Z</time>
      </trkpt>
      <trkpt lat="43.76044" lon="7.12703">
        <ele>568.59997558594</ele>
        <time>2011-06-20T09:43:25.000Z</time>
      </trkpt>
      <trkpt lat="43.76034" lon="7.12712">
        <ele>566.79998779297</ele>
        <time>2011-06-20T09:43:29.000Z</time>
      </trkpt>
      <trkpt lat="43.7603" lon="7.1271">
        <ele>565.20001220703</ele>
        <time>2011-06-20T09:43:32.000Z</time>
      </trkpt>
      <trkpt lat="43.76031" lon="7.12702">
        <ele>563.59997558594</ele>
        <time>2011-06-20T09:43:36.000Z</time>
      </trkpt>
      <trkpt lat="43.7602" lon="7.12706">
        <ele>560.40002441406</ele>
        <time>2011-06-20T09:43:40.000Z</time>
      </trkpt>
      <trkpt lat="43.76009" lon="7.12713">
        <ele>558.40002441406</ele>
        <time>2011-06-20T09:43:44.000Z</time>
      </trkpt>
      <trkpt lat="43.76006" lon="7.12709">
        <ele>556.40002441406</ele>
        <time>2011-06-20T09:43:47.000Z</time>
      </trkpt>
      <trkpt lat="43.7601" lon="7.12704">
        <ele>556.40002441406</ele>
        <time>2011-06-20T09:43:49.000Z</time>
      </trkpt>
      <trkpt lat="43.76006" lon="7.127">
        <ele>554</ele>
        <time>2011-06-20T09:43:53.000Z</time>
      </trkpt>
      <trkpt lat="43.76" lon="7.12706">
        <ele>553.40002441406</ele>
        <time>2011-06-20T09:43:56.000Z</time>
      </trkpt>
      <trkpt lat="43.75997" lon="7.12707">
        <ele>552.59997558594</ele>
        <time>2011-06-20T09:44:01.000Z</time>
      </trkpt>
      <trkpt lat="43.75998" lon="7.12703">
        <ele>551.79998779297</ele>
        <time>2011-06-20T09:44:09.000Z</time>
      </trkpt>
      <trkpt lat="43.75998" lon="7.127">
        <ele>550.79998779297</ele>
        <time>2011-06-20T09:44:13.000Z</time>
      </trkpt>
      <trkpt lat="43.7599" lon="7.12702">
        <ele>549</ele>
        <time>2011-06-20T09:44:18.000Z</time>
      </trkpt>
      <trkpt lat="43.75984" lon="7.12699">
        <ele>546.40002441406</ele>
        <time>2011-06-20T09:44:22.000Z</time>
      </trkpt>
      <trkpt lat="43.7598" lon="7.12697">
        <ele>544.59997558594</ele>
        <time>2011-06-20T09:44:24.000Z</time>
      </trkpt>
      <trkpt lat="43.75979" lon="7.12689">
        <ele>542</ele>
        <time>2011-06-20T09:44:29.000Z</time>
      </trkpt>
      <trkpt lat="43.75981" lon="7.12685">
        <ele>541.59997558594</ele>
        <time>2011-06-20T09:44:31.000Z</time>
      </trkpt>
      <trkpt lat="43.75979" lon="7.12674">
        <ele>537.59997558594</ele>
        <time>2011-06-20T09:44:36.000Z</time>
      </trkpt>
      <trkpt lat="43.75969" lon="7.12678">
        <ele>535.59997558594</ele>
        <time>2011-06-20T09:44:40.000Z</time>
      </trkpt>
      <trkpt lat="43.75965" lon="7.12677">
        <ele>533.59997558594</ele>
        <time>2011-06-20T09:44:44.000Z</time>
      </trkpt>
      <trkpt lat="43.75967" lon="7.12673">
        <ele>533</ele>
        <time>2011-06-20T09:44:46.000Z</time>
      </trkpt>
      <trkpt lat="43.7597" lon="7.12662">
        <ele>532.79998779297</ele>
        <time>2011-06-20T09:44:51.000Z</time>
      </trkpt>
      <trkpt lat="43.75965" lon="7.12663">
        <ele>531</ele>
        <time>2011-06-20T09:44:54.000Z</time>
      </trkpt>
      <trkpt lat="43.75957" lon="7.12664">
        <ele>528</ele>
        <time>2011-06-20T09:44:58.000Z</time>
      </trkpt>
      <trkpt lat="43.75955" lon="7.12658">
        <ele>527.20001220703</ele>
        <time>2011-06-20T09:45:03.000Z</time>
      </trkpt>
      <trkpt lat="43.75951" lon="7.12652">
        <ele>525.59997558594</ele>
        <time>2011-06-20T09:45:07.000Z</time>
      </trkpt>
      <trkpt lat="43.75943" lon="7.12658">
        <ele>523</ele>
        <time>2011-06-20T09:45:11.000Z</time>
      </trkpt>
      <trkpt lat="43.75938" lon="7.12653">
        <ele>521</ele>
        <time>2011-06-20T09:45:15.000Z</time>
      </trkpt>
      <trkpt lat="43.75933" lon="7.12651">
        <ele>519</ele>
        <time>2011-06-20T09:45:18.000Z</time>
      </trkpt>
      <trkpt lat="43.75934" lon="7.12642">
        <ele>519</ele>
        <time>2011-06-20T09:45:21.000Z</time>
      </trkpt>
      <trkpt lat="43.75936" lon="7.12638">
        <ele>519.79998779297</ele>
        <time>2011-06-20T09:45:23.000Z</time>
      </trkpt>
      <trkpt lat="43.75933" lon="7.12632">
        <ele>518.20001220703</ele>
        <time>2011-06-20T09:45:27.000Z</time>
      </trkpt>
      <trkpt lat="43.75927" lon="7.12629">
        <ele>515.40002441406</ele>
        <time>2011-06-20T09:45:31.000Z</time>
      </trkpt>
      <trkpt lat="43.75924" lon="7.12618">
        <ele>513.59997558594</ele>
        <time>2011-06-20T09:45:35.000Z</time>
      </trkpt>
      <trkpt lat="43.75914" lon="7.12621">
        <ele>509.60000610352</ele>
        <time>2011-06-20T09:45:39.000Z</time>
      </trkpt>
      <trkpt lat="43.75904" lon="7.1262">
        <ele>506.20001220703</ele>
        <time>2011-06-20T09:45:43.000Z</time>
      </trkpt>
      <trkpt lat="43.75891" lon="7.1262">
        <ele>501.60000610352</ele>
        <time>2011-06-20T09:45:47.000Z</time>
      </trkpt>
      <trkpt lat="43.7588" lon="7.12617">
        <ele>497.39999389648</ele>
        <time>2011-06-20T09:45:51.000Z</time>
      </trkpt>
      <trkpt lat="43.75873" lon="7.12614">
        <ele>494.60000610352</ele>
        <time>2011-06-20T09:45:55.000Z</time>
      </trkpt>
      <trkpt lat="43.7586" lon="7.12616">
        <ele>490</ele>
        <time>2011-06-20T09:46:00.000Z</time>
      </trkpt>
      <trkpt lat="43.75846" lon="7.12619">
        <ele>486</ele>
        <time>2011-06-20T09:46:05.000Z</time>
      </trkpt>
      <trkpt lat="43.75837" lon="7.12625">
        <ele>484.20001220703</ele>
        <time>2011-06-20T09:46:09.000Z</time>
      </trkpt>
      <trkpt lat="43.75827" lon="7.1264">
        <ele>484.79998779297</ele>
        <time>2011-06-20T09:46:13.000Z</time>
      </trkpt>
      <trkpt lat="43.75818" lon="7.1264">
        <ele>482.79998779297</ele>
        <time>2011-06-20T09:46:16.000Z</time>
      </trkpt>
      <trkpt lat="43.75811" lon="7.12639">
        <ele>481</ele>
        <time>2011-06-20T09:46:18.000Z</time>
      </trkpt>
      <trkpt lat="43.75797" lon="7.12636">
        <ele>476.79998779297</ele>
        <time>2011-06-20T09:46:24.000Z</time>
      </trkpt>
      <trkpt lat="43.75783" lon="7.12635">
        <ele>473.20001220703</ele>
        <time>2011-06-20T09:46:28.000Z</time>
      </trkpt>
      <trkpt lat="43.75764" lon="7.12631">
        <ele>467.39999389648</ele>
        <time>2011-06-20T09:46:34.000Z</time>
      </trkpt>
      <trkpt lat="43.75761" lon="7.12628">
        <ele>465.60000610352</ele>
        <time>2011-06-20T09:46:37.000Z</time>
      </trkpt>
      <trkpt lat="43.75761" lon="7.12625">
        <ele>464.39999389648</ele>
        <time>2011-06-20T09:46:45.000Z</time>
      </trkpt>
      <trkpt lat="43.75765" lon="7.1262">
        <ele>463.39999389648</ele>
        <time>2011-06-20T09:46:48.000Z</time>
      </trkpt>
      <trkpt lat="43.75756" lon="7.12617">
        <ele>459.60000610352</ele>
        <time>2011-06-20T09:46:53.000Z</time>
      </trkpt>
      <trkpt lat="43.75753" lon="7.12617">
        <ele>458.79998779297</ele>
        <time>2011-06-20T09:46:54.000Z</time>
      </trkpt>
      <trkpt lat="43.75753" lon="7.12612">
        <ele>457</ele>
        <time>2011-06-20T09:46:58.000Z</time>
      </trkpt>
      <trkpt lat="43.75767" lon="7.12599">
        <ele>456</ele>
        <time>2011-06-20T09:47:03.000Z</time>
      </trkpt>
      <trkpt lat="43.75768" lon="7.12597">
        <ele>455.60000610352</ele>
        <time>2011-06-20T09:47:04.000Z</time>
      </trkpt>
      <trkpt lat="43.75772" lon="7.12593">
        <ele>455.39999389648</ele>
        <time>2011-06-20T09:47:06.000Z</time>
      </trkpt>
      <trkpt lat="43.75781" lon="7.12579">
        <ele>454.79998779297</ele>
        <time>2011-06-20T09:47:11.000Z</time>
      </trkpt>
      <trkpt lat="43.75778" lon="7.12577">
        <ele>453.79998779297</ele>
        <time>2011-06-20T09:47:15.000Z</time>
      </trkpt>
      <trkpt lat="43.75777" lon="7.12572">
        <ele>453.39999389648</ele>
        <time>2011-06-20T09:47:18.000Z</time>
      </trkpt>
      <trkpt lat="43.75777" lon="7.12569">
        <ele>453.20001220703</ele>
        <time>2011-06-20T09:47:24.000Z</time>
      </trkpt>
      <trkpt lat="43.75774" lon="7.12566">
        <ele>452.20001220703</ele>
        <time>2011-06-20T09:47:30.000Z</time>
      </trkpt>
      <trkpt lat="43.7577" lon="7.12562">
        <ele>450.60000610352</ele>
        <time>2011-06-20T09:47:35.000Z</time>
      </trkpt>
      <trkpt lat="43.75768" lon="7.1256">
        <ele>449.60000610352</ele>
        <time>2011-06-20T09:47:39.000Z</time>
      </trkpt>
      <trkpt lat="43.75767" lon="7.12556">
        <ele>449</ele>
        <time>2011-06-20T09:47:43.000Z</time>
      </trkpt>
      <trkpt lat="43.75764" lon="7.12555">
        <ele>447.79998779297</ele>
        <time>2011-06-20T09:47:49.000Z</time>
      </trkpt>
      <trkpt lat="43.75759" lon="7.12563">
        <ele>446</ele>
        <time>2011-06-20T09:47:54.000Z</time>
      </trkpt>
      <trkpt lat="43.75748" lon="7.12576">
        <ele>442.79998779297</ele>
        <time>2011-06-20T09:47:59.000Z</time>
      </trkpt>
      <trkpt lat="43.7574" lon="7.12581">
        <ele>441</ele>
        <time>2011-06-20T09:48:02.000Z</time>
      </trkpt>
      <trkpt lat="43.7574" lon="7.12574">
        <ele>440.39999389648</ele>
        <time>2011-06-20T09:48:07.000Z</time>
      </trkpt>
      <trkpt lat="43.75734" lon="7.12574">
        <ele>438.79998779297</ele>
        <time>2011-06-20T09:48:11.000Z</time>
      </trkpt>
      <trkpt lat="43.75732" lon="7.12574">
        <ele>438.20001220703</ele>
        <time>2011-06-20T09:48:12.000Z</time>
      </trkpt>
      <trkpt lat="43.7571" lon="7.12572">
        <ele>431.79998779297</ele>
        <time>2011-06-20T09:48:18.000Z</time>
      </trkpt>
      <trkpt lat="43.75693" lon="7.12569">
        <ele>426.39999389648</ele>
        <time>2011-06-20T09:48:22.000Z</time>
      </trkpt>
      <trkpt lat="43.7568" lon="7.1257">
        <ele>422.60000610352</ele>
        <time>2011-06-20T09:48:26.000Z</time>
      </trkpt>
      <trkpt lat="43.7567" lon="7.12575">
        <ele>420.79998779297</ele>
        <time>2011-06-20T09:48:31.000Z</time>
      </trkpt>
      <trkpt lat="43.75661" lon="7.12583">
        <ele>420.39999389648</ele>
        <time>2011-06-20T09:48:36.000Z</time>
      </trkpt>
      <trkpt lat="43.75659" lon="7.12583">
        <ele>419.79998779297</ele>
        <time>2011-06-20T09:48:40.000Z</time>
      </trkpt>
      <trkpt lat="43.75655" lon="7.12583">
        <ele>418.39999389648</ele>
        <time>2011-06-20T09:48:47.000Z</time>
      </trkpt>
      <trkpt lat="43.7565" lon="7.12585">
        <ele>418</ele>
        <time>2011-06-20T09:48:50.000Z</time>
      </trkpt>
      <trkpt lat="43.75637" lon="7.1259">
        <ele>416.79998779297</ele>
        <time>2011-06-20T09:48:55.000Z</time>
      </trkpt>
      <trkpt lat="43.75621" lon="7.1259">
        <ele>412.39999389648</ele>
        <time>2011-06-20T09:49:01.000Z</time>
      </trkpt>
      <trkpt lat="43.75611" lon="7.1259">
        <ele>409.39999389648</ele>
        <time>2011-06-20T09:49:05.000Z</time>
      </trkpt>
      <trkpt lat="43.756" lon="7.12583">
        <ele>403.20001220703</ele>
        <time>2011-06-20T09:49:09.000Z</time>
      </trkpt>
      <trkpt lat="43.75585" lon="7.12578">
        <ele>397.60000610352</ele>
        <time>2011-06-20T09:49:14.000Z</time>
      </trkpt>
      <trkpt lat="43.7557" lon="7.12592">
        <ele>397.60000610352</ele>
        <time>2011-06-20T09:49:18.000Z</time>
      </trkpt>
      <trkpt lat="43.75559" lon="7.12605">
        <ele>398.79998779297</ele>
        <time>2011-06-20T09:49:21.000Z</time>
      </trkpt>
      <trkpt lat="43.75547" lon="7.12615">
        <ele>397.79998779297</ele>
        <time>2011-06-20T09:49:26.000Z</time>
      </trkpt>
      <trkpt lat="43.75545" lon="7.12623">
        <ele>399.39999389648</ele>
        <time>2011-06-20T09:49:35.000Z</time>
      </trkpt>
      <trkpt lat="43.75541" lon="7.12631">
        <ele>400.79998779297</ele>
        <time>2011-06-20T09:49:42.000Z</time>
      </trkpt>
      <trkpt lat="43.75536" lon="7.12642">
        <ele>402.39999389648</ele>
        <time>2011-06-20T09:49:49.000Z</time>
      </trkpt>
      <trkpt lat="43.75535" lon="7.12643">
        <ele>402.79998779297</ele>
        <time>2011-06-20T09:49:50.000Z</time>
      </trkpt>
      <trkpt lat="43.75529" lon="7.12649">
        <ele>402</ele>
        <time>2011-06-20T09:49:57.000Z</time>
      </trkpt>
      <trkpt lat="43.75522" lon="7.12655">
        <ele>400.79998779297</ele>
        <time>2011-06-20T09:50:04.000Z</time>
      </trkpt>
      <trkpt lat="43.75512" lon="7.12667">
        <ele>400.60000610352</ele>
        <time>2011-06-20T09:50:08.000Z</time>
      </trkpt>
      <trkpt lat="43.75506" lon="7.12688">
        <ele>402.39999389648</ele>
        <time>2011-06-20T09:50:13.000Z</time>
      </trkpt>
      <trkpt lat="43.755" lon="7.12707">
        <ele>404</ele>
        <time>2011-06-20T09:50:18.000Z</time>
      </trkpt>
      <trkpt lat="43.75494" lon="7.12725">
        <ele>404.60000610352</ele>
        <time>2011-06-20T09:50:24.000Z</time>
      </trkpt>
      <trkpt lat="43.75493" lon="7.12727">
        <ele>404.60000610352</ele>
        <time>2011-06-20T09:50:25.000Z</time>
      </trkpt>
      <trkpt lat="43.75492" lon="7.12733">
        <ele>405.39999389648</ele>
        <time>2011-06-20T09:50:30.000Z</time>
      </trkpt>
      <trkpt lat="43.75489" lon="7.12741">
        <ele>405.39999389648</ele>
        <time>2011-06-20T09:50:36.000Z</time>
      </trkpt>
      <trkpt lat="43.75486" lon="7.12754">
        <ele>406</ele>
        <time>2011-06-20T09:50:43.000Z</time>
      </trkpt>
      <trkpt lat="43.75486" lon="7.12768">
        <ele>408.39999389648</ele>
        <time>2011-06-20T09:50:52.000Z</time>
      </trkpt>
      <trkpt lat="43.7549" lon="7.12773">
        <ele>411.20001220703</ele>
        <time>2011-06-20T09:50:56.000Z</time>
      </trkpt>
      <trkpt lat="43.75497" lon="7.1278">
        <ele>416.60000610352</ele>
        <time>2011-06-20T09:51:04.000Z</time>
      </trkpt>
      <trkpt lat="43.75498" lon="7.12783">
        <ele>417.79998779297</ele>
        <time>2011-06-20T09:51:06.000Z</time>
      </trkpt>
      <trkpt lat="43.75497" lon="7.1279">
        <ele>418</ele>
        <time>2011-06-20T09:51:11.000Z</time>
      </trkpt>
      <trkpt lat="43.75489" lon="7.12794">
        <ele>414</ele>
        <time>2011-06-20T09:51:17.000Z</time>
      </trkpt>
      <trkpt lat="43.75479" lon="7.12797">
        <ele>408.60000610352</ele>
        <time>2011-06-20T09:51:21.000Z</time>
      </trkpt>
      <trkpt lat="43.75474" lon="7.12802">
        <ele>406.60000610352</ele>
        <time>2011-06-20T09:51:23.000Z</time>
      </trkpt>
      <trkpt lat="43.7546" lon="7.12827">
        <ele>403.20001220703</ele>
        <time>2011-06-20T09:51:29.000Z</time>
      </trkpt>
      <trkpt lat="43.75455" lon="7.12841">
        <ele>403.39999389648</ele>
        <time>2011-06-20T09:51:33.000Z</time>
      </trkpt>
      <trkpt lat="43.7545" lon="7.12859">
        <ele>404.79998779297</ele>
        <time>2011-06-20T09:51:37.000Z</time>
      </trkpt>
      <trkpt lat="43.75453" lon="7.12874">
        <ele>410</ele>
        <time>2011-06-20T09:51:42.000Z</time>
      </trkpt>
      <trkpt lat="43.75452" lon="7.1288">
        <ele>410.79998779297</ele>
        <time>2011-06-20T09:51:45.000Z</time>
      </trkpt>
      <trkpt lat="43.75442" lon="7.12896">
        <ele>409.20001220703</ele>
        <time>2011-06-20T09:51:52.000Z</time>
      </trkpt>
      <trkpt lat="43.75437" lon="7.1291">
        <ele>409.60000610352</ele>
        <time>2011-06-20T09:51:57.000Z</time>
      </trkpt>
      <trkpt lat="43.75428" lon="7.12924">
        <ele>408.39999389648</ele>
        <time>2011-06-20T09:52:02.000Z</time>
      </trkpt>
      <trkpt lat="43.75412" lon="7.12941">
        <ele>404</ele>
        <time>2011-06-20T09:52:07.000Z</time>
      </trkpt>
      <trkpt lat="43.75394" lon="7.1296">
        <ele>400</ele>
        <time>2011-06-20T09:52:13.000Z</time>
      </trkpt>
      <trkpt lat="43.75385" lon="7.12976">
        <ele>399.79998779297</ele>
        <time>2011-06-20T09:52:17.000Z</time>
      </trkpt>
      <trkpt lat="43.75377" lon="7.12988">
        <ele>399</ele>
        <time>2011-06-20T09:52:21.000Z</time>
      </trkpt>
      <trkpt lat="43.75374" lon="7.13">
        <ele>401.39999389648</ele>
        <time>2011-06-20T09:52:24.000Z</time>
      </trkpt>
      <trkpt lat="43.75359" lon="7.13011">
        <ele>398</ele>
        <time>2011-06-20T09:52:29.000Z</time>
      </trkpt>
      <trkpt lat="43.75349" lon="7.13013">
        <ele>393.79998779297</ele>
        <time>2011-06-20T09:52:33.000Z</time>
      </trkpt>
      <trkpt lat="43.75339" lon="7.13032">
        <ele>395</ele>
        <time>2011-06-20T09:52:38.000Z</time>
      </trkpt>
      <trkpt lat="43.75331" lon="7.13047">
        <ele>395.60000610352</ele>
        <time>2011-06-20T09:52:42.000Z</time>
      </trkpt>
      <trkpt lat="43.75316" lon="7.13057">
        <ele>393.79998779297</ele>
        <time>2011-06-20T09:52:47.000Z</time>
      </trkpt>
      <trkpt lat="43.75295" lon="7.1307">
        <ele>391.20001220703</ele>
        <time>2011-06-20T09:52:52.000Z</time>
      </trkpt>
      <trkpt lat="43.75287" lon="7.13076">
        <ele>390.20001220703</ele>
        <time>2011-06-20T09:52:54.000Z</time>
      </trkpt>
      <trkpt lat="43.75275" lon="7.1308">
        <ele>387.39999389648</ele>
        <time>2011-06-20T09:52:57.000Z</time>
      </trkpt>
      <trkpt lat="43.75265" lon="7.13083">
        <ele>384.79998779297</ele>
        <time>2011-06-20T09:53:00.000Z</time>
      </trkpt>
      <trkpt lat="43.75251" lon="7.13089">
        <ele>381.79998779297</ele>
        <time>2011-06-20T09:53:04.000Z</time>
      </trkpt>
      <trkpt lat="43.75231" lon="7.13098">
        <ele>380</ele>
        <time>2011-06-20T09:53:10.000Z</time>
      </trkpt>
      <trkpt lat="43.75213" lon="7.13109">
        <ele>379.20001220703</ele>
        <time>2011-06-20T09:53:15.000Z</time>
      </trkpt>
      <trkpt lat="43.75197" lon="7.13109">
        <ele>376.39999389648</ele>
        <time>2011-06-20T09:53:19.000Z</time>
      </trkpt>
      <trkpt lat="43.75183" lon="7.13117">
        <ele>376</ele>
        <time>2011-06-20T09:53:23.000Z</time>
      </trkpt>
      <trkpt lat="43.75165" lon="7.13119">
        <ele>373</ele>
        <time>2011-06-20T09:53:28.000Z</time>
      </trkpt>
      <trkpt lat="43.75153" lon="7.13127">
        <ele>373</ele>
        <time>2011-06-20T09:53:32.000Z</time>
      </trkpt>
      <trkpt lat="43.75148" lon="7.13135">
        <ele>374</ele>
        <time>2011-06-20T09:53:35.000Z</time>
      </trkpt>
      <trkpt lat="43.75143" lon="7.1315">
        <ele>377.60000610352</ele>
        <time>2011-06-20T09:53:39.000Z</time>
      </trkpt>
      <trkpt lat="43.75131" lon="7.13165">
        <ele>379.20001220703</ele>
        <time>2011-06-20T09:53:44.000Z</time>
      </trkpt>
      <trkpt lat="43.75117" lon="7.13173">
        <ele>380.79998779297</ele>
        <time>2011-06-20T09:53:50.000Z</time>
      </trkpt>
      <trkpt lat="43.75107" lon="7.13175">
        <ele>379.39999389648</ele>
        <time>2011-06-20T09:53:55.000Z</time>
      </trkpt>
      <trkpt lat="43.75097" lon="7.13181">
        <ele>380.20001220703</ele>
        <time>2011-06-20T09:54:00.000Z</time>
      </trkpt>
      <trkpt lat="43.75081" lon="7.13195">
        <ele>383</ele>
        <time>2011-06-20T09:54:07.000Z</time>
      </trkpt>
      <trkpt lat="43.75067" lon="7.1321">
        <ele>386.39999389648</ele>
        <time>2011-06-20T09:54:13.000Z</time>
      </trkpt>
      <trkpt lat="43.75049" lon="7.13216">
        <ele>383</ele>
        <time>2011-06-20T09:54:19.000Z</time>
      </trkpt>
      <trkpt lat="43.75048" lon="7.13221">
        <ele>384.79998779297</ele>
        <time>2011-06-20T09:54:23.000Z</time>
      </trkpt>
      <trkpt lat="43.75046" lon="7.13229">
        <ele>387.39999389648</ele>
        <time>2011-06-20T09:54:27.000Z</time>
      </trkpt>
      <trkpt lat="43.75034" lon="7.13238">
        <ele>387</ele>
        <time>2011-06-20T09:54:32.000Z</time>
      </trkpt>
      <trkpt lat="43.75019" lon="7.1325">
        <ele>385.60000610352</ele>
        <time>2011-06-20T09:54:37.000Z</time>
      </trkpt>
      <trkpt lat="43.75004" lon="7.13263">
        <ele>384.39999389648</ele>
        <time>2011-06-20T09:54:42.000Z</time>
      </trkpt>
      <trkpt lat="43.74996" lon="7.13274">
        <ele>385.20001220703</ele>
        <time>2011-06-20T09:54:47.000Z</time>
      </trkpt>
      <trkpt lat="43.74987" lon="7.13283">
        <ele>386</ele>
        <time>2011-06-20T09:54:52.000Z</time>
      </trkpt>
      <trkpt lat="43.74976" lon="7.13288">
        <ele>384.60000610352</ele>
        <time>2011-06-20T09:54:57.000Z</time>
      </trkpt>
      <trkpt lat="43.74964" lon="7.13293">
        <ele>382.60000610352</ele>
        <time>2011-06-20T09:55:04.000Z</time>
      </trkpt>
      <trkpt lat="43.74954" lon="7.133">
        <ele>381.39999389648</ele>
        <time>2011-06-20T09:55:10.000Z</time>
      </trkpt>
      <trkpt lat="43.74947" lon="7.13314">
        <ele>382.79998779297</ele>
        <time>2011-06-20T09:55:16.000Z</time>
      </trkpt>
      <trkpt lat="43.74945" lon="7.13318">
        <ele>383.20001220703</ele>
        <time>2011-06-20T09:55:20.000Z</time>
      </trkpt>
      <trkpt lat="43.74944" lon="7.13323">
        <ele>384.20001220703</ele>
        <time>2011-06-20T09:55:27.000Z</time>
      </trkpt>
      <trkpt lat="43.74943" lon="7.13327">
        <ele>385.20001220703</ele>
        <time>2011-06-20T09:55:30.000Z</time>
      </trkpt>
      <trkpt lat="43.7494" lon="7.1334">
        <ele>387.60000610352</ele>
        <time>2011-06-20T09:55:39.000Z</time>
      </trkpt>
      <trkpt lat="43.74938" lon="7.13352">
        <ele>390.20001220703</ele>
        <time>2011-06-20T09:55:48.000Z</time>
      </trkpt>
      <trkpt lat="43.74936" lon="7.13362">
        <ele>392.60000610352</ele>
        <time>2011-06-20T09:55:55.000Z</time>
      </trkpt>
      <trkpt lat="43.74936" lon="7.13371">
        <ele>394.39999389648</ele>
        <time>2011-06-20T09:56:01.000Z</time>
      </trkpt>
      <trkpt lat="43.74934" lon="7.13378">
        <ele>395.79998779297</ele>
        <time>2011-06-20T09:56:07.000Z</time>
      </trkpt>
      <trkpt lat="43.74932" lon="7.13384">
        <ele>396.20001220703</ele>
        <time>2011-06-20T09:56:12.000Z</time>
      </trkpt>
      <trkpt lat="43.74928" lon="7.13392">
        <ele>395.79998779297</ele>
        <time>2011-06-20T09:56:19.000Z</time>
      </trkpt>
      <trkpt lat="43.74926" lon="7.13402">
        <ele>397.39999389648</ele>
        <time>2011-06-20T09:56:28.000Z</time>
      </trkpt>
      <trkpt lat="43.74927" lon="7.13408">
        <ele>399.60000610352</ele>
        <time>2011-06-20T09:56:33.000Z</time>
      </trkpt>
      <trkpt lat="43.74925" lon="7.13416">
        <ele>400.39999389648</ele>
        <time>2011-06-20T09:56:40.000Z</time>
      </trkpt>
      <trkpt lat="43.74924" lon="7.13421">
        <ele>400.60000610352</ele>
        <time>2011-06-20T09:56:45.000Z</time>
      </trkpt>
      <trkpt lat="43.74922" lon="7.13432">
        <ele>402.20001220703</ele>
        <time>2011-06-20T09:56:54.000Z</time>
      </trkpt>
      <trkpt lat="43.74921" lon="7.1344">
        <ele>403.39999389648</ele>
        <time>2011-06-20T09:57:00.000Z</time>
      </trkpt>
      <trkpt lat="43.74918" lon="7.13449">
        <ele>404.20001220703</ele>
        <time>2011-06-20T09:57:08.000Z</time>
      </trkpt>
      <trkpt lat="43.74918" lon="7.1346">
        <ele>406.39999389648</ele>
        <time>2011-06-20T09:57:15.000Z</time>
      </trkpt>
      <trkpt lat="43.74918" lon="7.13461">
        <ele>406.60000610352</ele>
        <time>2011-06-20T09:57:16.000Z</time>
      </trkpt>
      <trkpt lat="43.74919" lon="7.13471">
        <ele>410.20001220703</ele>
        <time>2011-06-20T09:57:23.000Z</time>
      </trkpt>
      <trkpt lat="43.74919" lon="7.13486">
        <ele>414</ele>
        <time>2011-06-20T09:57:33.000Z</time>
      </trkpt>
      <trkpt lat="43.74919" lon="7.13494">
        <ele>415.79998779297</ele>
        <time>2011-06-20T09:57:38.000Z</time>
      </trkpt>
      <trkpt lat="43.74919" lon="7.13502">
        <ele>418</ele>
        <time>2011-06-20T09:57:44.000Z</time>
      </trkpt>
      <trkpt lat="43.74919" lon="7.13512">
        <ele>420.39999389648</ele>
        <time>2011-06-20T09:57:52.000Z</time>
      </trkpt>
      <trkpt lat="43.74915" lon="7.13522">
        <ele>420.60000610352</ele>
        <time>2011-06-20T09:57:59.000Z</time>
      </trkpt>
      <trkpt lat="43.74907" lon="7.13531">
        <ele>419.60000610352</ele>
        <time>2011-06-20T09:58:08.000Z</time>
      </trkpt>
      <trkpt lat="43.74902" lon="7.13539">
        <ele>419.20001220703</ele>
        <time>2011-06-20T09:58:15.000Z</time>
      </trkpt>
      <trkpt lat="43.74898" lon="7.13549">
        <ele>420.20001220703</ele>
        <time>2011-06-20T09:58:23.000Z</time>
      </trkpt>
      <trkpt lat="43.74893" lon="7.13562">
        <ele>421.39999389648</ele>
        <time>2011-06-20T09:58:32.000Z</time>
      </trkpt>
      <trkpt lat="43.7489" lon="7.13572">
        <ele>422.39999389648</ele>
        <time>2011-06-20T09:58:39.000Z</time>
      </trkpt>
      <trkpt lat="43.74887" lon="7.13578">
        <ele>422.79998779297</ele>
        <time>2011-06-20T09:58:44.000Z</time>
      </trkpt>
      <trkpt lat="43.74882" lon="7.13592">
        <ele>424.20001220703</ele>
        <time>2011-06-20T09:58:53.000Z</time>
      </trkpt>
      <trkpt lat="43.7488" lon="7.13596">
        <ele>424.39999389648</ele>
        <time>2011-06-20T09:58:58.000Z</time>
      </trkpt>
      <trkpt lat="43.74872" lon="7.13608">
        <ele>424.20001220703</ele>
        <time>2011-06-20T09:59:04.000Z</time>
      </trkpt>
      <trkpt lat="43.7486" lon="7.13627">
        <ele>423.20001220703</ele>
        <time>2011-06-20T09:59:10.000Z</time>
      </trkpt>
      <trkpt lat="43.74851" lon="7.13648">
        <ele>423.39999389648</ele>
        <time>2011-06-20T09:59:17.000Z</time>
      </trkpt>
      <trkpt lat="43.74849" lon="7.13653">
        <ele>423.79998779297</ele>
        <time>2011-06-20T09:59:22.000Z</time>
      </trkpt>
      <trkpt lat="43.74849" lon="7.13651">
        <ele>423.20001220703</ele>
        <time>2011-06-20T09:59:27.000Z</time>
      </trkpt>
      <trkpt lat="43.7485" lon="7.13653">
        <ele>424</ele>
        <time>2011-06-20T09:59:35.000Z</time>
      </trkpt>
      <trkpt lat="43.7485" lon="7.13656">
        <ele>425.20001220703</ele>
        <time>2011-06-20T09:59:37.000Z</time>
      </trkpt>
      <trkpt lat="43.74851" lon="7.13664">
        <ele>427.39999389648</ele>
        <time>2011-06-20T09:59:41.000Z</time>
      </trkpt>
      <trkpt lat="43.74848" lon="7.13679">
        <ele>429.39999389648</ele>
        <time>2011-06-20T09:59:50.000Z</time>
      </trkpt>
      <trkpt lat="43.74841" lon="7.13691">
        <ele>429</ele>
        <time>2011-06-20T09:59:59.000Z</time>
      </trkpt>
      <trkpt lat="43.74836" lon="7.13705">
        <ele>429.60000610352</ele>
        <time>2011-06-20T10:00:08.000Z</time>
      </trkpt>
      <trkpt lat="43.74831" lon="7.13723">
        <ele>432.60000610352</ele>
        <time>2011-06-20T10:00:19.000Z</time>
      </trkpt>
      <trkpt lat="43.74828" lon="7.13739">
        <ele>436</ele>
        <time>2011-06-20T10:00:29.000Z</time>
      </trkpt>
      <trkpt lat="43.74823" lon="7.13754">
        <ele>437.79998779297</ele>
        <time>2011-06-20T10:00:39.000Z</time>
      </trkpt>
      <trkpt lat="43.74821" lon="7.13765">
        <ele>438.79998779297</ele>
        <time>2011-06-20T10:00:46.000Z</time>
      </trkpt>
      <trkpt lat="43.74821" lon="7.1377">
        <ele>439.60000610352</ele>
        <time>2011-06-20T10:00:49.000Z</time>
      </trkpt>
      <trkpt lat="43.7482" lon="7.13777">
        <ele>440.39999389648</ele>
        <time>2011-06-20T10:00:53.000Z</time>
      </trkpt>
      <trkpt lat="43.7482" lon="7.13784">
        <ele>441.20001220703</ele>
        <time>2011-06-20T10:00:59.000Z</time>
      </trkpt>
      <trkpt lat="43.74817" lon="7.13795">
        <ele>442</ele>
        <time>2011-06-20T10:01:04.000Z</time>
      </trkpt>
      <trkpt lat="43.74813" lon="7.13814">
        <ele>443.60000610352</ele>
        <time>2011-06-20T10:01:09.000Z</time>
      </trkpt>
      <trkpt lat="43.74806" lon="7.13838">
        <ele>444.79998779297</ele>
        <time>2011-06-20T10:01:15.000Z</time>
      </trkpt>
      <trkpt lat="43.74795" lon="7.13853">
        <ele>442.79998779297</ele>
        <time>2011-06-20T10:01:19.000Z</time>
      </trkpt>
      <trkpt lat="43.74784" lon="7.13882">
        <ele>442</ele>
        <time>2011-06-20T10:01:24.000Z</time>
      </trkpt>
      <trkpt lat="43.74778" lon="7.13898">
        <ele>442.20001220703</ele>
        <time>2011-06-20T10:01:27.000Z</time>
      </trkpt>
      <trkpt lat="43.74772" lon="7.13924">
        <ele>443</ele>
        <time>2011-06-20T10:01:33.000Z</time>
      </trkpt>
      <trkpt lat="43.74772" lon="7.13937">
        <ele>443.79998779297</ele>
        <time>2011-06-20T10:01:36.000Z</time>
      </trkpt>
      <trkpt lat="43.74761" lon="7.13983">
        <ele>443.60000610352</ele>
        <time>2011-06-20T10:01:46.000Z</time>
      </trkpt>
      <trkpt lat="43.74754" lon="7.14015">
        <ele>443.60000610352</ele>
        <time>2011-06-20T10:01:51.000Z</time>
      </trkpt>
      <trkpt lat="43.74751" lon="7.14044">
        <ele>443.79998779297</ele>
        <time>2011-06-20T10:01:55.000Z</time>
      </trkpt>
      <trkpt lat="43.74743" lon="7.1407">
        <ele>443</ele>
        <time>2011-06-20T10:01:59.000Z</time>
      </trkpt>
      <trkpt lat="43.74737" lon="7.14096">
        <ele>441.60000610352</ele>
        <time>2011-06-20T10:02:03.000Z</time>
      </trkpt>
      <trkpt lat="43.74733" lon="7.14143">
        <ele>441.60000610352</ele>
        <time>2011-06-20T10:02:10.000Z</time>
      </trkpt>
      <trkpt lat="43.74734" lon="7.14151">
        <ele>442</ele>
        <time>2011-06-20T10:02:11.000Z</time>
      </trkpt>
      <trkpt lat="43.74736" lon="7.14193">
        <ele>442</ele>
        <time>2011-06-20T10:02:16.000Z</time>
      </trkpt>
      <trkpt lat="43.74735" lon="7.14201">
        <ele>441.39999389648</ele>
        <time>2011-06-20T10:02:21.000Z</time>
      </trkpt>
      <trkpt lat="43.74738" lon="7.142">
        <ele>442.20001220703</ele>
        <time>2011-06-20T10:02:29.000Z</time>
      </trkpt>
      <trkpt lat="43.74741" lon="7.14203">
        <ele>443</ele>
        <time>2011-06-20T10:02:35.000Z</time>
      </trkpt>
      <trkpt lat="43.74746" lon="7.14212">
        <ele>443.79998779297</ele>
        <time>2011-06-20T10:02:40.000Z</time>
      </trkpt>
      <trkpt lat="43.74751" lon="7.14225">
        <ele>444.20001220703</ele>
        <time>2011-06-20T10:02:44.000Z</time>
      </trkpt>
      <trkpt lat="43.74746" lon="7.14237">
        <ele>442.79998779297</ele>
        <time>2011-06-20T10:02:48.000Z</time>
      </trkpt>
      <trkpt lat="43.74743" lon="7.14273">
        <ele>440</ele>
        <time>2011-06-20T10:02:54.000Z</time>
      </trkpt>
      <trkpt lat="43.74749" lon="7.14291">
        <ele>440.20001220703</ele>
        <time>2011-06-20T10:02:56.000Z</time>
      </trkpt>
      <trkpt lat="43.74769" lon="7.14301">
        <ele>440.79998779297</ele>
        <time>2011-06-20T10:03:00.000Z</time>
      </trkpt>
      <trkpt lat="43.74786" lon="7.14317">
        <ele>440.39999389648</ele>
        <time>2011-06-20T10:03:04.000Z</time>
      </trkpt>
      <trkpt lat="43.74796" lon="7.1433">
        <ele>439.39999389648</ele>
        <time>2011-06-20T10:03:07.000Z</time>
      </trkpt>
      <trkpt lat="43.74803" lon="7.14338">
        <ele>438.20001220703</ele>
        <time>2011-06-20T10:03:09.000Z</time>
      </trkpt>
      <trkpt lat="43.74831" lon="7.14347">
        <ele>436.60000610352</ele>
        <time>2011-06-20T10:03:14.000Z</time>
      </trkpt>
      <trkpt lat="43.74841" lon="7.14353">
        <ele>435.60000610352</ele>
        <time>2011-06-20T10:03:16.000Z</time>
      </trkpt>
      <trkpt lat="43.74835" lon="7.14359">
        <ele>434</ele>
        <time>2011-06-20T10:03:20.000Z</time>
      </trkpt>
      <trkpt lat="43.7481" lon="7.14373">
        <ele>430.39999389648</ele>
        <time>2011-06-20T10:03:24.000Z</time>
      </trkpt>
      <trkpt lat="43.74797" lon="7.14376">
        <ele>429.20001220703</ele>
        <time>2011-06-20T10:03:26.000Z</time>
      </trkpt>
      <trkpt lat="43.74767" lon="7.14378">
        <ele>428</ele>
        <time>2011-06-20T10:03:32.000Z</time>
      </trkpt>
      <trkpt lat="43.74762" lon="7.14377">
        <ele>428.20001220703</ele>
        <time>2011-06-20T10:03:33.000Z</time>
      </trkpt>
      <trkpt lat="43.74754" lon="7.14376">
        <ele>428.20001220703</ele>
        <time>2011-06-20T10:03:35.000Z</time>
      </trkpt>
      <trkpt lat="43.74741" lon="7.14383">
        <ele>424.39999389648</ele>
        <time>2011-06-20T10:03:39.000Z</time>
      </trkpt>
      <trkpt lat="43.74744" lon="7.14397">
        <ele>422</ele>
        <time>2011-06-20T10:03:41.000Z</time>
      </trkpt>
      <trkpt lat="43.74743" lon="7.14423">
        <ele>414.60000610352</ele>
        <time>2011-06-20T10:03:45.000Z</time>
      </trkpt>
      <trkpt lat="43.74734" lon="7.14426">
        <ele>411.60000610352</ele>
        <time>2011-06-20T10:03:49.000Z</time>
      </trkpt>
      <trkpt lat="43.7472" lon="7.14414">
        <ele>412</ele>
        <time>2011-06-20T10:03:52.000Z</time>
      </trkpt>
      <trkpt lat="43.74694" lon="7.14407">
        <ele>407</ele>
        <time>2011-06-20T10:03:56.000Z</time>
      </trkpt>
      <trkpt lat="43.74669" lon="7.1439">
        <ele>405</ele>
        <time>2011-06-20T10:04:00.000Z</time>
      </trkpt>
      <trkpt lat="43.74657" lon="7.14379">
        <ele>404.20001220703</ele>
        <time>2011-06-20T10:04:02.000Z</time>
      </trkpt>
      <trkpt lat="43.74644" lon="7.14361">
        <ele>404.39999389648</ele>
        <time>2011-06-20T10:04:06.000Z</time>
      </trkpt>
      <trkpt lat="43.7464" lon="7.14358">
        <ele>403.60000610352</ele>
        <time>2011-06-20T10:04:07.000Z</time>
      </trkpt>
      <trkpt lat="43.74631" lon="7.14346">
        <ele>403</ele>
        <time>2011-06-20T10:04:09.000Z</time>
      </trkpt>
      <trkpt lat="43.74611" lon="7.14322">
        <ele>399.60000610352</ele>
        <time>2011-06-20T10:04:14.000Z</time>
      </trkpt>
      <trkpt lat="43.74596" lon="7.14322">
        <ele>394.20001220703</ele>
        <time>2011-06-20T10:04:18.000Z</time>
      </trkpt>
      <trkpt lat="43.74592" lon="7.14336">
        <ele>391.79998779297</ele>
        <time>2011-06-20T10:04:21.000Z</time>
      </trkpt>
      <trkpt lat="43.74583" lon="7.14357">
        <ele>385.79998779297</ele>
        <time>2011-06-20T10:04:25.000Z</time>
      </trkpt>
      <trkpt lat="43.74572" lon="7.14342">
        <ele>382.79998779297</ele>
        <time>2011-06-20T10:04:28.000Z</time>
      </trkpt>
      <trkpt lat="43.74571" lon="7.14333">
        <ele>383.20001220703</ele>
        <time>2011-06-20T10:04:29.000Z</time>
      </trkpt>
      <trkpt lat="43.7456" lon="7.14296">
        <ele>381.20001220703</ele>
        <time>2011-06-20T10:04:34.000Z</time>
      </trkpt>
      <trkpt lat="43.74559" lon="7.14301">
        <ele>380.20001220703</ele>
        <time>2011-06-20T10:04:38.000Z</time>
      </trkpt>
      <trkpt lat="43.74558" lon="7.14317">
        <ele>378.79998779297</ele>
        <time>2011-06-20T10:04:40.000Z</time>
      </trkpt>
      <trkpt lat="43.74557" lon="7.1435">
        <ele>375</ele>
        <time>2011-06-20T10:04:43.000Z</time>
      </trkpt>
      <trkpt lat="43.74548" lon="7.14363">
        <ele>369.20001220703</ele>
        <time>2011-06-20T10:04:47.000Z</time>
      </trkpt>
      <trkpt lat="43.74542" lon="7.14347">
        <ele>368.39999389648</ele>
        <time>2011-06-20T10:04:49.000Z</time>
      </trkpt>
      <trkpt lat="43.74534" lon="7.14324">
        <ele>367</ele>
        <time>2011-06-20T10:04:52.000Z</time>
      </trkpt>
      <trkpt lat="43.7453" lon="7.14335">
        <ele>364.20001220703</ele>
        <time>2011-06-20T10:04:54.000Z</time>
      </trkpt>
      <trkpt lat="43.74529" lon="7.14345">
        <ele>363</ele>
        <time>2011-06-20T10:04:55.000Z</time>
      </trkpt>
      <trkpt lat="43.7453" lon="7.14403">
        <ele>357</ele>
        <time>2011-06-20T10:04:59.000Z</time>
      </trkpt>
      <trkpt lat="43.7453" lon="7.1443">
        <ele>353.79998779297</ele>
        <time>2011-06-20T10:05:01.000Z</time>
      </trkpt>
      <trkpt lat="43.74527" lon="7.14461">
        <ele>349</ele>
        <time>2011-06-20T10:05:05.000Z</time>
      </trkpt>
      <trkpt lat="43.74516" lon="7.14458">
        <ele>345.20001220703</ele>
        <time>2011-06-20T10:05:07.000Z</time>
      </trkpt>
      <trkpt lat="43.74512" lon="7.14445">
        <ele>345</ele>
        <time>2011-06-20T10:05:09.000Z</time>
      </trkpt>
      <trkpt lat="43.74497" lon="7.14402">
        <ele>343.60000610352</ele>
        <time>2011-06-20T10:05:15.000Z</time>
      </trkpt>
      <trkpt lat="43.74489" lon="7.14377">
        <ele>343.39999389648</ele>
        <time>2011-06-20T10:05:18.000Z</time>
      </trkpt>
      <trkpt lat="43.74477" lon="7.14371">
        <ele>340.39999389648</ele>
        <time>2011-06-20T10:05:21.000Z</time>
      </trkpt>
      <trkpt lat="43.74473" lon="7.14387">
        <ele>338</ele>
        <time>2011-06-20T10:05:23.000Z</time>
      </trkpt>
      <trkpt lat="43.74465" lon="7.14409">
        <ele>334.20001220703</ele>
        <time>2011-06-20T10:05:26.000Z</time>
      </trkpt>
      <trkpt lat="43.74449" lon="7.14418">
        <ele>329.39999389648</ele>
        <time>2011-06-20T10:05:28.000Z</time>
      </trkpt>
      <trkpt lat="43.74394" lon="7.14432">
        <ele>317.20001220703</ele>
        <time>2011-06-20T10:05:33.000Z</time>
      </trkpt>
      <trkpt lat="43.74356" lon="7.14438">
        <ele>311.79998779297</ele>
        <time>2011-06-20T10:05:37.000Z</time>
      </trkpt>
      <trkpt lat="43.74349" lon="7.14439">
        <ele>310.79998779297</ele>
        <time>2011-06-20T10:05:38.000Z</time>
      </trkpt>
      <trkpt lat="43.74336" lon="7.14429">
        <ele>309.20001220703</ele>
        <time>2011-06-20T10:05:42.000Z</time>
      </trkpt>
      <trkpt lat="43.74339" lon="7.14423">
        <ele>309.60000610352</ele>
        <time>2011-06-20T10:05:43.000Z</time>
      </trkpt>
      <trkpt lat="43.74354" lon="7.14375">
        <ele>311.39999389648</ele>
        <time>2011-06-20T10:05:49.000Z</time>
      </trkpt>
      <trkpt lat="43.74356" lon="7.14321">
        <ele>310.79998779297</ele>
        <time>2011-06-20T10:05:55.000Z</time>
      </trkpt>
      <trkpt lat="43.74359" lon="7.14265">
        <ele>309.39999389648</ele>
        <time>2011-06-20T10:06:01.000Z</time>
      </trkpt>
      <trkpt lat="43.74373" lon="7.14207">
        <ele>312</ele>
        <time>2011-06-20T10:06:08.000Z</time>
      </trkpt>
      <trkpt lat="43.74376" lon="7.14161">
        <ele>312.39999389648</ele>
        <time>2011-06-20T10:06:14.000Z</time>
      </trkpt>
      <trkpt lat="43.74368" lon="7.14089">
        <ele>311.20001220703</ele>
        <time>2011-06-20T10:06:23.000Z</time>
      </trkpt>
      <trkpt lat="43.7437" lon="7.14032">
        <ele>311.79998779297</ele>
        <time>2011-06-20T10:06:30.000Z</time>
      </trkpt>
      <trkpt lat="43.7438" lon="7.13941">
        <ele>311.20001220703</ele>
        <time>2011-06-20T10:06:41.000Z</time>
      </trkpt>
      <trkpt lat="43.74387" lon="7.13892">
        <ele>308</ele>
        <time>2011-06-20T10:06:47.000Z</time>
      </trkpt>
      <trkpt lat="43.74404" lon="7.13848">
        <ele>308.60000610352</ele>
        <time>2011-06-20T10:06:53.000Z</time>
      </trkpt>
      <trkpt lat="43.74438" lon="7.138">
        <ele>309.20001220703</ele>
        <time>2011-06-20T10:07:01.000Z</time>
      </trkpt>
      <trkpt lat="43.74476" lon="7.1376">
        <ele>311.60000610352</ele>
        <time>2011-06-20T10:07:09.000Z</time>
      </trkpt>
      <trkpt lat="43.74498" lon="7.13733">
        <ele>313</ele>
        <time>2011-06-20T10:07:14.000Z</time>
      </trkpt>
      <trkpt lat="43.74531" lon="7.13667">
        <ele>313.39999389648</ele>
        <time>2011-06-20T10:07:24.000Z</time>
      </trkpt>
      <trkpt lat="43.74561" lon="7.13603">
        <ele>313</ele>
        <time>2011-06-20T10:07:34.000Z</time>
      </trkpt>
      <trkpt lat="43.74585" lon="7.13556">
        <ele>312</ele>
        <time>2011-06-20T10:07:41.000Z</time>
      </trkpt>
      <trkpt lat="43.746" lon="7.1353">
        <ele>310.60000610352</ele>
        <time>2011-06-20T10:07:45.000Z</time>
      </trkpt>
      <trkpt lat="43.7462" lon="7.13511">
        <ele>312</ele>
        <time>2011-06-20T10:07:49.000Z</time>
      </trkpt>
      <trkpt lat="43.7463" lon="7.13504">
        <ele>313.60000610352</ele>
        <time>2011-06-20T10:07:51.000Z</time>
      </trkpt>
      <trkpt lat="43.74673" lon="7.13461">
        <ele>315.39999389648</ele>
        <time>2011-06-20T10:08:00.000Z</time>
      </trkpt>
      <trkpt lat="43.747" lon="7.1343">
        <ele>317.39999389648</ele>
        <time>2011-06-20T10:08:06.000Z</time>
      </trkpt>
      <trkpt lat="43.74715" lon="7.13404">
        <ele>317</ele>
        <time>2011-06-20T10:08:10.000Z</time>
      </trkpt>
      <trkpt lat="43.74748" lon="7.13327">
        <ele>312.60000610352</ele>
        <time>2011-06-20T10:08:21.000Z</time>
      </trkpt>
      <trkpt lat="43.74779" lon="7.13254">
        <ele>310.39999389648</ele>
        <time>2011-06-20T10:08:31.000Z</time>
      </trkpt>
      <trkpt lat="43.74788" lon="7.13234">
        <ele>310.60000610352</ele>
        <time>2011-06-20T10:08:34.000Z</time>
      </trkpt>
      <trkpt lat="43.74837" lon="7.13171">
        <ele>311.39999389648</ele>
        <time>2011-06-20T10:08:45.000Z</time>
      </trkpt>
      <trkpt lat="43.74869" lon="7.13143">
        <ele>313.79998779297</ele>
        <time>2011-06-20T10:08:51.000Z</time>
      </trkpt>
      <trkpt lat="43.74913" lon="7.13133">
        <ele>320.20001220703</ele>
        <time>2011-06-20T10:08:58.000Z</time>
      </trkpt>
      <trkpt lat="43.74936" lon="7.13106">
        <ele>317.79998779297</ele>
        <time>2011-06-20T10:09:03.000Z</time>
      </trkpt>
      <trkpt lat="43.74941" lon="7.13073">
        <ele>312</ele>
        <time>2011-06-20T10:09:07.000Z</time>
      </trkpt>
      <trkpt lat="43.74935" lon="7.13049">
        <ele>310</ele>
        <time>2011-06-20T10:09:10.000Z</time>
      </trkpt>
      <trkpt lat="43.74915" lon="7.12988">
        <ele>311.60000610352</ele>
        <time>2011-06-20T10:09:18.000Z</time>
      </trkpt>
      <trkpt lat="43.749" lon="7.12968">
        <ele>318.79998779297</ele>
        <time>2011-06-20T10:09:22.000Z</time>
      </trkpt>
      <trkpt lat="43.74879" lon="7.12969">
        <ele>320.39999389648</ele>
        <time>2011-06-20T10:09:26.000Z</time>
      </trkpt>
      <trkpt lat="43.74818" lon="7.13002">
        <ele>317</ele>
        <time>2011-06-20T10:09:37.000Z</time>
      </trkpt>
      <trkpt lat="43.74765" lon="7.13017">
        <ele>318.20001220703</ele>
        <time>2011-06-20T10:09:46.000Z</time>
      </trkpt>
      <trkpt lat="43.74724" lon="7.13026">
        <ele>322</ele>
        <time>2011-06-20T10:09:53.000Z</time>
      </trkpt>
      <trkpt lat="43.74718" lon="7.13028">
        <ele>322.39999389648</ele>
        <time>2011-06-20T10:09:54.000Z</time>
      </trkpt>
      <trkpt lat="43.74682" lon="7.13057">
        <ele>321.60000610352</ele>
        <time>2011-06-20T10:10:01.000Z</time>
      </trkpt>
      <trkpt lat="43.7466" lon="7.13083">
        <ele>318.20001220703</ele>
        <time>2011-06-20T10:10:06.000Z</time>
      </trkpt>
      <trkpt lat="43.74632" lon="7.13096">
        <ele>314.79998779297</ele>
        <time>2011-06-20T10:10:11.000Z</time>
      </trkpt>
      <trkpt lat="43.74609" lon="7.13092">
        <ele>317.20001220703</ele>
        <time>2011-06-20T10:10:15.000Z</time>
      </trkpt>
      <trkpt lat="43.74566" lon="7.13067">
        <ele>326.60000610352</ele>
        <time>2011-06-20T10:10:23.000Z</time>
      </trkpt>
      <trkpt lat="43.74533" lon="7.13064">
        <ele>330</ele>
        <time>2011-06-20T10:10:29.000Z</time>
      </trkpt>
      <trkpt lat="43.74528" lon="7.13066">
        <ele>329.79998779297</ele>
        <time>2011-06-20T10:10:30.000Z</time>
      </trkpt>
      <trkpt lat="43.74486" lon="7.13074">
        <ele>330</ele>
        <time>2011-06-20T10:10:37.000Z</time>
      </trkpt>
      <trkpt lat="43.74462" lon="7.13078">
        <ele>331.39999389648</ele>
        <time>2011-06-20T10:10:41.000Z</time>
      </trkpt>
      <trkpt lat="43.74422" lon="7.13098">
        <ele>328.79998779297</ele>
        <time>2011-06-20T10:10:48.000Z</time>
      </trkpt>
      <trkpt lat="43.74398" lon="7.13102">
        <ele>331.60000610352</ele>
        <time>2011-06-20T10:10:52.000Z</time>
      </trkpt>
      <trkpt lat="43.74386" lon="7.13102">
        <ele>333.79998779297</ele>
        <time>2011-06-20T10:10:54.000Z</time>
      </trkpt>
      <trkpt lat="43.74369" lon="7.13106">
        <ele>335.60000610352</ele>
        <time>2011-06-20T10:10:57.000Z</time>
      </trkpt>
      <trkpt lat="43.74343" lon="7.13128">
        <ele>335</ele>
        <time>2011-06-20T10:11:02.000Z</time>
      </trkpt>
      <trkpt lat="43.74339" lon="7.13134">
        <ele>334.39999389648</ele>
        <time>2011-06-20T10:11:03.000Z</time>
      </trkpt>
      <trkpt lat="43.74327" lon="7.13169">
        <ele>328.60000610352</ele>
        <time>2011-06-20T10:11:08.000Z</time>
      </trkpt>
      <trkpt lat="43.74316" lon="7.13217">
        <ele>319.20001220703</ele>
        <time>2011-06-20T10:11:14.000Z</time>
      </trkpt>
      <trkpt lat="43.74297" lon="7.13243">
        <ele>316.79998779297</ele>
        <time>2011-06-20T10:11:19.000Z</time>
      </trkpt>
      <trkpt lat="43.74275" lon="7.1325">
        <ele>320.20001220703</ele>
        <time>2011-06-20T10:11:23.000Z</time>
      </trkpt>
      <trkpt lat="43.74258" lon="7.13246">
        <ele>325</ele>
        <time>2011-06-20T10:11:26.000Z</time>
      </trkpt>
      <trkpt lat="43.74192" lon="7.13221">
        <ele>329.79998779297</ele>
        <time>2011-06-20T10:11:38.000Z</time>
      </trkpt>
      <trkpt lat="43.74147" lon="7.13212">
        <ele>330</ele>
        <time>2011-06-20T10:11:46.000Z</time>
      </trkpt>
      <trkpt lat="43.74094" lon="7.13201">
        <ele>330</ele>
        <time>2011-06-20T10:11:55.000Z</time>
      </trkpt>
      <trkpt lat="43.74038" lon="7.13181">
        <ele>333.79998779297</ele>
        <time>2011-06-20T10:12:05.000Z</time>
      </trkpt>
      <trkpt lat="43.74009" lon="7.13183">
        <ele>331.79998779297</ele>
        <time>2011-06-20T10:12:10.000Z</time>
      </trkpt>
      <trkpt lat="43.73986" lon="7.1319">
        <ele>327.79998779297</ele>
        <time>2011-06-20T10:12:14.000Z</time>
      </trkpt>
      <trkpt lat="43.73958" lon="7.13187">
        <ele>326.20001220703</ele>
        <time>2011-06-20T10:12:19.000Z</time>
      </trkpt>
      <trkpt lat="43.73953" lon="7.13184">
        <ele>326.39999389648</ele>
        <time>2011-06-20T10:12:20.000Z</time>
      </trkpt>
      <trkpt lat="43.73926" lon="7.13167">
        <ele>328</ele>
        <time>2011-06-20T10:12:25.000Z</time>
      </trkpt>
      <trkpt lat="43.73906" lon="7.1314">
        <ele>330.20001220703</ele>
        <time>2011-06-20T10:12:30.000Z</time>
      </trkpt>
      <trkpt lat="43.73901" lon="7.13126">
        <ele>332.20001220703</ele>
        <time>2011-06-20T10:12:32.000Z</time>
      </trkpt>
      <trkpt lat="43.7389" lon="7.13099">
        <ele>336.20001220703</ele>
        <time>2011-06-20T10:12:36.000Z</time>
      </trkpt>
      <trkpt lat="43.73868" lon="7.13077">
        <ele>337</ele>
        <time>2011-06-20T10:12:41.000Z</time>
      </trkpt>
      <trkpt lat="43.73862" lon="7.13074">
        <ele>336.60000610352</ele>
        <time>2011-06-20T10:12:42.000Z</time>
      </trkpt>
      <trkpt lat="43.73824" lon="7.13066">
        <ele>330.79998779297</ele>
        <time>2011-06-20T10:12:49.000Z</time>
      </trkpt>
      <trkpt lat="43.73799" lon="7.13049">
        <ele>328.79998779297</ele>
        <time>2011-06-20T10:12:54.000Z</time>
      </trkpt>
      <trkpt lat="43.73795" lon="7.13043">
        <ele>328.79998779297</ele>
        <time>2011-06-20T10:12:55.000Z</time>
      </trkpt>
      <trkpt lat="43.73773" lon="7.13001">
        <ele>329.20001220703</ele>
        <time>2011-06-20T10:13:02.000Z</time>
      </trkpt>
      <trkpt lat="43.73766" lon="7.12975">
        <ele>329</ele>
        <time>2011-06-20T10:13:06.000Z</time>
      </trkpt>
      <trkpt lat="43.73758" lon="7.12906">
        <ele>330.60000610352</ele>
        <time>2011-06-20T10:13:15.000Z</time>
      </trkpt>
      <trkpt lat="43.7375" lon="7.12842">
        <ele>331.39999389648</ele>
        <time>2011-06-20T10:13:23.000Z</time>
      </trkpt>
      <trkpt lat="43.73731" lon="7.12793">
        <ele>332</ele>
        <time>2011-06-20T10:13:30.000Z</time>
      </trkpt>
      <trkpt lat="43.73704" lon="7.12741">
        <ele>330.79998779297</ele>
        <time>2011-06-20T10:13:38.000Z</time>
      </trkpt>
      <trkpt lat="43.7368" lon="7.12704">
        <ele>329.39999389648</ele>
        <time>2011-06-20T10:13:44.000Z</time>
      </trkpt>
      <trkpt lat="43.73657" lon="7.12645">
        <ele>331.39999389648</ele>
        <time>2011-06-20T10:13:52.000Z</time>
      </trkpt>
      <trkpt lat="43.73645" lon="7.1259">
        <ele>331.79998779297</ele>
        <time>2011-06-20T10:13:59.000Z</time>
      </trkpt>
      <trkpt lat="43.73642" lon="7.12573">
        <ele>332</ele>
        <time>2011-06-20T10:14:01.000Z</time>
      </trkpt>
      <trkpt lat="43.73648" lon="7.12525">
        <ele>335</ele>
        <time>2011-06-20T10:14:07.000Z</time>
      </trkpt>
      <trkpt lat="43.73657" lon="7.12453">
        <ele>340.20001220703</ele>
        <time>2011-06-20T10:14:16.000Z</time>
      </trkpt>
      <trkpt lat="43.7365" lon="7.12413">
        <ele>340.79998779297</ele>
        <time>2011-06-20T10:14:21.000Z</time>
      </trkpt>
      <trkpt lat="43.73633" lon="7.12392">
        <ele>340.60000610352</ele>
        <time>2011-06-20T10:14:25.000Z</time>
      </trkpt>
      <trkpt lat="43.73628" lon="7.12388">
        <ele>340</ele>
        <time>2011-06-20T10:14:26.000Z</time>
      </trkpt>
      <trkpt lat="43.73613" lon="7.12379">
        <ele>338.20001220703</ele>
        <time>2011-06-20T10:14:29.000Z</time>
      </trkpt>
      <trkpt lat="43.73588" lon="7.12349">
        <ele>336.79998779297</ele>
        <time>2011-06-20T10:14:35.000Z</time>
      </trkpt>
      <trkpt lat="43.73568" lon="7.12313">
        <ele>340.79998779297</ele>
        <time>2011-06-20T10:14:41.000Z</time>
      </trkpt>
      <trkpt lat="43.73544" lon="7.12296">
        <ele>341.60000610352</ele>
        <time>2011-06-20T10:14:46.000Z</time>
      </trkpt>
      <trkpt lat="43.73538" lon="7.12296">
        <ele>340.79998779297</ele>
        <time>2011-06-20T10:14:47.000Z</time>
      </trkpt>
      <trkpt lat="43.73503" lon="7.12298">
        <ele>335.79998779297</ele>
        <time>2011-06-20T10:14:53.000Z</time>
      </trkpt>
      <trkpt lat="43.73477" lon="7.12285">
        <ele>335.39999389648</ele>
        <time>2011-06-20T10:14:58.000Z</time>
      </trkpt>
      <trkpt lat="43.73437" lon="7.12246">
        <ele>337</ele>
        <time>2011-06-20T10:15:07.000Z</time>
      </trkpt>
      <trkpt lat="43.7342" lon="7.12206">
        <ele>340.39999389648</ele>
        <time>2011-06-20T10:15:13.000Z</time>
      </trkpt>
      <trkpt lat="43.73415" lon="7.12192">
        <ele>341.39999389648</ele>
        <time>2011-06-20T10:15:15.000Z</time>
      </trkpt>
      <trkpt lat="43.73399" lon="7.12169">
        <ele>341.79998779297</ele>
        <time>2011-06-20T10:15:19.000Z</time>
      </trkpt>
      <trkpt lat="43.73353" lon="7.12131">
        <ele>339</ele>
        <time>2011-06-20T10:15:28.000Z</time>
      </trkpt>
      <trkpt lat="43.73312" lon="7.12086">
        <ele>338.60000610352</ele>
        <time>2011-06-20T10:15:37.000Z</time>
      </trkpt>
      <trkpt lat="43.73292" lon="7.12059">
        <ele>338.79998779297</ele>
        <time>2011-06-20T10:15:42.000Z</time>
      </trkpt>
      <trkpt lat="43.73276" lon="7.12009">
        <ele>342.79998779297</ele>
        <time>2011-06-20T10:15:49.000Z</time>
      </trkpt>
      <trkpt lat="43.73274" lon="7.12002">
        <ele>343.39999389648</ele>
        <time>2011-06-20T10:15:50.000Z</time>
      </trkpt>
      <trkpt lat="43.7326" lon="7.11977">
        <ele>344.39999389648</ele>
        <time>2011-06-20T10:15:54.000Z</time>
      </trkpt>
      <trkpt lat="43.73227" lon="7.11943">
        <ele>342.79998779297</ele>
        <time>2011-06-20T10:16:01.000Z</time>
      </trkpt>
      <trkpt lat="43.73195" lon="7.11895">
        <ele>344.79998779297</ele>
        <time>2011-06-20T10:16:09.000Z</time>
      </trkpt>
      <trkpt lat="43.73165" lon="7.11846">
        <ele>350.60000610352</ele>
        <time>2011-06-20T10:16:17.000Z</time>
      </trkpt>
      <trkpt lat="43.7314" lon="7.1183">
        <ele>354</ele>
        <time>2011-06-20T10:16:22.000Z</time>
      </trkpt>
      <trkpt lat="43.73122" lon="7.11832">
        <ele>353.20001220703</ele>
        <time>2011-06-20T10:16:25.000Z</time>
      </trkpt>
      <trkpt lat="43.73101" lon="7.1184">
        <ele>350.20001220703</ele>
        <time>2011-06-20T10:16:29.000Z</time>
      </trkpt>
      <trkpt lat="43.73057" lon="7.11847">
        <ele>346.79998779297</ele>
        <time>2011-06-20T10:16:37.000Z</time>
      </trkpt>
      <trkpt lat="43.73008" lon="7.11848">
        <ele>346</ele>
        <time>2011-06-20T10:16:46.000Z</time>
      </trkpt>
      <trkpt lat="43.72977" lon="7.11835">
        <ele>347.39999389648</ele>
        <time>2011-06-20T10:16:52.000Z</time>
      </trkpt>
      <trkpt lat="43.72939" lon="7.11817">
        <ele>346.60000610352</ele>
        <time>2011-06-20T10:16:59.000Z</time>
      </trkpt>
      <trkpt lat="43.7288" lon="7.11784">
        <ele>345</ele>
        <time>2011-06-20T10:17:10.000Z</time>
      </trkpt>
      <trkpt lat="43.72836" lon="7.11758">
        <ele>342.20001220703</ele>
        <time>2011-06-20T10:17:18.000Z</time>
      </trkpt>
      <trkpt lat="43.72814" lon="7.1173">
        <ele>338.79998779297</ele>
        <time>2011-06-20T10:17:23.000Z</time>
      </trkpt>
      <trkpt lat="43.72809" lon="7.11696">
        <ele>336.60000610352</ele>
        <time>2011-06-20T10:17:27.000Z</time>
      </trkpt>
      <trkpt lat="43.72816" lon="7.1167">
        <ele>337.79998779297</ele>
        <time>2011-06-20T10:17:30.000Z</time>
      </trkpt>
      <trkpt lat="43.7283" lon="7.11637">
        <ele>338.79998779297</ele>
        <time>2011-06-20T10:17:34.000Z</time>
      </trkpt>
      <trkpt lat="43.72844" lon="7.11595">
        <ele>338.20001220703</ele>
        <time>2011-06-20T10:17:39.000Z</time>
      </trkpt>
      <trkpt lat="43.72861" lon="7.11566">
        <ele>340.20001220703</ele>
        <time>2011-06-20T10:17:43.000Z</time>
      </trkpt>
      <trkpt lat="43.72876" lon="7.11548">
        <ele>342.79998779297</ele>
        <time>2011-06-20T10:17:46.000Z</time>
      </trkpt>
      <trkpt lat="43.72893" lon="7.11508">
        <ele>344</ele>
        <time>2011-06-20T10:17:51.000Z</time>
      </trkpt>
      <trkpt lat="43.72904" lon="7.11454">
        <ele>347.60000610352</ele>
        <time>2011-06-20T10:17:57.000Z</time>
      </trkpt>
      <trkpt lat="43.72899" lon="7.11407">
        <ele>348.79998779297</ele>
        <time>2011-06-20T10:18:02.000Z</time>
      </trkpt>
      <trkpt lat="43.72881" lon="7.11379">
        <ele>348.79998779297</ele>
        <time>2011-06-20T10:18:06.000Z</time>
      </trkpt>
      <trkpt lat="43.72868" lon="7.11372">
        <ele>346.79998779297</ele>
        <time>2011-06-20T10:18:08.000Z</time>
      </trkpt>
      <trkpt lat="43.72808" lon="7.11346">
        <ele>338.20001220703</ele>
        <time>2011-06-20T10:18:17.000Z</time>
      </trkpt>
      <trkpt lat="43.7278" lon="7.11315">
        <ele>336.39999389648</ele>
        <time>2011-06-20T10:18:22.000Z</time>
      </trkpt>
      <trkpt lat="43.72771" lon="7.11287">
        <ele>337</ele>
        <time>2011-06-20T10:18:25.000Z</time>
      </trkpt>
      <trkpt lat="43.7275" lon="7.11211">
        <ele>337.20001220703</ele>
        <time>2011-06-20T10:18:33.000Z</time>
      </trkpt>
      <trkpt lat="43.72734" lon="7.11155">
        <ele>338.79998779297</ele>
        <time>2011-06-20T10:18:39.000Z</time>
      </trkpt>
      <trkpt lat="43.72716" lon="7.11123">
        <ele>337.39999389648</ele>
        <time>2011-06-20T10:18:43.000Z</time>
      </trkpt>
      <trkpt lat="43.72709" lon="7.11117">
        <ele>336.39999389648</ele>
        <time>2011-06-20T10:18:44.000Z</time>
      </trkpt>
      <trkpt lat="43.72683" lon="7.11096">
        <ele>332.39999389648</ele>
        <time>2011-06-20T10:18:48.000Z</time>
      </trkpt>
      <trkpt lat="43.72665" lon="7.11064">
        <ele>330.20001220703</ele>
        <time>2011-06-20T10:18:52.000Z</time>
      </trkpt>
      <trkpt lat="43.72667" lon="7.11042">
        <ele>331</ele>
        <time>2011-06-20T10:18:54.000Z</time>
      </trkpt>
      <trkpt lat="43.72674" lon="7.11011">
        <ele>333.20001220703</ele>
        <time>2011-06-20T10:18:57.000Z</time>
      </trkpt>
      <trkpt lat="43.7267" lon="7.10972">
        <ele>334.79998779297</ele>
        <time>2011-06-20T10:19:01.000Z</time>
      </trkpt>
      <trkpt lat="43.72654" lon="7.1095">
        <ele>333.79998779297</ele>
        <time>2011-06-20T10:19:04.000Z</time>
      </trkpt>
      <trkpt lat="43.72648" lon="7.10945">
        <ele>333.20001220703</ele>
        <time>2011-06-20T10:19:05.000Z</time>
      </trkpt>
      <trkpt lat="43.72614" lon="7.10927">
        <ele>330</ele>
        <time>2011-06-20T10:19:10.000Z</time>
      </trkpt>
      <trkpt lat="43.72585" lon="7.10895">
        <ele>327.39999389648</ele>
        <time>2011-06-20T10:19:15.000Z</time>
      </trkpt>
      <trkpt lat="43.72568" lon="7.10847">
        <ele>325.60000610352</ele>
        <time>2011-06-20T10:19:20.000Z</time>
      </trkpt>
      <trkpt lat="43.72578" lon="7.10815">
        <ele>326</ele>
        <time>2011-06-20T10:19:23.000Z</time>
      </trkpt>
      <trkpt lat="43.72585" lon="7.10797">
        <ele>325.39999389648</ele>
        <time>2011-06-20T10:19:25.000Z</time>
      </trkpt>
      <trkpt lat="43.72617" lon="7.10715">
        <ele>326.20001220703</ele>
        <time>2011-06-20T10:19:34.000Z</time>
      </trkpt>
      <trkpt lat="43.72641" lon="7.10675">
        <ele>326.79998779297</ele>
        <time>2011-06-20T10:19:39.000Z</time>
      </trkpt>
      <trkpt lat="43.72668" lon="7.10637">
        <ele>328.20001220703</ele>
        <time>2011-06-20T10:19:44.000Z</time>
      </trkpt>
      <trkpt lat="43.72676" lon="7.106">
        <ele>329</ele>
        <time>2011-06-20T10:19:48.000Z</time>
      </trkpt>
      <trkpt lat="43.7267" lon="7.1057">
        <ele>329.79998779297</ele>
        <time>2011-06-20T10:19:51.000Z</time>
      </trkpt>
      <trkpt lat="43.72653" lon="7.10552">
        <ele>332</ele>
        <time>2011-06-20T10:19:54.000Z</time>
      </trkpt>
      <trkpt lat="43.72626" lon="7.10547">
        <ele>333</ele>
        <time>2011-06-20T10:19:58.000Z</time>
      </trkpt>
      <trkpt lat="43.72607" lon="7.1056">
        <ele>331.60000610352</ele>
        <time>2011-06-20T10:20:01.000Z</time>
      </trkpt>
      <trkpt lat="43.72565" lon="7.10594">
        <ele>329</ele>
        <time>2011-06-20T10:20:08.000Z</time>
      </trkpt>
      <trkpt lat="43.72538" lon="7.10618">
        <ele>328.60000610352</ele>
        <time>2011-06-20T10:20:13.000Z</time>
      </trkpt>
      <trkpt lat="43.72513" lon="7.10662">
        <ele>326.60000610352</ele>
        <time>2011-06-20T10:20:19.000Z</time>
      </trkpt>
      <trkpt lat="43.72504" lon="7.10676">
        <ele>325.79998779297</ele>
        <time>2011-06-20T10:20:21.000Z</time>
      </trkpt>
      <trkpt lat="43.72483" lon="7.10698">
        <ele>325</ele>
        <time>2011-06-20T10:20:25.000Z</time>
      </trkpt>
      <trkpt lat="43.72455" lon="7.10706">
        <ele>326.79998779297</ele>
        <time>2011-06-20T10:20:30.000Z</time>
      </trkpt>
      <trkpt lat="43.72443" lon="7.10689">
        <ele>328</ele>
        <time>2011-06-20T10:20:33.000Z</time>
      </trkpt>
      <trkpt lat="43.72421" lon="7.10638">
        <ele>329</ele>
        <time>2011-06-20T10:20:40.000Z</time>
      </trkpt>
      <trkpt lat="43.72405" lon="7.10574">
        <ele>329.39999389648</ele>
        <time>2011-06-20T10:20:48.000Z</time>
      </trkpt>
      <trkpt lat="43.72403" lon="7.10566">
        <ele>329.79998779297</ele>
        <time>2011-06-20T10:20:49.000Z</time>
      </trkpt>
      <trkpt lat="43.72386" lon="7.10551">
        <ele>330.39999389648</ele>
        <time>2011-06-20T10:20:53.000Z</time>
      </trkpt>
      <trkpt lat="43.7238" lon="7.10552">
        <ele>330.20001220703</ele>
        <time>2011-06-20T10:20:54.000Z</time>
      </trkpt>
      <trkpt lat="43.72351" lon="7.1056">
        <ele>329.60000610352</ele>
        <time>2011-06-20T10:20:59.000Z</time>
      </trkpt>
      <trkpt lat="43.72332" lon="7.10585">
        <ele>328.79998779297</ele>
        <time>2011-06-20T10:21:03.000Z</time>
      </trkpt>
      <trkpt lat="43.72329" lon="7.106">
        <ele>328.79998779297</ele>
        <time>2011-06-20T10:21:05.000Z</time>
      </trkpt>
      <trkpt lat="43.72327" lon="7.10617">
        <ele>328.60000610352</ele>
        <time>2011-06-20T10:21:07.000Z</time>
      </trkpt>
      <trkpt lat="43.72327" lon="7.10641">
        <ele>328.60000610352</ele>
        <time>2011-06-20T10:21:10.000Z</time>
      </trkpt>
      <trkpt lat="43.72322" lon="7.10697">
        <ele>327.79998779297</ele>
        <time>2011-06-20T10:21:16.000Z</time>
      </trkpt>
      <trkpt lat="43.72302" lon="7.10719">
        <ele>326.20001220703</ele>
        <time>2011-06-20T10:21:20.000Z</time>
      </trkpt>
      <trkpt lat="43.72286" lon="7.10714">
        <ele>325.20001220703</ele>
        <time>2011-06-20T10:21:23.000Z</time>
      </trkpt>
      <trkpt lat="43.72268" lon="7.10687">
        <ele>324.60000610352</ele>
        <time>2011-06-20T10:21:27.000Z</time>
      </trkpt>
      <trkpt lat="43.72248" lon="7.10688">
        <ele>323.39999389648</ele>
        <time>2011-06-20T10:21:30.000Z</time>
      </trkpt>
      <trkpt lat="43.72206" lon="7.10701">
        <ele>322</ele>
        <time>2011-06-20T10:21:36.000Z</time>
      </trkpt>
      <trkpt lat="43.72185" lon="7.107">
        <ele>321.39999389648</ele>
        <time>2011-06-20T10:21:39.000Z</time>
      </trkpt>
      <trkpt lat="43.72142" lon="7.10679">
        <ele>321.79998779297</ele>
        <time>2011-06-20T10:21:46.000Z</time>
      </trkpt>
      <trkpt lat="43.72111" lon="7.10659">
        <ele>322.60000610352</ele>
        <time>2011-06-20T10:21:51.000Z</time>
      </trkpt>
      <trkpt lat="43.72095" lon="7.10651">
        <ele>322.60000610352</ele>
        <time>2011-06-20T10:21:54.000Z</time>
      </trkpt>
      <trkpt lat="43.72075" lon="7.10656">
        <ele>321.60000610352</ele>
        <time>2011-06-20T10:21:58.000Z</time>
      </trkpt>
      <trkpt lat="43.72061" lon="7.10669">
        <ele>320.60000610352</ele>
        <time>2011-06-20T10:22:01.000Z</time>
      </trkpt>
      <trkpt lat="43.72044" lon="7.10703">
        <ele>319.60000610352</ele>
        <time>2011-06-20T10:22:06.000Z</time>
      </trkpt>
      <trkpt lat="43.72043" lon="7.10713">
        <ele>319.60000610352</ele>
        <time>2011-06-20T10:22:07.000Z</time>
      </trkpt>
      <trkpt lat="43.72028" lon="7.10771">
        <ele>321</ele>
        <time>2011-06-20T10:22:14.000Z</time>
      </trkpt>
      <trkpt lat="43.72009" lon="7.10822">
        <ele>324.39999389648</ele>
        <time>2011-06-20T10:22:21.000Z</time>
      </trkpt>
      <trkpt lat="43.72006" lon="7.10829">
        <ele>325</ele>
        <time>2011-06-20T10:22:22.000Z</time>
      </trkpt>
      <trkpt lat="43.71996" lon="7.1085">
        <ele>325.60000610352</ele>
        <time>2011-06-20T10:22:25.000Z</time>
      </trkpt>
      <trkpt lat="43.71988" lon="7.10865">
        <ele>325.39999389648</ele>
        <time>2011-06-20T10:22:28.000Z</time>
      </trkpt>
    </trkseg>
  </trk>
</gpx>